[[{"header":{"parameterUnit":"m.s-1","parameterCategory":1,"la1":30.6,"la2":29.2853,"lo1":-89.7004,"lo2":-87.6739,"dy":0.0162,"dx":0.0183,"nx":112,"ny":82,"refTime":"2026-04-26T12:00:00:Z","depth":0,"parameterNumber":2,"parameterNumberName":"U-component_of_WINDS"},"data":[0.0,0.0,0.0,0.0,0.0,0.0,0.0,0.0,0.0,0.0,0.0,0.0,0.0,0.0,0.0,0.0,0.0,0.0,0.0,0.0,0.0,0.0,0.0,0.0,0.0,0.0,0.0,0.0,0.0,0.0,0.0,0.0,0.0,0.0,0.0,0.0,0.0,0.0,0.0,0.0,0.0,0.0,0.0,0.0,0.0,0.0,0.0,0.0,0.0,0.0,0.0,0.0,0.0,0.0,0.0,0.0,0.0,0.0,0.0,0.0,0.0,0.0,0.0,0.0,0.0,0.0,0.0,0.0,0.0,0.0,0.0,0.0,0.0,0.0,0.0,0.0,0.0,0.0,0.0,0.0,0.0,0.0,0.0,0.0,0.0,0.0,0.0,0.0,0.0,0.0,-5.0706,-5.1124,-5.2509,-5.3638,-5.4253,-5.2461,-5.0923,-5.0055,0.0,0.0,0.0,0.0,0.0,0.0,0.0,0.0,0.0,0.0,0.0,0.0,0.0,0.0,0.0,0.0,0.0,0.0,0.0,0.0,0.0,0.0,0.0,0.0,0.0,0.0,0.0,0.0,0.0,0.0,0.0,0.0,0.0,0.0,0.0,0.0,0.0,0.0,0.0,0.0,0.0,0.0,0.0,0.0,0.0,0.0,0.0,0.0,0.0,0.0,0.0,0.0,0.0,0.0,0.0,0.0,0.0,0.0,0.0,0.0,0.0,0.0,0.0,0.0,0.0,0.0,0.0,0.0,0.0,0.0,0.0,0.0,0.0,0.0,0.0,0.0,0.0,0.0,0.0,0.0,0.0,0.0,0.0,0.0,0.0,0.0,0.0,0.0,0.0,0.0,0.0,0.0,0.0,0.0,0.0,0.0,0.0,0.0,0.0,0.0,0.0,0.0,0.0,0.0,-5.0255,-5.2587,-5.3665,-5.4118,-5.391,-5.2343,-5.0858,-4.9677,0.0,0.0,0.0,0.0,0.0,0.0,0.0,0.0,0.0,0.0,0.0,0.0,0.0,0.0,0.0,0.0,0.0,0.0,0.0,0.0,0.0,0.0,0.0,0.0,0.0,0.0,0.0,0.0,0.0,0.0,0.0,0.0,0.0,0.0,0.0,0.0,0.0,0.0,0.0,0.0,0.0,0.0,0.0,0.0,0.0,0.0,0.0,0.0,0.0,0.0,0.0,0.0,0.0,0.0,0.0,0.0,0.0,0.0,0.0,0.0,0.0,0.0,0.0,0.0,0.0,0.0,0.0,0.0,0.0,0.0,0.0,0.0,0.0,0.0,0.0,0.0,0.0,0.0,0.0,0.0,0.0,0.0,0.0,0.0,0.0,0.0,0.0,0.0,0.0,0.0,0.0,0.0,0.0,0.0,0.0,0.0,0.0,0.0,0.0,0.0,0.0,0.0,0.0,-4.9816,-5.0995,-5.3586,-5.4179,-5.4506,-5.4802,-5.3012,-5.1298,-4.9919,-4.7977,0.0,0.0,0.0,0.0,0.0,0.0,0.0,0.0,0.0,0.0,0.0,0.0,0.0,0.0,0.0,0.0,0.0,0.0,0.0,0.0,0.0,0.0,0.0,0.0,0.0,0.0,0.0,0.0,0.0,0.0,0.0,0.0,0.0,0.0,0.0,0.0,0.0,0.0,0.0,0.0,0.0,0.0,0.0,0.0,0.0,0.0,0.0,0.0,0.0,0.0,0.0,0.0,0.0,0.0,0.0,0.0,0.0,0.0,0.0,0.0,0.0,0.0,0.0,0.0,0.0,0.0,0.0,0.0,0.0,0.0,0.0,0.0,0.0,0.0,0.0,0.0,0.0,0.0,0.0,0.0,0.0,0.0,0.0,0.0,0.0,0.0,0.0,0.0,0.0,0.0,0.0,0.0,0.0,0.0,0.0,0.0,0.0,0.0,0.0,0.0,0.0,0.0,-5.1423,-5.2435,-5.4473,-5.4818,-5.5071,-5.5461,-5.3521,-5.1587,-5.0017,-4.7778,0.0,0.0,0.0,0.0,0.0,0.0,0.0,0.0,0.0,0.0,0.0,0.0,0.0,0.0,0.0,0.0,0.0,0.0,0.0,0.0,0.0,0.0,0.0,0.0,0.0,0.0,0.0,0.0,0.0,0.0,0.0,0.0,0.0,0.0,0.0,0.0,0.0,0.0,0.0,0.0,0.0,0.0,0.0,0.0,0.0,0.0,0.0,0.0,0.0,0.0,0.0,0.0,0.0,0.0,0.0,0.0,0.0,0.0,0.0,0.0,0.0,0.0,0.0,0.0,0.0,0.0,0.0,0.0,0.0,0.0,0.0,0.0,0.0,0.0,0.0,0.0,0.0,0.0,0.0,0.0,0.0,0.0,0.0,0.0,0.0,0.0,0.0,0.0,0.0,0.0,0.0,0.0,0.0,0.0,0.0,0.0,0.0,0.0,0.0,0.0,0.0,0.0,-5.2908,-5.4491,-5.5409,-5.6067,-5.6019,-5.4937,-5.3219,-5.1374,-4.9462,-4.7089,0.0,0.0,0.0,0.0,0.0,0.0,0.0,0.0,0.0,0.0,0.0,0.0,0.0,0.0,0.0,0.0,0.0,0.0,0.0,0.0,0.0,0.0,0.0,0.0,0.0,0.0,0.0,0.0,0.0,0.0,0.0,0.0,0.0,0.0,0.0,0.0,0.0,0.0,0.0,0.0,0.0,0.0,0.0,0.0,0.0,0.0,0.0,0.0,0.0,0.0,0.0,0.0,0.0,0.0,0.0,0.0,0.0,0.0,0.0,0.0,0.0,0.0,0.0,0.0,0.0,0.0,0.0,0.0,0.0,0.0,0.0,0.0,0.0,0.0,0.0,0.0,0.0,0.0,0.0,0.0,0.0,0.0,0.0,0.0,0.0,0.0,0.0,0.0,0.0,0.0,0.0,0.0,0.0,0.0,0.0,0.0,0.0,0.0,0.0,0.0,0.0,0.0,-5.2027,-5.4016,-5.5335,-5.5403,-5.513,-5.4611,-5.2779,-5.072,-4.8544,0.0,0.0,0.0,0.0,0.0,0.0,0.0,0.0,0.0,0.0,0.0,0.0,0.0,0.0,0.0,0.0,0.0,0.0,0.0,0.0,0.0,0.0,0.0,0.0,0.0,0.0,0.0,0.0,0.0,0.0,0.0,0.0,0.0,0.0,0.0,0.0,0.0,0.0,0.0,0.0,0.0,0.0,0.0,0.0,0.0,0.0,0.0,0.0,0.0,0.0,0.0,0.0,0.0,0.0,0.0,0.0,0.0,0.0,0.0,0.0,0.0,0.0,0.0,0.0,0.0,0.0,0.0,0.0,0.0,0.0,0.0,0.0,0.0,0.0,0.0,0.0,0.0,0.0,0.0,0.0,0.0,0.0,0.0,0.0,0.0,0.0,0.0,0.0,0.0,0.0,0.0,0.0,0.0,0.0,0.0,0.0,0.0,0.0,0.0,0.0,0.0,0.0,-4.9198,-5.1529,-5.3617,-5.4942,-5.4548,-5.4073,-5.3802,-5.2004,-4.9923,-4.7678,0.0,0.0,0.0,0.0,0.0,0.0,0.0,0.0,0.0,0.0,0.0,0.0,0.0,0.0,0.0,0.0,0.0,0.0,0.0,0.0,0.0,0.0,0.0,0.0,0.0,0.0,0.0,0.0,0.0,0.0,0.0,0.0,0.0,0.0,0.0,0.0,0.0,0.0,0.0,0.0,0.0,0.0,0.0,0.0,0.0,0.0,0.0,0.0,0.0,0.0,0.0,0.0,0.0,0.0,0.0,0.0,0.0,0.0,0.0,0.0,0.0,0.0,0.0,0.0,0.0,0.0,0.0,0.0,0.0,0.0,0.0,0.0,0.0,0.0,0.0,0.0,0.0,0.0,0.0,0.0,0.0,0.0,0.0,0.0,0.0,0.0,0.0,0.0,0.0,0.0,0.0,0.0,0.0,0.0,0.0,0.0,0.0,0.0,0.0,0.0,0.0,0.0,-4.9676,-5.187,-5.3568,-5.4298,-5.3735,-5.3036,-5.2438,-5.0899,-4.9085,0.0,0.0,0.0,0.0,0.0,0.0,0.0,0.0,0.0,0.0,0.0,0.0,0.0,0.0,0.0,0.0,0.0,0.0,0.0,0.0,0.0,0.0,0.0,0.0,0.0,0.0,0.0,0.0,0.0,0.0,0.0,0.0,0.0,0.0,0.0,0.0,0.0,0.0,0.0,0.0,0.0,0.0,0.0,0.0,0.0,0.0,0.0,0.0,0.0,0.0,0.0,0.0,0.0,0.0,0.0,0.0,0.0,0.0,0.0,0.0,0.0,0.0,0.0,0.0,0.0,0.0,0.0,0.0,0.0,0.0,0.0,0.0,0.0,0.0,0.0,0.0,0.0,0.0,0.0,0.0,0.0,0.0,0.0,0.0,0.0,0.0,0.0,0.0,0.0,0.0,0.0,0.0,0.0,0.0,0.0,0.0,0.0,0.0,0.0,0.0,0.0,0.0,0.0,-4.7588,-5.0466,-5.2528,-5.2741,-5.2263,-5.1772,-5.1516,-5.0151,-4.835,-4.6143,0.0,0.0,0.0,0.0,0.0,0.0,0.0,0.0,0.0,0.0,0.0,0.0,0.0,0.0,0.0,0.0,0.0,0.0,0.0,0.0,0.0,0.0,0.0,0.0,0.0,0.0,0.0,0.0,0.0,0.0,0.0,0.0,0.0,0.0,0.0,0.0,0.0,0.0,0.0,0.0,0.0,0.0,0.0,0.0,0.0,0.0,0.0,0.0,0.0,0.0,0.0,0.0,0.0,0.0,0.0,0.0,0.0,0.0,0.0,0.0,0.0,0.0,0.0,0.0,0.0,0.0,0.0,0.0,0.0,0.0,0.0,0.0,0.0,0.0,0.0,0.0,0.0,0.0,0.0,0.0,0.0,0.0,0.0,0.0,0.0,0.0,0.0,0.0,0.0,0.0,0.0,0.0,0.0,0.0,0.0,0.0,0.0,0.0,0.0,0.0,0.0,0.0,-4.6204,-4.8923,-5.0922,-5.1189,-5.0443,-4.9926,-4.9825,-4.877,-4.7175,-4.4925,0.0,0.0,0.0,0.0,0.0,0.0,0.0,0.0,0.0,0.0,0.0,0.0,0.0,0.0,0.0,0.0,0.0,0.0,0.0,0.0,0.0,0.0,0.0,0.0,0.0,0.0,0.0,0.0,0.0,0.0,0.0,0.0,0.0,0.0,0.0,0.0,0.0,0.0,0.0,0.0,0.0,0.0,0.0,0.0,0.0,0.0,0.0,0.0,0.0,0.0,0.0,0.0,0.0,0.0,0.0,0.0,0.0,0.0,0.0,0.0,0.0,0.0,0.0,0.0,0.0,0.0,0.0,0.0,0.0,0.0,0.0,0.0,0.0,0.0,0.0,0.0,0.0,0.0,0.0,0.0,0.0,0.0,0.0,0.0,0.0,0.0,0.0,0.0,0.0,0.0,0.0,0.0,0.0,0.0,0.0,0.0,0.0,0.0,0.0,0.0,0.0,0.0,-4.5329,-4.7346,-4.894,-4.9539,-4.8532,-4.7787,-4.7787,-4.7175,-4.5838,-4.3527,0.0,0.0,0.0,0.0,0.0,0.0,0.0,0.0,0.0,0.0,0.0,0.0,0.0,0.0,0.0,0.0,0.0,0.0,0.0,0.0,0.0,0.0,0.0,0.0,0.0,0.0,0.0,0.0,0.0,0.0,0.0,0.0,0.0,0.0,0.0,0.0,0.0,0.0,0.0,0.0,0.0,0.0,0.0,0.0,0.0,0.0,0.0,0.0,0.0,0.0,0.0,0.0,0.0,0.0,0.0,0.0,0.0,0.0,0.0,0.0,-4.7309,0.0,0.0,0.0,0.0,0.0,0.0,0.0,0.0,0.0,0.0,0.0,0.0,0.0,0.0,0.0,0.0,0.0,0.0,0.0,0.0,0.0,0.0,0.0,0.0,0.0,0.0,0.0,0.0,0.0,0.0,0.0,0.0,0.0,0.0,0.0,0.0,0.0,0.0,0.0,0.0,0.0,-4.3868,-4.5858,-4.7304,-4.7461,-4.7213,-4.7022,-4.7022,-4.6887,-4.5838,-4.3527,-4.3392,0.0,0.0,0.0,0.0,0.0,0.0,0.0,0.0,0.0,0.0,0.0,0.0,0.0,0.0,0.0,0.0,0.0,0.0,0.0,0.0,0.0,0.0,0.0,0.0,0.0,0.0,0.0,0.0,0.0,0.0,0.0,0.0,0.0,0.0,0.0,0.0,0.0,0.0,0.0,0.0,0.0,0.0,0.0,0.0,0.0,0.0,0.0,0.0,0.0,0.0,0.0,0.0,0.0,0.0,0.0,0.0,0.0,0.0,0.0,0.0,-4.7062,0.0,0.0,0.0,0.0,0.0,0.0,0.0,0.0,0.0,0.0,0.0,0.0,0.0,0.0,0.0,0.0,0.0,0.0,0.0,0.0,0.0,0.0,0.0,0.0,0.0,0.0,0.0,0.0,0.0,0.0,0.0,0.0,0.0,0.0,0.0,0.0,0.0,0.0,0.0,0.0,-4.3341,-4.5077,-4.6413,-4.6752,-4.6481,-4.6261,-4.6261,-4.594,-4.506,-4.3494,-4.2716,0.0,0.0,0.0,0.0,0.0,0.0,0.0,0.0,0.0,0.0,0.0,0.0,0.0,0.0,0.0,0.0,0.0,0.0,0.0,0.0,0.0,0.0,0.0,0.0,0.0,0.0,0.0,0.0,0.0,0.0,0.0,0.0,0.0,0.0,0.0,0.0,0.0,0.0,0.0,0.0,0.0,0.0,0.0,0.0,0.0,0.0,0.0,0.0,0.0,0.0,0.0,0.0,0.0,-5.2229,-5.381,-5.3807,-5.3812,-5.3793,-5.3602,-4.9991,-4.8836,-4.9398,-4.7786,0.0,0.0,0.0,0.0,0.0,0.0,0.0,0.0,0.0,0.0,0.0,0.0,0.0,0.0,0.0,0.0,0.0,0.0,0.0,0.0,0.0,0.0,0.0,0.0,-4.4231,-4.3981,-4.3382,0.0,0.0,0.0,0.0,0.0,0.0,0.0,0.0,0.0,0.0,0.0,-4.3149,-4.4553,-4.5737,-4.6346,-4.5872,-4.5517,-4.5517,-4.4942,-4.4248,-4.3443,-4.2269,-4.1136,0.0,0.0,0.0,0.0,0.0,0.0,0.0,0.0,0.0,0.0,0.0,0.0,0.0,0.0,0.0,0.0,0.0,0.0,0.0,0.0,0.0,0.0,0.0,0.0,0.0,0.0,0.0,0.0,0.0,0.0,0.0,0.0,-4.4356,-4.4251,0.0,0.0,0.0,0.0,0.0,0.0,0.0,0.0,0.0,0.0,0.0,0.0,0.0,-4.759,-4.7701,-4.98,-5.0193,-4.8937,-5.2234,-5.3795,-5.3795,-5.3814,-5.3796,-5.3777,-5.32,0.0,-5.0723,-5.0244,0.0,0.0,0.0,0.0,0.0,0.0,0.0,0.0,0.0,0.0,0.0,0.0,0.0,0.0,0.0,0.0,0.0,0.0,0.0,0.0,0.0,0.0,-4.5939,-4.5371,-4.5233,-4.5172,0.0,-4.388,-4.2552,-4.1732,-4.1579,0.0,0.0,0.0,0.0,0.0,0.0,0.0,-4.2422,-4.3802,-4.4784,-4.4886,-4.4801,-4.475,-4.475,-4.4666,-4.4248,-4.3443,-4.3206,-4.2192,-4.018,-3.9901,0.0,0.0,0.0,0.0,0.0,0.0,0.0,0.0,0.0,0.0,0.0,0.0,0.0,0.0,0.0,0.0,0.0,0.0,0.0,0.0,0.0,0.0,0.0,0.0,0.0,0.0,0.0,0.0,0.0,-4.4047,-4.5068,-4.4495,-4.5128,-4.5282,0.0,0.0,0.0,0.0,0.0,0.0,0.0,0.0,0.0,-4.8109,-4.8732,-4.9503,-5.045,-5.1528,-5.1937,-5.1658,-5.3106,-5.3813,-5.3813,-5.3813,-5.3311,-5.2437,-5.2438,-5.2252,-5.1875,-5.138,-4.9888,-4.7891,0.0,0.0,0.0,0.0,-4.4389,-4.3793,-4.463,-4.444,-4.388,-4.419,0.0,0.0,0.0,0.0,0.0,0.0,0.0,0.0,0.0,0.0,-4.5441,-4.5958,-4.5725,-4.5276,-4.4872,-4.4191,-4.352,0.0,-4.3006,-4.2586,-4.1255,0.0,0.0,0.0,0.0,-4.1782,-4.1677,-4.2625,-4.3328,-4.3328,-4.3673,-4.3927,-4.3927,-4.4333,-4.4462,-4.4096,-4.3656,-4.2953,-4.1989,-4.0764,-3.9648,0.0,0.0,0.0,0.0,0.0,0.0,0.0,0.0,0.0,0.0,0.0,0.0,0.0,0.0,0.0,0.0,0.0,0.0,0.0,0.0,0.0,0.0,0.0,0.0,0.0,0.0,0.0,0.0,-4.508,-4.5598,-4.4691,-4.549,-4.5805,0.0,0.0,0.0,0.0,0.0,0.0,-4.7872,-4.8441,-4.9152,-5.0016,-5.0494,-5.1342,-5.2587,-5.281,-5.32,-5.3794,-5.3794,-5.3813,-5.3795,-5.3813,-5.2921,-5.138,-5.0954,-5.1454,-5.2549,-5.1864,-5.0606,-4.9055,-4.8265,-4.6914,-4.5433,-4.5839,-4.5182,-4.4259,-4.5535,-4.5372,-4.4613,-4.4803,-4.4621,-4.4087,-4.2948,0.0,0.0,0.0,0.0,-4.3793,-4.5052,-4.4992,-4.4803,-4.5786,-4.5561,-4.4923,-4.419,-4.4018,-4.394,0.0,-4.3572,-4.3108,-4.1627,0.0,0.0,0.0,0.0,-4.1342,-4.1204,-4.183,-4.2286,-4.2286,-4.2794,-4.3172,-4.3375,-4.3944,-4.4395,-4.4598,-4.4045,-4.3595,-4.3392,-4.166,-4.0485,-4.0096,0.0,0.0,0.0,0.0,0.0,0.0,0.0,0.0,0.0,0.0,0.0,0.0,0.0,0.0,0.0,0.0,0.0,0.0,0.0,0.0,0.0,0.0,0.0,0.0,0.0,0.0,0.0,0.0,0.0,-4.4966,-4.6222,0.0,0.0,0.0,0.0,-4.7434,-4.8135,-4.8878,-4.9727,-5.021,-5.0863,-5.174,-5.2228,-5.2512,-5.2605,-5.3367,-5.3758,-5.3814,-5.3813,-5.3795,-5.3795,-5.3796,-5.2921,-5.1305,-4.9732,-5.0398,-5.253,-5.1804,-5.1474,-5.1297,-4.9991,-4.9012,-4.8233,-4.7754,-4.7096,-4.6544,-4.7338,-4.6586,-4.5466,-4.6251,-4.5475,-4.4294,-4.4207,-4.369,0.0,0.0,-4.4207,-4.4432,-4.519,-4.5363,-4.5173,-4.457,-4.438,-4.4156,-4.3414,-4.3258,-4.3034,0.0,-4.2112,-4.1805,-4.091,0.0,-4.0634,-4.0355,-4.0917,-4.1342,-4.1204,-4.183,-4.2286,-4.2286,-4.232,-4.2642,-4.3325,-4.3426,-4.3792,-4.4564,-4.4564,-4.4198,-4.3426,-4.2625,-4.1525,-4.013,-3.9343,0.0,0.0,0.0,0.0,0.0,0.0,0.0,0.0,0.0,0.0,0.0,0.0,0.0,0.0,0.0,0.0,0.0,0.0,0.0,0.0,0.0,0.0,0.0,0.0,0.0,0.0,0.0,0.0,-4.6016,-4.7369,0.0,-4.7352,-4.785,-4.8311,-4.8553,-4.995,-5.0892,-5.1113,-5.1972,-5.2602,-5.2919,-5.323,-5.3367,-5.3367,-5.3664,-5.3813,-5.3796,-5.3795,-5.3814,-5.3738,-5.1621,-5.0324,-4.9748,-4.9157,-4.9712,-5.1082,-5.1245,-5.1426,-5.1508,-5.0611,-4.9528,-4.8434,-4.7902,-4.7224,-4.6648,-4.6906,-4.6276,-4.5449,-4.5725,-4.513,-4.4311,-4.4311,-4.4121,-4.3966,-4.4225,-4.463,-4.5079,-4.5328,-4.5061,-4.463,-4.4363,-4.3931,-4.3379,-4.2603,-4.243,-4.2206,-4.1447,-4.2102,-4.2509,-4.1684,-4.1547,-4.1319,-4.0644,-4.0724,-4.0779,-4.0646,-4.079,-4.0891,-4.0891,-4.1305,-4.1694,-4.1965,-4.2422,-4.2811,-4.3108,-4.3125,-4.298,-4.2709,-4.1982,-4.1339,-4.0832,-3.9614,-3.8497,0.0,0.0,0.0,0.0,0.0,0.0,0.0,0.0,0.0,0.0,0.0,0.0,0.0,0.0,0.0,0.0,0.0,0.0,0.0,0.0,0.0,0.0,0.0,0.0,0.0,-4.6245,-4.7106,-4.6654,-4.7832,-4.8581,-4.8385,-4.9019,-4.9509,-4.9692,-5.1154,-5.2098,-5.2299,-5.3168,-5.3793,-5.4111,-5.4031,-5.4,-5.4037,-5.3889,-5.3795,-5.3795,-5.268,-5.2159,-5.2082,-4.9897,-4.8898,-4.8895,-4.8895,-4.9543,-5.0636,-5.1083,-5.1651,-5.2163,-5.1497,-5.0557,-4.9474,-4.8947,-4.7986,-4.6906,-4.6389,-4.5845,-4.5397,-4.5397,-4.5079,-4.4665,-4.4665,-4.4665,-4.4665,-4.4665,-4.5027,-4.5328,-4.5096,-4.4665,-4.4173,-4.3655,-4.3155,-4.2585,-4.1809,-4.1636,-4.1481,-4.0998,-4.1723,-4.2258,-4.1723,-4.1636,-4.1392,-4.0741,-4.0558,-4.0436,-4.0263,-4.0163,-4.0096,-4.0096,-4.0527,-4.0933,-4.1187,-4.1644,-4.2033,-4.2269,-4.2066,-4.1931,-4.1931,-4.0984,-4.046,-4.046,-3.9005,-3.8007,-3.7533,0.0,0.0,0.0,0.0,0.0,0.0,0.0,0.0,0.0,0.0,0.0,0.0,0.0,0.0,0.0,0.0,0.0,0.0,0.0,0.0,0.0,0.0,0.0,-4.4994,-4.5908,-4.6527,-4.6827,-4.7567,-4.8505,-4.9633,-4.9745,-5.0055,-5.084,-5.1647,-5.2442,-5.3253,-5.3751,-5.439,-5.5282,-5.4654,-5.4371,-5.4501,-5.4035,-5.3795,-5.3757,-5.0472,-4.8898,-4.8909,-4.8895,-4.8913,-4.8909,-4.8909,-4.9837,-5.1361,-5.1398,-5.2214,-5.3404,-5.2762,-5.2125,-5.1525,-5.0982,-4.9443,-4.7431,-4.5931,-4.5397,-4.5397,-4.5397,-4.5397,-4.5397,-4.5363,-4.538,-4.5397,-4.5363,-4.5363,-4.519,-4.4501,-4.4259,-4.3862,-4.2378,-4.1999,-4.1774,-4.105,-4.0912,-4.0912,-4.0912,-4.0912,-4.0912,-4.0912,-4.0912,-4.0799,-4.0558,-4.051,0.0,-4.0146,-4.0138,-4.0096,-4.0113,-4.0113,-4.04,-4.1119,-4.117,-4.1457,-4.2151,-4.1525,-4.1119,-4.1102,-3.9715,-3.8954,-3.8954,-3.7557,-3.6795,-3.6795,0.0,0.0,0.0,0.0,0.0,0.0,0.0,0.0,0.0,0.0,0.0,0.0,0.0,0.0,0.0,0.0,0.0,0.0,0.0,0.0,0.0,-4.3457,-4.4297,-4.5293,-4.6283,-4.7166,-4.7878,-4.8709,-4.9575,-5.0473,-5.0569,-5.0666,-5.0879,-5.1642,-5.2449,-5.3253,-5.3785,-5.4447,-5.5263,-5.4654,-5.4351,-5.4493,-5.4016,-5.3795,-5.3755,-5.0469,-4.8896,-4.8909,-4.8892,-4.891,-4.8909,-4.8909,-4.9485,-5.0506,-5.1138,-5.1899,-5.2629,-5.2648,-5.2219,-5.1454,-5.0347,-4.8668,-4.6769,-4.5742,-4.5397,-4.5397,-4.5397,-4.5397,-4.5294,-4.4768,-4.4992,-4.5276,-4.4751,-4.4596,-4.457,-4.4363,-4.3483,-4.2534,-4.2102,-4.1602,-4.1153,-4.0946,-4.0912,-4.0912,-4.0912,-4.0912,-4.0912,-4.0912,-4.0912,-4.0871,-4.0799,-4.0721,0.0,-4.0534,-4.0461,-4.0362,-4.0263,-4.0238,-4.0298,-4.04,-4.0417,-4.0257,-3.9918,-3.9715,-3.9377,-3.8836,-3.843,-3.821,-3.821,-3.7263,-3.6795,0.0,0.0,0.0,0.0,0.0,0.0,0.0,0.0,0.0,0.0,0.0,0.0,0.0,0.0,0.0,0.0,0.0,0.0,0.0,0.0,0.0,0.0,-4.4044,-4.47,-4.551,-4.6155,-4.6999,-4.8256,-4.8856,-4.961,-5.0782,-5.0898,-5.0898,-5.0898,-5.1658,-5.2457,-5.3253,-5.3932,-5.458,-5.5282,-5.4924,-5.4418,-5.38,-5.313,-5.2432,-5.1709,-4.9819,-4.8894,-4.8909,-4.8909,-4.8909,-4.8909,-4.8909,-4.9559,-5.0692,-5.1193,-5.1769,0.0,0.0,0.0,0.0,0.0,-4.7602,-4.6493,-4.5673,-4.5397,-4.5345,-4.5044,-4.4941,-4.4872,-4.4432,-4.4596,-4.4854,-4.4432,-4.4311,-4.4156,-4.35,-4.2672,-4.1905,-4.1619,-4.1222,-4.0912,-4.0912,-4.0912,-4.0912,-4.0912,-4.0912,0.0,-4.0912,-4.0912,-4.0888,-4.0817,-4.0745,-4.0673,-4.0607,-4.0485,-4.0387,-4.0305,-4.0238,-4.0188,-4.0113,-4.0096,0.0,0.0,0.0,-3.8058,-3.6969,-3.6935,0.0,0.0,0.0,0.0,0.0,0.0,0.0,0.0,-3.6022,-3.6073,0.0,0.0,0.0,0.0,0.0,0.0,0.0,0.0,0.0,0.0,0.0,0.0,0.0,0.0,0.0,0.0,-4.4553,-4.4987,-4.571,-4.5884,-4.6561,-4.8198,-4.8392,-4.9068,-5.0743,-5.0898,-5.0898,-5.0898,-5.1562,-5.2322,-5.3117,0.0,0.0,0.0,0.0,-5.4424,-5.2897,-5.1909,-5.0555,-4.8896,-4.8892,-4.8909,-4.8909,-4.8909,-4.8909,-4.8909,-4.9002,-4.993,-5.1398,-5.1398,-5.1733,-5.2323,-5.2888,-5.1883,-4.9862,-4.7535,-4.6598,-4.6372,-4.5638,0.0,0.0,-4.4492,-4.4242,-4.4173,-4.4173,-4.4173,-4.4173,-4.4173,-4.4121,-4.3741,-4.2378,-4.1947,-4.1723,-4.1067,-4.0912,-4.0912,-4.0912,-4.0912,-4.0912,-4.0912,-4.0912,-4.0912,-4.0912,-4.0912,-4.0864,-4.0745,-4.0721,-4.0638,-4.0414,-4.036,-4.0296,-4.0186,0.0,0.0,-3.9977,-3.9977,-3.9639,-3.8785,-3.8058,-3.7019,-3.565,-3.56,-3.56,-3.56,-3.56,-3.56,-3.56,-3.56,-3.56,-3.56,-3.56,-3.565,0.0,0.0,0.0,0.0,0.0,0.0,0.0,0.0,0.0,0.0,0.0,0.0,0.0,0.0,0.0,-4.4344,-4.5128,-4.5633,-4.5787,-4.6406,-4.7231,-4.8275,-4.8392,-4.9068,-5.0743,-5.0898,-5.0898,-5.0898,-5.104,-5.1473,-5.2288,-5.2435,-5.3137,-5.46,-5.4386,-5.3962,-5.3366,-5.2052,-5.0553,-4.8892,0.0,0.0,-4.8909,-4.8909,-4.8909,-4.8946,-4.9596,-5.045,-5.1398,-5.1398,-5.1399,-5.1378,-5.0934,-4.9856,-4.8431,-4.7508,-4.65,-4.5604,-4.5449,-4.501,-4.4501,-4.4363,-4.3897,-4.3414,-4.3414,-4.3414,0.0,-4.3414,-4.2948,-4.2396,-4.2085,-4.1567,-4.1084,-4.0929,-4.0912,-4.0912,-4.0912,-4.0912,-4.0912,-4.0912,-4.0912,-4.0912,-4.0912,-4.0912,-4.0888,-4.0864,-4.0864,-4.0593,-3.9879,-4.0271,-4.0305,-3.9513,-3.9923,-3.9976,-3.9283,-3.9208,-3.8657,-3.732,-3.6485,-3.5904,-3.5616,-3.56,-3.56,-3.56,-3.56,-3.56,-3.56,-3.56,-3.56,-3.56,-3.56,-3.596,0.0,0.0,0.0,0.0,0.0,0.0,0.0,0.0,0.0,0.0,0.0,-4.0511,-4.2027,0.0,-4.4109,-4.5051,-4.5529,-4.5807,-4.5807,-4.6174,-4.6922,-4.8237,-4.8798,-4.9533,-5.0782,-5.0898,-5.089,-5.0893,-5.0888,-5.1233,-5.201,-5.202,-5.2683,-5.42,-5.4089,-5.3579,-5.2711,-5.2134,-5.0848,-4.8909,-4.8909,-4.8909,-4.8909,-4.8909,-4.9132,-4.9522,-4.993,-5.0599,-5.1323,-5.0488,-5.0045,-4.9806,-4.8786,-4.8298,-4.8025,-4.7093,-4.6168,-4.5397,-4.5397,-4.4923,-4.4242,-4.388,-4.3224,-4.2603,-4.2603,-4.2603,-4.2603,-4.2603,-4.2327,-4.193,-4.155,-4.1188,-4.0912,-4.0912,-4.0912,-4.0912,-4.0912,-4.0912,-4.0791,-4.0394,-4.0284,-4.0164,-3.9825,-3.9756,-3.9876,-4.0233,-3.9997,-3.9709,-3.957,-3.95,-3.9382,-3.9224,-3.9127,-3.8926,-3.8481,-3.8108,-3.7591,-3.6846,-3.6045,-3.56,-3.56,-3.56,-3.56,-3.56,-3.56,-3.56,-3.56,-3.56,-3.56,-3.56,-3.56,-3.5802,0.0,0.0,0.0,0.0,0.0,0.0,0.0,-3.8652,-3.878,-3.8874,-4.0223,-4.1726,-4.2829,-4.3755,-4.4645,-4.5631,-4.5786,-4.5793,-4.5793,-4.5955,-4.6631,-4.8217,-4.903,-4.9842,-5.0801,-5.089,-5.0893,-5.0899,-5.0883,-5.111,-5.1722,-5.1751,-5.2315,-5.3546,-5.3604,-5.3008,-5.1757,-5.198,-5.1021,-4.8909,-4.8909,-4.8909,-4.8909,-4.9057,-4.941,-4.9875,-4.9875,-5.0358,-5.1026,-4.9522,-4.8785,-4.8532,-4.7478,-4.7345,-4.7617,-4.6418,-4.5715,-4.5363,-4.507,-4.4578,-4.3966,-4.3207,-4.243,-4.1826,-4.1964,-4.1888,-4.1826,-4.1964,-4.1912,-4.1654,-4.105,-4.0912,-4.0912,-4.0912,-4.0912,-4.0912,-4.0912,-4.0791,-4.0498,-3.9819,-3.9577,-3.9301,-3.8698,-3.8474,-3.8629,-3.937,-3.8974,-3.8705,-3.9032,-3.8556,-3.8331,-3.8707,-3.8248,-3.7838,-3.7702,-3.6992,-3.6575,-3.6575,-3.596,-3.56,-3.56,-3.56,-3.56,-3.56,-3.56,-3.56,-3.56,-3.56,-3.56,-3.56,-3.56,-3.5667,-3.4575,-3.4816,-3.5438,-3.6646,-3.7609,-3.8524,0.0,-3.9719,-3.9837,-4.0194,-4.0465,-4.1155,-4.2859,-4.3282,-4.388,-4.5453,-4.5754,-4.5795,-4.5795,-4.6482,-4.7308,-4.8275,-4.8488,-4.9165,-5.0743,-5.0905,-5.0908,-5.0899,-5.0784,-5.0768,-5.0836,-5.0856,-5.1241,-5.2123,-5.2132,-5.1829,-5.1192,-5.1286,-5.0508,-4.8909,-4.8909,-4.8909,-4.8927,-4.9652,-4.9633,-4.9039,-4.9039,-4.9503,-5.019,-4.928,-4.8839,-4.875,-4.8495,-4.7466,-4.6064,-4.5394,-4.5244,-4.5207,-4.3914,-4.3396,-4.3189,-4.2396,-4.1636,-4.1153,-4.1809,-4.155,-4.117,-4.1826,-4.1533,-4.1015,-4.0929,-4.0912,-4.0912,-4.0912,-4.0912,-4.0912,-4.0912,-4.0359,-3.9802,-3.9715,-3.9163,-3.8703,-3.8594,-3.8065,-3.7875,-3.8594,-3.8646,-3.8348,-3.7629,-3.7923,-3.7945,-3.7228,-3.7604,-3.7635,-3.6981,-3.6197,-3.5718,-3.5718,-3.565,-3.56,-3.56,-3.56,-3.56,-3.56,-3.56,-3.56,-3.56,-3.56,-3.56,-3.56,-3.56,-3.5994,-3.4823,-3.5619,-3.652,-3.6998,-3.7762,-3.8641,-3.9535,-3.9884,-4.0051,-4.0223,-4.1234,-4.2297,-4.306,-4.4005,-4.4874,-4.5592,-4.5723,-4.5731,-4.5731,-4.6055,-4.6604,-4.7473,-4.8033,-4.9026,-5.0731,-5.0888,-5.0874,-5.0784,-5.072,-5.0711,-5.0702,-5.0702,-5.1068,-5.1865,-5.1749,-5.1481,-5.1095,-5.0935,-5.0206,-4.8909,-4.8909,-4.8909,-4.8909,-4.9262,-4.9466,-4.9577,-4.9113,-4.8834,-4.8686,-4.8333,-4.7839,-4.7238,-4.6912,-4.6372,-4.5765,-4.5498,-4.4874,-4.4027,-4.3414,-4.2896,-4.2447,-4.212,-4.1516,-4.0963,-4.1274,-4.1153,-4.0963,-4.1274,-4.1153,-4.0912,-4.0912,-4.0912,-4.0912,-4.0912,-4.0912,-4.0774,-4.0284,-3.9939,-3.9439,-3.8599,-3.8163,-3.7801,-3.7335,-3.7008,-3.6904,-3.7215,-3.7249,-3.7258,-3.7303,-3.7151,-3.6857,-3.631,-3.6429,-3.6451,-3.6129,-3.5785,-3.56,-3.56,-3.56,-3.56,-3.56,-3.56,-3.56,-3.56,-3.56,-3.56,-3.56,-3.56,-3.56,-3.56,-3.56,-3.5769,-3.5161,-3.5907,-3.6615,-3.6842,-3.7408,-3.8117,-3.8929,-3.9478,-3.9833,-3.9906,-4.147,-4.2913,-4.3127,-4.4353,-4.5414,-4.5637,-4.5684,-4.5711,-4.5711,-4.57,-4.6113,-4.7232,-4.7926,-4.8977,-5.0683,-5.0846,-5.0793,-5.0701,-5.0711,-5.0702,-5.0693,-5.0712,-5.0971,-5.1548,-5.1382,-5.1102,-5.074,-5.0503,-4.9864,-4.8909,-4.8909,-4.8779,-4.8556,-4.8333,-4.8797,-4.9707,-4.8686,-4.8166,-4.8017,-4.7794,-4.7395,-4.687,-4.625,-4.5863,-4.5577,-4.5211,-4.4272,-4.3138,-4.2706,-4.2327,-4.1981,-4.1774,-4.1343,-4.0912,-4.0912,-4.0912,-4.0912,-4.0912,-4.0912,-4.0912,-4.0912,-4.0912,-4.0912,-4.0912,-4.0739,-4.0411,-3.9819,-3.937,-3.8767,-3.7719,-3.7323,-3.6973,-3.6404,-3.6301,-3.6301,-3.6301,-3.6301,-3.6465,-3.6964,-3.6509,-3.6036,-3.5773,-3.5667,-3.56,-3.56,-3.56,-3.56,-3.56,-3.56,-3.56,-3.56,-3.56,-3.5498,-3.5295,-3.5295,-3.5295,-3.5295,-3.5295,-3.5397,-3.56,-3.56,-3.56,-3.5485,-3.5232,-3.5154,-3.5946,-3.6255,-3.6629,-3.7636,-3.852,-3.9191,-3.9376,-4.0754,-4.2174,-4.2965,-4.3843,-4.4694,-4.5488,-4.5657,-4.5701,-4.5701,-4.5703,-4.6344,-4.8062,-4.8274,-4.8932,-5.0556,-5.0701,-5.0701,-5.0701,-5.0693,-5.0693,-5.0712,-5.0712,-5.0712,-5.075,-5.0721,-5.0427,-4.9855,-4.9841,-4.951,-4.8909,-4.8909,-4.85,-4.7701,-4.6921,-4.7441,-4.8853,-4.7256,-4.7441,-4.8797,-4.8017,-4.8096,-4.8639,-4.7699,-4.6562,-4.5245,-4.3948,-4.3356,-4.2982,-4.1498,-4.1429,-4.1871,-4.117,-4.0929,-4.0912,-4.0912,-4.0912,-4.0912,-4.0912,-4.0912,-4.0912,-4.0912,-4.0912,-4.0912,-4.0912,-4.0284,-3.9715,-3.9698,-3.8577,-3.7564,-3.7512,-3.687,-3.6335,-3.6301,-3.6301,-3.6301,-3.6301,-3.6301,-3.6318,-3.6335,-3.6127,-3.591,-3.5644,-3.56,-3.56,-3.56,-3.56,-3.56,-3.56,-3.56,-3.56,-3.56,-3.56,-3.5245,-3.4539,-3.4523,-3.4523,-3.4523,-3.4523,-3.4912,-3.56,-3.56,-3.56,-3.4862,-3.4938,-3.5154,-3.5978,-3.6226,-3.6554,-3.7511,-3.8404,-3.9067,-3.9184,-4.0635,-4.2156,-4.2945,-4.3783,-4.4603,-4.546,-4.5622,-4.564,-4.564,-4.6121,-4.6707,-4.7304,-4.8352,-4.9248,-4.9788,-5.0355,0.0,-5.0693,-5.0702,-5.0712,-5.0712,-5.0712,-5.0712,-5.0712,-5.0712,-5.0418,-4.9817,-4.9803,-4.9506,-4.889,-4.837,-4.7961,-4.7646,-4.6308,-4.6865,-4.8816,-4.72,-4.7107,-4.8129,-4.8389,-4.7966,-4.712,-4.6738,-4.6104,-4.5212,-4.3636,-4.2985,-4.2684,-4.1358,-4.1067,-4.124,-4.0981,-4.0912,-4.0912,-4.0912,-4.0912,-4.0912,-4.0912,-4.0912,-4.0912,-4.0912,-4.0515,-4.0095,-4.0095,-3.9508,-3.8836,-3.8358,-3.7858,-3.734,-3.6801,-3.649,-3.6301,-3.6301,-3.6301,-3.6301,-3.6301,-3.6255,-3.6229,-3.6229,-3.6014,-3.5839,-3.5734,-3.5226,-3.4878,-3.4878,-3.4421,-3.4353,-3.4844,-3.4878,-3.5098,-3.5583,-3.56,-3.5481,-3.5228,-3.5233,-3.4996,-3.4489,-3.4489,-3.4624,-3.4878,-3.4878,-3.5131,-3.4678,-3.4926,-3.5263,-3.5766,-3.5948,-3.6285,-3.7146,-3.8014,-3.8736,-3.9095,-4.0608,-4.2117,-4.2959,-4.3758,-4.4586,-4.546,-4.5594,-4.571,-4.6009,-4.6547,-4.7115,-4.7721,-4.874,-4.951,-4.9817,-5.0365,-5.0702,-5.0693,-5.0712,-5.0712,-5.0712,-5.0712,-5.0712,-5.0712,-5.0712,-5.0418,-4.9817,-4.9514,-4.8922,-4.8036,-4.7237,-4.6995,-4.7237,-4.59,-4.6457,-4.8407,-4.7386,-4.7218,-4.7738,-4.8259,-4.7649,-4.6357,-4.6272,-4.5717,-4.4852,-4.3567,-4.2772,-4.2161,-4.1389,-4.1018,-4.0912,-4.0912,-4.0912,-4.0912,-4.0912,-4.0912,-4.0912,-4.0912,-4.0912,-4.0843,-4.0549,-4.0077,-3.9629,-3.937,-3.8732,-3.8082,-3.7616,-3.7288,-3.6904,-3.6404,-3.6301,-3.6301,-3.6301,-3.6301,-3.6301,-3.6301,-3.601,-3.5856,-3.6088,-3.5971,-3.5822,-3.5751,-3.4989,-3.4607,-3.4878,-3.4218,-3.4117,-3.4844,-3.4895,-3.5115,-3.5583,-3.56,-3.5481,-3.5216,-3.5216,-3.4979,-3.4489,-3.4235,-3.4387,-3.4895,-3.4624,-3.4895,-3.4898,-3.5117,-3.5357,-3.5304,-3.5442,-3.5779,-3.654,-3.7373,-3.8257,-3.913,-4.0604,-4.2008,-4.2931,-4.3758,-4.4605,-4.5518,-4.571,-4.6009,-4.6855,-4.7,-4.7625,-4.9202,-4.9433,-4.9779,-5.0616,-5.0712,-5.0673,-5.0635,0.0,-5.0712,-5.0712,-5.0654,-5.0635,-5.0635,-5.0596,-5.0303,-4.9741,-4.8956,-4.7853,-4.6494,-4.5732,-4.5769,-4.6531,-4.5732,-4.6234,-4.7757,-4.7664,-4.7664,-4.7701,-4.7664,-4.7163,-4.6438,-4.6283,-4.5456,-4.4272,-4.368,-4.2697,-4.1591,-4.1512,-4.1237,-4.0912,-4.0912,-4.0912,-4.0912,-4.0912,-4.0912,-4.0912,-4.0912,-4.0912,-4.0722,-3.9905,-3.9664,-3.9457,-3.8738,-3.7996,-3.7443,-3.7443,-3.6835,-3.6301,-3.6301,-3.6301,-3.6301,-3.6301,-3.6301,-3.6284,-3.6249,-3.5545,-3.5252,-3.5916,-3.5929,-3.5803,-3.5627,-3.4878,-3.4692,-3.5481,-3.4827,-3.4726,-3.5481,-3.5498,-3.5515,-3.56,-3.5532,-3.5182,-3.4506,-3.4489,-3.4472,-3.4438,-3.3778,-3.4163,-3.5515,-3.4827,-3.4895,-3.4723,-3.4841,-3.5016,-3.5242,-3.5342,-3.5612,-3.6493,-3.7373,-3.8257,-3.913,-4.0131,-4.1296,-4.2816,-4.3758,-4.4797,-4.6317,-4.7067,-4.7548,-4.7759,-4.8355,-4.8913,-4.9356,-4.9971,-5.0462,-5.0673,-5.0712,-5.0442,0.0,-5.0327,-5.0712,-5.0712,-5.0067,-4.9721,-4.9721,-4.9106,-4.878,-4.8824,-4.8232,-4.7436,-4.6494,-4.629,-4.6624,-4.7367,-4.655,-4.707,-4.8537,-4.733,-4.7144,-4.7646,-4.7051,-4.6327,-4.5602,-4.5467,-4.5186,-4.4686,-4.356,-4.3041,-4.2775,-4.182,-4.1237,-4.0912,-4.0912,-4.0912,-4.0912,-4.0912,-4.0912,-4.0912,-4.0912,-4.0912,-4.0722,-3.9905,-3.9284,-3.8681,-3.7961,-3.718,-3.6611,-3.6611,-3.6439,-3.6301,-3.6301,-3.6301,-3.6301,-3.6301,-3.6301,-3.6111,-3.5559,-3.5253,-3.5324,-3.6058,-3.5019,-3.4597,-3.5654,-3.4028,-3.3393,-3.4675,-3.3613,-3.341,-3.4692,-3.4269,-3.4433,-3.5549,-3.4535,-3.4134,-3.4489,-3.4489,-3.4218,-3.3677,-3.4032,-3.4404,-3.4776,-3.459,-3.4895,-3.4803,-3.498,-3.5195,-3.535,-3.5681,-3.6183,-3.7077,-3.795,-3.8815,-3.965,-4.0189,-4.092,-4.2277,-4.3508,-4.4739,-4.6105,-4.7336,-4.824,-4.8625,-4.9086,-4.9529,-4.9933,-5.0404,-5.0712,-5.0712,-5.0712,-5.0346,-4.9471,-4.9856,-4.9952,-4.9586,-4.9106,-4.8836,-4.8836,-4.8355,-4.8071,-4.7971,-4.7801,-4.7293,-4.6494,-4.6494,-4.6921,-4.7683,-4.7237,-4.7516,-4.8314,0.0,-4.6884,-4.6605,-4.616,-4.5472,-4.4729,-4.4663,-4.4225,-4.3586,-4.2813,-4.2131,-4.1487,-4.0742,-4.0244,-4.0014,-4.0687,-4.067,-4.0446,-4.0791,-4.0912,-4.0912,-4.0912,-4.0653,-4.0204,-3.9405,-3.8663,-3.7905,-3.7167,-3.6628,-3.6301,-3.6301,-3.6301,-3.6301,-3.6301,-3.6301,-3.6197,-3.587,-3.5776,-3.5514,-3.474,-3.426,-3.4285,-3.5059,-3.4243,-3.3892,-3.466,-3.3279,-3.2903,-3.437,-3.3156,-3.2936,-3.4426,-3.3812,-3.3778,-3.4585,-3.415,-3.3931,-3.4015,-3.4658,-3.4624,-3.388,-3.4303,-3.4675,-3.4979,-3.4641,-3.4895,-3.4973,-3.5192,-3.5482,-3.5585,-3.6201,-3.7002,-3.795,-3.8757,-3.9534,-4.0323,-4.0496,-4.0804,-4.1797,-4.3258,-4.4662,-4.5748,-4.724,-4.8586,-4.9452,-4.9567,-4.9856,-5.0616,-5.0712,-5.0712,-5.0712,-5.0712,-5.0346,-4.9471,-4.9394,-4.9029,-4.8144,-4.8009,-4.7894,-4.7778,-4.7847,-4.7637,-4.7131,-4.7454,-4.7287,-4.6661,-4.6661,-4.707,-4.7868,-4.7757,-4.7701,-4.7683,-4.746,-4.6587,-4.5287,-4.5175,-4.4674,-4.4005,-4.4005,-4.3285,-4.2239,-4.2118,-4.0994,-3.9544,-3.954,-3.906,-3.8703,-4.0135,-4.0135,-3.9681,-4.0394,-4.0601,-4.0618,-4.0722,-4.0187,-3.9405,-3.8767,-3.8065,-3.7305,-3.649,-3.6301,-3.6301,-3.6301,-3.6301,-3.6266,-3.6163,-3.6146,-3.5921,-3.518,-3.5015,-3.4696,-3.3885,-3.3117,-3.2852,-3.3433,-3.3383,-3.3328,-3.341,-3.275,-3.2903,-3.437,-3.3241,-3.3038,-3.4404,-3.3711,-3.3305,-3.3406,-3.3829,-3.3812,-3.3271,-3.4602,-3.4962,-3.4201,-3.4489,-3.4928,-3.543,-3.4793,-3.4844,-3.4824,-3.4711,-3.5012,-3.6003,-3.6364,-3.6933,-3.8677,-3.9188,-3.9534,-4.0323,-4.0496,-4.0997,-4.2585,-4.3662,-4.5047,-4.7298,-4.8509,-4.9471,-5.0346,-5.0481,-5.0539,-5.0673,-5.0712,-5.0712,-5.0712,-5.0712,-5.0346,0.0,-4.9394,-4.9029,-4.8144,-4.7471,-4.6778,-4.6056,-4.6473,-4.6534,-4.6234,-4.6765,-4.7196,-4.7497,-4.7497,-4.7906,-4.8667,-4.7999,-4.7701,-4.7627,-4.629,0.0,-4.5231,-4.4525,-4.4135,-4.4005,-4.4005,-4.3818,-4.3527,-4.3115,-4.2086,-4.0915,-4.1163,-3.9687,-3.784,-3.872,-3.8888,-3.8819,-3.8957,-3.8991,-3.9112,-3.9733,-3.9353,-3.875,-3.8629,-3.8065,-3.7305,-3.649,-3.6301,-3.6301,-3.6301,-3.6301,-3.6111,-3.5508,-3.5387,-3.5145,-3.4424,-3.4283,-3.4005,-3.3175,-3.2891,-3.2554,-3.1961,-3.1779,-3.2179,-3.3434,-3.2808,-3.2903,-3.437,-3.3711,-3.3575,-3.4438,-3.3241,-3.2747,-3.3372,-3.2357,-3.2005,-3.2479,-3.3339,-3.3423,-3.2699,-3.4523,-3.5165,-3.4692,-3.4556,-3.4556,-3.5938,-3.5937,-3.6151,-3.6711,-3.7205,-3.7813,-3.885,-3.9438,-3.9904,-4.0404,-4.0496,-4.0766,-4.1593,-4.3143,-4.4701,-4.5913,-4.7586,-4.9029,-4.9894,-5.001,-5.0183,-5.0654,-5.0712,-5.0712,-5.0712,-5.0712,-5.0144,-4.8817,-4.9144,-4.8836,-4.7548,-4.6682,-4.6028,-4.5614,-4.6126,-4.6489,-4.6676,-4.7255,-4.7785,-4.8314,-4.8314,-4.8314,-4.8259,-4.7887,-4.7237,-4.6401,-4.5639,0.0,-4.4581,-4.4172,-4.3745,-4.3336,-4.2909,-4.247,-4.1983,-4.1238,-4.042,-3.9698,-3.98,-3.8673,-3.7262,-3.7589,-3.7858,-3.8116,-3.8474,-3.8594,-3.8663,-3.9026,-3.8594,-3.8047,-3.8047,-3.7439,-3.6766,-3.6387,-3.6301,-3.6301,-3.6301,-3.6301,-3.6077,-3.5335,-3.5197,-3.4818,-3.3662,-3.3451,-3.3154,-3.2326,-3.2109,-3.1873,-3.1457,-3.131,-3.1523,-3.2269,-3.1975,-3.2175,-3.3275,-3.2679,-3.256,-3.3326,-3.2327,-3.1884,-3.2239,-3.1935,-3.1938,-3.2293,-3.3389,-3.3609,-3.2882,-3.432,-3.4658,-3.3931,-3.3931,-3.3931,-3.7042,-3.7058,-3.7222,-3.7465,-3.8034,-3.8639,-3.9014,-3.9671,-4.0251,-4.0397,-4.0473,-4.0554,-4.0746,-4.2566,-4.4162,-4.4509,-4.6567,-4.8394,-4.9279,-4.9548,-4.9933,-5.0616,-5.0712,-5.0712,-5.0712,-5.0712,0.0,-4.8759,-4.8952,-4.8471,-4.6981,-4.6067,-4.5594,-4.5594,-4.6013,-4.6584,-4.7301,-4.7712,-4.8166,-4.8649,-4.8649,-4.8221,-4.7441,-4.7256,-4.6494,-4.5287,-4.5101,0.0,0.0,-4.3745,-4.3262,-4.2482,-4.185,-4.12,-4.0554,-3.9741,-3.9081,-3.8567,-3.862,-3.7936,-3.7034,-3.713,-3.7213,-3.7357,-3.7922,-3.8094,-3.8129,-3.8301,-3.7823,-3.7288,-3.7461,-3.6887,-3.6301,-3.6301,-3.6301,-3.6301,-3.6301,-3.6301,-3.6042,-3.5128,-3.4956,-3.4473,-3.2938,-3.2584,-3.2338,-3.1701,-3.1447,-3.1332,-3.1295,-3.1235,-3.123,-3.119,-3.1326,-3.1684,-3.2242,-3.1769,-3.1684,-3.2259,-3.1616,-3.119,-3.119,-3.1921,-3.2293,-3.2293,-3.3766,-3.4049,-3.3169,-3.4049,-3.4032,-3.3169,-3.3169,-3.3169,-3.7115,-3.6738,-3.6994,-3.795,-3.8273,-3.8568,-3.9502,-3.9975,-4.0214,-4.0223,-4.0364,-4.0746,-4.1527,-4.2527,-4.3701,-4.5229,-4.6951,-4.8394,-4.9279,-5.0067,-5.0616,-5.0693,-5.0712,-5.0712,-5.0712,-5.0712,-5.0635,-5.0481,-4.9067,-4.7836,-4.6942,-4.6067,-4.5594,-4.5594,-4.5654,-4.6202,-4.7301,-4.7337,-4.7531,-4.7813,-4.7813,-4.7386,-4.6587,-4.5844,-4.5435,-4.5249,-4.4451,-4.3652,0.0,-4.2909,-4.2445,-4.1702,-4.1627,-4.1553,-4.1479,-4.1319,-4.047,-3.9477,-4.0141,-3.9085,-3.752,-3.788,-3.7283,-3.6422,-3.649,-3.6508,-3.6663,-3.7409,-3.7025,-3.6577,-3.7323,-3.6887,-3.6301,-3.6301,-3.6301,-3.6301,-3.6301,-3.6301,-3.587,-3.4476,-3.4217,-3.3716,-3.2162,-3.1793,-3.1684,-3.1615,-3.1521,-3.1443,-3.1315,-3.1295,-3.1274,-3.121,-3.1802,-3.2226,-3.2293,-3.2242,-3.2226,-3.2293,-3.1616,-3.119,-3.119,-3.1921,-3.2293,-3.2293,-3.3766,-3.3816,-3.2412,-3.3795,-3.3783,-3.2395,-3.2395,-3.2395,-3.9677,-3.9287,-3.9161,-4.0052,-3.952,-3.9095,-4.0314,-4.0271,-4.0033,-4.033,-4.0449,-4.0766,-4.1643,-4.2508,-4.347,-4.4624,-4.5817,-4.7067,-4.8432,-4.8913,-4.951,-5.0577,-5.0712,-5.0712,-5.0712,0.0,-5.0481,-4.9952,-4.7855,-4.6682,-4.6885,-4.6067,-4.5594,-4.5594,-4.6105,-4.6682,-4.7301,-4.7295,-4.7424,-4.7683,-4.7218,-4.655,-4.5769,-4.5454,-4.5008,-4.4469,-4.3633,-4.3095,0.0,-4.2277,-4.159,-4.0866,-4.0866,-4.055,-4.0071,-3.996,-3.9604,-3.9129,-3.912,-3.8383,-3.7485,-3.7406,-3.6899,-3.6301,-3.6301,-3.6301,-3.637,-3.668,-3.6542,-3.637,-3.668,-3.6542,-3.6301,-3.6301,-3.6301,-3.6301,-3.6301,-3.5956,-3.5318,-3.4303,-3.3716,-3.3041,-3.1972,-3.1763,-3.169,-3.1617,-3.1557,-3.1443,-3.1315,-3.1254,-3.1232,-3.121,-3.1464,-3.165,-3.165,-3.165,-3.165,-3.165,-3.136,-3.119,-3.119,-3.1481,-3.1853,-3.2293,-3.3305,-3.3322,-3.2293,-3.3339,-3.3068,-3.165,-3.165,-3.165,-4.1349,-4.1108,-4.0793,-4.1367,-4.0455,-3.9672,-4.061,-4.0252,-3.9808,-4.0212,-4.0556,-4.099,-4.1665,-4.272,-4.3643,0.0,-4.5451,-4.6663,-4.7605,-4.8163,-4.8836,-4.9817,-5.0164,-5.0327,-5.0327,-5.0067,-4.9586,-4.8721,-4.6509,-4.547,-4.6105,-4.5316,-4.4979,-4.521,-4.5753,-4.6218,-4.6562,-4.6473,-4.6487,-4.6605,-4.629,-4.5584,-4.4562,-4.4804,-4.4451,-4.3615,-4.3039,0.0,0.0,-4.1479,-4.0754,-4.0011,-4.0011,-3.964,-3.9087,-3.8964,-3.8925,-3.8833,-3.8428,-3.8118,-3.7791,-3.7395,-3.7075,-3.6781,-3.6536,-3.6388,-3.6301,-3.6301,-3.6301,-3.6301,-3.6301,-3.6301,-3.6301,-3.6301,-3.6301,-3.6301,-3.6301,-3.5714,-3.4973,-3.4251,-3.3455,-3.2662,-3.1921,-3.1781,-3.169,-3.1596,-3.1483,-3.1387,-3.1293,-3.1232,-3.119,-3.119,-3.119,-3.119,-3.119,-3.119,-3.119,-3.119,-3.119,-3.119,-3.119,-3.1413,-3.1769,-3.2293,-3.3017,-3.3034,-3.2293,-3.2814,-3.2425,-3.119,-3.119,-3.1326,-4.1295,-4.1314,-4.1295,-4.1314,-4.0747,-4.0196,-4.0211,-3.9837,-3.9568,-3.9765,-4.0651,-4.1465,-4.1745,-4.3162,-4.4297,-4.4297,-4.6413,-4.7798,-4.7019,-4.8336,-4.9067,-4.824,-4.8894,-4.9413,-4.9413,-4.8625,-4.7798,-4.6981,-4.5297,0.0,-4.4335,-4.3566,-4.3489,-4.4297,-4.4126,-4.4285,-4.4814,-4.4557,-4.4298,-4.4061,-4.4896,-4.4432,-4.2853,-4.3652,-4.3578,-4.2816,-4.2797,0.0,0.0,-4.042,-3.99,-3.9101,-3.9101,-3.9101,-3.9087,-3.9021,-3.8968,-3.8896,-3.8822,-3.875,-3.8627,-3.8219,-3.8085,-3.793,-3.7151,-3.6618,-3.6301,-3.6301,-3.6301,-3.6301,-3.6301,-3.6301,-3.6301,-3.6301,-3.6301,-3.6301,-3.6301,-3.5714,-3.4973,-3.4251,-3.3455,-3.2662,-3.1921,-3.169,-3.1578,-3.1517,-3.1387,-3.1274,-3.121,-3.119,-3.119,-3.119,-3.119,-3.119,-3.119,-3.119,-3.119,-3.119,-3.119,-3.119,-3.119,-3.1904,-3.2293,-3.2293,-3.3017,-3.3034,-3.2293,-3.231,-3.1938,-3.119,-3.119,-3.159,-4.2698,-4.2569,-4.2126,-4.2179,-4.1142,-4.0236,-4.0589,-4.0138,-3.9943,-4.0959,-4.144,-4.2057,-4.3288,-4.3932,-4.4682,-4.5874,-4.6759,0.0,-4.7682,-4.8182,-4.8413,-4.8125,-4.8875,-4.9163,0.0,0.0,-4.6682,-4.524,-4.4105,-4.347,-4.347,-4.3758,-4.3778,-4.3489,-4.3819,-4.4266,-4.4795,-4.457,-4.4312,-4.4005,-4.3726,-4.302,-4.198,-4.224,-4.2222,-4.1943,-4.1386,0.0,0.0,-3.9751,-3.9342,-3.9157,-3.9751,-3.9621,-3.9217,-4.0314,-3.993,-3.8922,-3.9127,-3.882,-3.8219,-3.7826,-3.7685,-3.765,-3.7395,-3.7036,-3.6658,-3.6367,-3.6301,-3.6301,-3.6301,-3.6301,-3.6301,-3.6301,-3.5904,-3.5542,-3.5542,-3.4542,-3.3559,-3.3317,-3.2662,-3.204,-3.1724,-3.1617,-3.1542,-3.1389,-3.1332,-3.1274,-3.121,-3.119,-3.119,-3.119,-3.119,-3.119,-3.119,-3.119,-3.119,-3.119,-3.119,-3.119,-3.119,-3.141,-3.1565,-3.1565,-3.2256,-3.2293,-3.1565,-3.2056,-3.1921,-3.119,-3.119,-3.1605,-4.3317,-4.3299,-4.2894,-4.2929,-4.1949,-4.1058,-4.139,-4.0857,-4.0615,-4.1692,-4.2183,-4.2824,-4.4072,-4.4577,-4.5143,-4.624,-4.6701,-4.6971,-4.7124,-4.7451,-4.7759,-4.8067,-4.8317,0.0,0.0,-4.6605,-4.522,-4.3489,-4.2585,-4.2258,-4.2585,-4.3085,-4.3225,-4.2954,-4.352,-4.381,-4.37,-4.352,-4.315,-4.263,-4.2445,-4.1924,-4.1144,-4.146,-4.1423,-4.1107,0.0,0.0,0.0,-3.9677,-3.9584,-3.9658,-4.0513,-4.0327,-3.9714,-4.0667,-4.0096,-3.8922,-3.9122,-3.8816,-3.8303,-3.8016,-3.7861,-3.7739,-3.7739,-3.745,-3.7055,-3.6638,-3.6638,-3.6609,-3.6039,-3.6079,-3.617,-3.5607,-3.5215,-3.4968,-3.4968,-3.3979,-3.3094,-3.3094,-3.2486,-3.1911,-3.1635,-3.1598,-3.1542,-3.1334,-3.1295,-3.1274,-3.121,-3.119,-3.119,-3.119,-3.119,-3.119,-3.119,-3.119,-3.119,-3.119,-3.119,-3.119,-3.119,-3.119,-3.119,-3.119,-3.1667,-3.1667,-3.119,-3.1667,-3.165,-3.119,-3.119,-3.1436,0.0,-4.3515,-4.3496,-4.3441,-4.2887,-4.2368,-4.2345,-4.1833,0.0,-4.2096,-4.2924,-4.3711,-4.4278,-4.5059,-4.5605,-4.5691,-4.6374,-4.6624,-4.5797,-4.6385,-4.7192,-4.8009,-4.7451,-4.6942,-4.6817,-4.5336,-4.3701,-4.2019,-4.1143,-4.1027,-4.1846,-4.1934,-4.2197,-4.2735,-4.335,-4.3133,-4.1991,-4.1716,-4.1219,-4.049,-4.1181,-4.1089,-4.0327,-4.1144,-4.1107,0.0,0.0,0.0,0.0,-4.0141,-4.0438,-4.0476,-4.1293,-4.107,-4.0308,-4.0296,-3.9708,-3.8896,-3.8892,-3.8802,-3.8707,-3.8707,-3.8451,-3.8135,-3.8135,-3.7844,-3.7432,-3.7055,-3.7209,-3.7162,-3.5655,-3.5795,-3.5935,-3.4505,-3.4375,-3.4565,-3.4565,-3.3933,-3.3354,-3.3354,-3.2809,-3.2197,-3.1748,-3.1654,-3.1543,-3.1372,-3.1315,-3.1274,-3.121,-3.119,-3.119,-3.119,-3.119,-3.119,-3.119,-3.119,-3.119,-3.119,-3.119,-3.119,-3.119,-3.119,-3.119,-3.119,-3.119,-3.119,-3.119,-3.119,-3.119,-3.119,-3.119,-3.119,-4.346,0.0,-4.3349,-4.2745,-4.245,-4.2237,0.0,-4.1815,-4.2119,-4.3125,-4.3702,-4.4278,-4.5073,-4.5398,-4.5762,-4.6481,-4.6778,-4.6818,-4.655,-4.6695,-4.7136,-4.8,-4.7932,-4.7317,-4.6028,-4.5537,-4.4605,-4.2912,-4.2604,-4.2585,-4.2777,-4.3186,-4.3384,-4.3308,-4.3888,-4.3794,-4.2892,-4.2015,-4.1497,-4.1311,-4.0899,-4.0215,-3.9435,-4.029,-4.0583,0.0,0.0,0.0,-4.1033,-4.1219,-4.0958,-4.0476,-4.1293,-4.0698,-3.9565,-4.0814,-4.0248,-3.9003,-3.9597,-3.9307,-3.8707,-3.8707,-3.8627,-3.8564,-3.8564,-3.8068,-3.7487,-3.7395,-3.7432,-3.7272,-3.6307,-3.6167,-3.6061,-3.5102,-3.4482,-3.4142,-3.4142,-3.3503,-3.295,-3.295,-3.2808,-3.2635,-3.247,-3.2144,-3.186,-3.1715,-3.143,-3.123,-3.121,-3.119,-3.119,-3.119,-3.119,-3.119,-3.119,-3.119,-3.119,-3.119,-3.119,-3.119,-3.119,-3.119,-3.119,-3.119,-3.119,-3.119,-3.119,-3.119,-3.119,-3.119,-3.119,-3.119,-4.3515,-4.3515,-4.3387,-4.2947,-4.2837,-4.2776,-4.2527,-4.2705,-4.3132,-4.3876,-4.4296,-4.4715,-4.5333,-4.5448,-4.5639,-4.6165,-4.6224,-4.6215,-4.6205,-4.6224,-4.6569,-4.7395,-4.7183,-4.6577,0.0,-4.5212,-4.447,-4.3201,-4.3104,-4.3197,-4.3454,-4.3742,-4.3904,-4.3907,-4.3877,-4.3408,-4.2455,-4.1901,-4.12,-4.0438,-4.0011,-3.9547,-3.912,-3.9584,-3.9788,0.0,0.0,0.0,-4.0476,-4.0884,-4.0791,-4.0476,-4.1293,-4.081,-3.9807,-4.0655,-4.0085,-3.8966,-3.9361,-3.9145,-3.8707,-3.8707,-3.8707,-3.8707,-3.8707,-3.8145,-3.7529,-3.7718,-3.7643,-3.7243,-3.6094,-3.5747,-3.5409,-3.4325,-3.3856,-3.3681,-3.3681,-3.3337,-3.3032,-3.3032,-3.3032,-3.2954,-3.2685,-3.2437,-3.2162,-3.1806,-3.1564,-3.137,-3.121,-3.119,-3.119,-3.119,-3.119,-3.119,-3.119,-3.119,-3.119,-3.119,-3.119,-3.119,-3.119,-3.119,-3.119,-3.119,-3.119,-3.119,-3.119,-3.119,-3.119,-3.119,-3.119,-3.119,-4.3515,-4.3589,-4.3662,-4.3533,-4.3515,-4.3515,-4.3515,-4.3779,-4.4121,-4.436,-4.4688,-4.5038,-4.5348,-4.5495,-4.5602,-4.5668,-4.564,-4.5602,-4.5668,-4.5724,-4.6002,-4.6695,-4.6175,0.0,-4.5495,-4.4878,-4.4212,-4.3511,-4.3427,-4.3588,-4.4064,-4.3895,-4.39,-4.4204,-4.3398,-4.2455,-4.1438,-4.1423,-4.0698,-3.9305,-3.9157,-3.9101,-3.9101,-3.9231,-3.9305,-3.9305,0.0,0.0,-3.9547,-4.0271,-4.0494,-4.0471,-4.1144,-4.0921,-4.0197,-4.0055,-3.9556,-3.8896,-3.8807,-3.875,-3.8707,-3.8707,-3.8707,-3.8689,-3.856,-3.8028,-3.7543,-3.7758,-3.7575,-3.6988,-3.5539,-3.5087,-3.4658,-3.3273,-3.3169,-3.3379,-3.3379,-3.3379,-3.3379,-3.3379,-3.3335,-3.3172,-3.2768,-3.2571,-3.23,-3.1787,-3.1658,-3.1524,-3.1249,-3.119,-3.119,-3.119,-3.119,-3.119,-3.119,-3.119,-3.119,-3.119,-3.119,-3.119,-3.119,-3.119,-3.119,-3.119,-3.119,-3.119,-3.119,-3.119,-3.119,-3.119,-3.119,-3.119,-4.3515,-4.3993,-4.436,-4.3663,-4.3515,-4.3515,-4.3515,-4.3934,-4.436,-4.4383,-4.485,-4.5267,-4.5369,-4.5963,-4.6443,-4.6493,-4.6453,-4.6443,0.0,0.0,-4.6521,-4.6685,0.0,-4.6244,-4.5496,-4.5351,-4.5245,-4.5064,-4.4899,-4.4834,-4.4917,-4.385,-4.3259,-4.3378,-4.238,-4.1444,-4.0601,-4.0583,-4.0471,-4.0178,-3.9454,-3.9101,-3.912,-3.9863,-4.0197,-4.0248,0.0,-4.1219,-4.1219,-4.1349,-4.101,-4.0416,-4.0531,-4.0048,-3.9305,-3.9273,-3.91,-3.8881,-3.8765,-3.8707,-3.8707,-3.8707,-3.8707,-3.8579,-3.7896,-3.7603,-3.7367,-3.674,-3.6531,-3.627,-3.5294,-3.5026,-3.4775,-3.3863,-3.3694,-3.3721,-3.3721,-3.3721,-3.3721,-3.3721,-3.3451,-3.3199,-3.3124,-3.2451,-3.1897,-3.1807,-3.1488,-3.1269,-3.121,-3.119,-3.119,-3.119,-3.119,-3.119,-3.119,-3.119,-3.119,-3.119,-3.119,-3.119,-3.119,-3.119,-3.119,-3.119,-3.119,-3.119,-3.119,-3.119,-3.119,-3.119,-3.119,-3.119,-4.3515,-4.3754,-4.4066,-4.4121,-4.4158,-4.4082,-4.3824,-4.4102,-4.4438,-4.4585,-4.4976,-4.5307,-4.5338,-4.6007,-4.6562,-4.6593,-4.6624,-4.6491,-4.607,-4.5974,-4.5955,0.0,0.0,-4.5831,-4.5448,-4.5429,-4.5362,-4.5201,-4.4688,-4.4266,-4.3976,-4.2919,-4.2301,-4.2228,-4.1301,-4.0633,-4.0292,-3.9847,-3.9653,-3.9677,-3.9287,-3.9101,-3.9101,-3.951,-3.9695,-3.9714,0.0,-4.0253,-4.0253,-4.0253,-4.003,-3.9695,-3.9695,-3.9454,-3.9087,-3.9017,-3.895,-3.8881,-3.8735,-3.8707,-3.8634,-3.8193,-3.8046,-3.7915,-3.7107,-3.6523,-3.6083,-3.5701,-3.5591,-3.55,-3.5096,-3.4674,-3.4266,-3.3899,-3.3807,-3.3807,-3.3807,-3.3807,-3.3793,-3.3753,-3.3597,-3.3394,-3.3126,-3.2732,-3.2299,-3.1824,-3.1582,-3.1408,-3.123,-3.119,-3.119,-3.119,-3.119,-3.119,-3.119,-3.119,-3.119,-3.119,-3.119,-3.119,-3.119,-3.119,-3.119,-3.119,-3.119,-3.119,-3.119,-3.119,-3.119,-3.119,-3.119,-3.119,-4.3515,-4.3626,-4.3883,-4.4305,-4.4415,-4.4412,-4.4424,-4.4427,-4.4508,-4.4915,-4.5144,-4.5307,-4.5307,-4.6118,-4.6748,-4.6538,-4.6755,-4.6596,-4.5522,-4.538,-4.537,-4.5369,-4.538,-4.537,-4.5369,-4.5149,-4.4906,-4.468,-4.3802,-4.3101,-4.2712,-4.1805,-4.1248,-4.1086,-4.0258,-3.9845,-3.9889,-3.9279,-3.9021,-3.9101,-3.9101,-3.9101,-3.9101,-3.9101,-3.9101,-3.9101,-3.9101,-3.9101,-3.9101,-3.9101,-3.9101,-3.9101,-3.9101,-3.9087,-3.9059,-3.8935,-3.8896,-3.8866,-3.8735,-3.8579,-3.8322,-3.7694,-3.7364,-3.707,-3.6248,-3.5518,-3.4968,-3.4766,-3.4729,-3.4729,-3.4729,-3.4266,-3.3807,-3.3807,-3.3807,-3.3807,-3.3807,-3.3807,-3.3793,-3.3739,-3.3625,-3.3441,-3.3083,-3.2928,-3.262,-3.195,-3.1841,-3.1749,-3.1485,-3.1466,-3.1466,-3.1466,-3.137,-3.1291,-3.121,-3.119,-3.119,-3.119,-3.119,-3.119,-3.119,-3.119,-3.119,-3.119,-3.119,-3.119,-3.119,-3.119,-3.119,-3.119,-3.119,-3.119,-4.3515,-4.4048,-4.4452,-4.3754,-4.3589,-4.3974,-4.5424,-4.5058,-4.4608,-4.5378,-4.5412,-4.5307,-4.5307,-4.6615,-4.7444,-4.6634,-4.7188,-4.7161,-4.5536,0.0,-4.5317,-4.5307,-4.5307,-4.5317,-4.5307,-4.4407,-4.3802,-4.3703,-4.2483,-4.1768,-4.1801,-4.0733,-4.0142,-4.0184,-3.9409,-3.8984,-3.8984,-3.8929,-3.8979,-3.9101,-3.9101,-3.9101,-3.9101,-3.9101,-3.9101,-3.9101,-3.9101,-3.9101,-3.9101,-3.9101,-3.9101,-3.9101,-3.9101,-3.9059,-3.8993,-3.8939,-3.8866,-3.8792,-3.8719,-3.8212,-3.7584,-3.7529,-3.6997,-3.6211,-3.5353,-3.5059,-3.4839,-3.41,-3.3899,-3.3899,-3.3899,-3.3844,-3.3807,-3.3807,-3.3807,-3.3807,-3.3807,-3.3807,-3.3807,-3.3775,-3.3437,-3.3126,-3.3096,-3.2684,-3.2334,-3.2266,-3.2266,-3.2248,-3.2231,-3.2214,-3.2214,-3.2214,-3.1896,-3.1543,-3.123,-3.119,-3.119,-3.119,-3.119,-3.119,-3.119,-3.119,-3.119,-3.119,-3.119,-3.119,-3.119,-3.119,-3.119,-3.119,-3.119,-3.119,-4.3515,-4.4085,-4.4635,-4.4323,-4.425,-4.4449,-4.528,-4.5329,-4.5486,-4.6466,-4.6326,-4.6042,-4.6042,-4.6557,-4.6882,-4.6557,-4.6787,-4.6596,-4.5449,-4.5307,-4.5224,-4.5023,-4.4981,-4.4732,-4.4057,-4.3624,-4.3082,-4.234,-4.1362,-4.0721,-4.0603,-3.9694,-3.9209,-3.9222,-3.8927,-3.881,-3.8837,-3.8837,-3.8877,-3.8979,-3.9021,-3.9045,-3.9101,-3.9101,-3.9101,-3.9101,-3.9101,-3.9101,-3.9101,-3.9101,-3.9101,-3.9101,-3.9101,-3.9045,-3.8923,-3.8352,-3.811,-3.7982,-3.7397,-3.7,-3.6666,-3.6119,-3.5752,-3.5334,-3.4523,-3.4252,-3.4192,-3.3899,-3.3807,-3.3807,-3.3807,-3.3807,-3.3807,-3.3807,-3.3807,-3.3807,-3.3807,-3.3807,-3.3793,-3.3753,-3.3573,-3.3324,-3.3083,-3.2797,-3.2535,-3.2334,-3.23,-3.23,-3.23,-3.23,-3.23,-3.23,-3.195,-3.175,-3.1877,-3.1466,-3.1291,-3.1506,-3.131,-3.119,-3.119,-3.119,-3.119,-3.119,-3.119,-3.119,-3.119,-3.119,-3.119,-3.119,-3.119,-3.119,-4.3883,-4.4287,-4.4746,-4.5021,-4.4892,-4.4907,-4.5762,-4.5828,-4.6078,-4.7432,-4.7063,-4.65,-4.65,-4.65,-4.6424,0.0,-4.6328,-4.6181,-4.5276,-4.5132,-4.5023,-4.4701,-4.4449,-4.4008,-4.3259,-4.264,-4.1959,-4.1188,-4.0292,-3.9704,-3.953,-3.9001,-3.8735,-3.8822,-3.8735,-3.8765,-3.8892,-3.8807,-3.8807,-3.8881,-3.8939,-3.9007,-3.9059,-3.9087,-3.9101,-3.9101,-3.9101,-3.9101,-3.9101,-3.9101,-3.9101,-3.9101,-3.9073,-3.8869,-3.8506,-3.7899,-3.7477,-3.7092,-3.6515,-3.6119,-3.5789,-3.5188,-3.4839,-3.4509,-3.3972,-3.3807,-3.3807,-3.3807,-3.3807,-3.3807,-3.3807,-3.3807,-3.3807,-3.3807,-3.3807,-3.3807,-3.3807,-3.3807,-3.378,-3.3712,-3.3661,-3.352,-3.3208,-3.3068,-3.291,-3.2685,-3.2653,-3.2653,-3.2653,-3.2653,-3.2602,-3.2468,-3.2214,-3.2109,-3.2283,-3.1712,-3.1466,-3.1694,-3.1389,-3.119,-3.119,-3.119,-3.119,-3.119,-3.119,-3.119,-3.119,-3.119,-3.119,-3.119,-3.119,-3.119,-4.4691,-4.4691,-4.4874,-4.5681,-4.5296,-4.5219,-4.7151,-4.6617,-4.6248,-4.8183,-4.7469,-4.6508,-4.647,-4.647,-4.6233,-4.543,-4.5965,-4.6088,-4.4957,-4.4788,-4.4688,-4.4425,-4.3683,-4.3195,-4.3176,-4.1432,-4.03,-4.03,-3.9309,-3.8707,-3.8707,-3.8707,-3.8822,-3.9087,-3.8837,-3.8822,-3.9101,-3.8822,-3.8735,-3.8807,-3.8862,-3.8939,-3.8993,-3.9059,-3.9101,-3.9101,-3.9082,-3.9082,-3.9082,-3.9082,-3.9082,-3.9069,-3.9003,-3.845,-3.7677,-3.7606,-3.7036,-3.6285,-3.6266,-3.5701,-3.5004,-3.5004,-3.4454,-3.3807,-3.3807,-3.3807,-3.3807,-3.3807,-3.3807,-3.3807,-3.3807,-3.3807,-3.3807,-3.3807,-3.3807,-3.3807,-3.3807,-3.3807,-3.378,-3.3712,-3.3629,-3.3577,-3.3506,-3.3437,-3.3393,-3.3393,-3.3393,-3.3393,-3.3393,-3.3393,-3.3256,-3.2827,-3.2795,-3.265,-3.2334,-3.1932,-3.1712,-3.1695,-3.1389,-3.119,-3.119,-3.119,-3.119,-3.119,-3.119,-3.119,-3.119,-3.119,-3.119,-3.119,-3.119,-3.119,-4.3798,-4.4126,-4.4693,-4.4931,-4.526,-4.5918,-4.7281,-4.6871,-4.6262,-4.6497,-4.6679,-4.6412,-4.5236,-4.5179,-4.5152,-4.4732,-4.5028,-4.5128,-4.4597,-4.4519,-4.4185,-4.3308,-4.2999,-4.2333,-4.1014,-4.0372,-3.978,-3.9227,-3.8879,-3.8707,-3.8707,-3.8707,-3.8753,-3.8825,-3.8735,-3.8753,-3.8825,-3.8735,-3.8792,-3.9003,-3.9129,-3.9115,-3.8993,-3.9059,-3.9101,-3.9064,-3.8488,-3.8265,-3.8209,-3.7652,-3.7411,-3.7411,-3.7344,-3.7133,-3.6773,-3.6145,-3.5694,-3.5298,-3.4743,-3.4376,-3.4174,-3.4174,-3.399,-3.3807,-3.3807,-3.3807,-3.3807,-3.3807,-3.3807,-3.3807,-3.3807,-3.3807,-3.3807,-3.3807,-3.3807,-3.3793,-3.3739,-3.3726,-3.3712,-3.3629,-3.3577,-3.352,-3.3491,-3.3437,-3.3393,-3.3393,-3.3393,-3.3393,-3.3393,-3.3393,-3.3256,-3.2827,-3.2584,-3.2419,-3.2317,-3.1712,-3.1449,-3.1694,-3.1389,-3.119,-3.119,-3.119,-3.119,-3.119,-3.119,-3.119,-3.119,-3.119,-3.119,-3.119,-3.119,-3.119,-4.4857,-4.515,-4.5682,-4.5993,-4.6213,-4.6562,-4.7238,-4.7477,-4.7473,-4.7185,-4.7007,-4.6594,-4.558,-4.4985,0.0,-4.4443,-4.4533,-4.4546,-4.4294,-4.3932,-4.3423,-4.264,-4.198,-4.1145,-4.0005,-3.9606,-3.9221,-3.8744,-3.8707,-3.8707,-3.8707,-3.8707,-3.875,-3.8851,-3.875,-3.875,-3.8851,-3.8519,-3.8422,-3.8567,-3.8476,-3.8359,-3.8262,-3.8624,-3.8592,-3.8225,-3.7668,-3.7411,-3.7392,-3.6891,-3.6699,-3.6686,-3.6599,-3.6347,-3.5942,-3.5349,-3.4876,-3.4454,-3.3972,-3.3807,-3.3807,-3.3807,-3.3807,-3.3807,-3.3807,-3.3807,-3.3807,-3.3807,-3.3807,-3.3807,-3.3807,-3.3807,-3.3807,-3.3807,-3.3807,-3.378,-3.3712,-3.3698,-3.3671,-3.3577,-3.352,-3.3495,-3.3466,-3.3422,-3.3393,-3.3393,-3.3393,-3.3393,-3.3393,-3.3256,-3.3068,-3.2844,-3.2502,-3.23,-3.23,-3.1749,-3.1487,-3.1694,-3.1389,-3.119,-3.119,-3.119,-3.119,-3.119,-3.119,-3.119,-3.119,-3.119,-3.119,-3.119,-3.119,-3.119,-4.6964,-4.6984,-4.7167,-4.7975,-4.7681,-4.7204,-4.7186,-4.8243,-4.9168,-4.9018,-4.7837,-4.6787,-4.6712,-4.5415,-4.436,-4.4313,-4.4327,-4.4279,-4.3986,-4.3212,-4.2548,-4.2228,-4.0818,-3.9863,-3.979,-3.9129,-3.8707,-3.8707,-3.8707,-3.8707,-3.8707,-3.8634,-3.8696,-3.8948,-3.8656,-3.8601,-3.8878,-3.8089,-3.7713,-3.7748,-3.7333,-3.7103,-3.7063,-3.7849,-3.7711,-3.6876,-3.6696,-3.6563,-3.6463,-3.6463,-3.6463,-3.645,-3.6324,-3.5826,-3.5161,-3.4949,-3.4417,-3.3807,-3.3807,-3.3807,-3.3807,-3.3807,-3.3807,-3.3807,-3.3807,-3.3807,-3.3807,-3.3807,-3.3807,-3.3807,-3.3807,-3.3807,-3.3807,-3.3807,-3.3807,-3.378,-3.3712,-3.3684,-3.3643,-3.3524,-3.3495,-3.3466,-3.3408,-3.3393,-3.3393,-3.3393,-3.3393,-3.3393,-3.3393,-3.3083,-3.2844,-3.2795,-3.2518,-3.2317,-3.2248,-3.1914,-3.1694,-3.1657,-3.137,-3.119,-3.119,-3.119,-3.119,-3.119,-3.119,-3.119,-3.119,-3.119,-3.119,-3.119,-3.119,-3.119,-4.6019,-4.5971,-4.6267,-4.7092,-4.7662,-4.8048,-4.799,-4.8254,-4.8163,-4.689,-4.6354,-4.593,-4.5303,-4.4575,-4.3999,-4.3747,-4.3905,-4.3968,-4.3649,-4.2899,-4.213,-4.1442,-4.0506,-3.9643,-3.9019,-3.8799,-3.8707,-3.8707,-3.8707,-3.8707,-3.8707,-3.8102,-3.7779,-3.7834,-3.7173,-3.6924,-3.7143,-3.6957,-3.7032,0.0,-3.7358,-3.7091,-3.6648,-3.7189,-3.693,-3.6073,-3.5998,-3.5525,-3.4736,-3.4736,-3.4736,-3.4723,-3.4585,-3.4423,-3.4262,-3.4118,-3.3954,-3.3807,-3.3807,-3.3807,-3.3807,-3.3807,-3.3807,-3.3807,-3.3807,-3.3807,-3.3807,-3.3807,-3.3807,-3.3807,-3.3807,-3.3807,-3.3807,-3.3807,-3.3807,-3.3766,-3.3661,-3.3633,-3.3591,-3.3452,-3.3408,-3.3408,-3.3393,-3.3393,-3.3393,-3.3393,-3.3393,-3.3393,-3.3393,-3.3316,-3.3162,-3.2827,-3.2731,-3.2468,-3.1878,-3.175,-3.1582,-3.1329,-3.1249,-3.119,-3.119,-3.119,-3.119,-3.119,-3.119,-3.119,-3.119,-3.119,-3.119,-3.119,-3.119,-3.119,-4.669,-4.677,-4.705,-4.7834,-4.8151,-4.8228,-4.8207,-4.8247,-4.8067,-4.7223,-4.6434,-4.5773,-4.5351,-4.4443,-4.3699,-4.3513,-4.3649,-4.357,-4.2999,-4.2231,-4.1442,-4.0616,-3.9827,-3.9166,-3.8744,-3.8707,-3.8707,-3.8707,-3.8707,-3.8707,-3.8707,-3.7951,-3.7492,-3.7492,-3.6799,-3.6495,-3.6604,-3.6434,-3.6483,-3.6726,-3.6464,-3.619,-3.5935,-3.6111,-3.5892,-3.5352,-3.5265,-3.4911,-3.4374,-3.4257,-3.4185,-3.4148,-3.4036,-3.3985,-3.3934,-3.3847,-3.3807,-3.3807,-3.3807,-3.3807,-3.3807,-3.3807,-3.3807,-3.3807,-3.3807,-3.3807,-3.3807,-3.3807,-3.3807,-3.3807,-3.3807,-3.3807,-3.3807,-3.3807,-3.3807,-3.3766,-3.3633,-3.3605,-3.3563,-3.3422,-3.3393,-3.3393,-3.3393,-3.3393,-3.3393,-3.3393,-3.3393,-3.3393,-3.3393,-3.3223,-3.3019,-3.2811,-3.265,-3.2401,-3.2021,-3.1985,-3.1823,-3.1449,-3.1447,-3.137,-3.121,-3.119,-3.119,-3.119,-3.119,-3.119,-3.119,-3.119,-3.119,-3.119,-3.119,-3.119,-4.7587,-4.7992,-4.8338,-4.8865,-4.8673,-4.8332,-4.8184,-4.8189,-4.8212,-4.8102,-4.6911,-4.5902,-4.5902,-4.458,-4.3515,-4.3515,-4.3515,-4.3276,-4.2598,-4.1682,-4.0838,-4.0194,-3.9276,-3.8707,-3.8707,-3.8707,-3.8692,-3.8658,-3.8692,-3.8618,-3.8456,-3.7716,-3.7217,-3.707,-3.6476,-3.6203,-3.6242,-3.6007,-3.5912,-3.5951,-3.5431,-3.5245,-3.5304,-3.5193,-3.5053,-3.4936,-3.4781,-3.4678,-3.4626,-3.4374,-3.4233,-3.4161,-3.4049,-3.3959,-3.3895,-3.3815,-3.3807,-3.3807,-3.3807,-3.3807,-3.3807,-3.3807,-3.3807,-3.3807,-3.3807,-3.3807,-3.3807,-3.3807,-3.3807,-3.3807,-3.3807,-3.3807,-3.3807,-3.3807,-3.3807,-3.3766,-3.3633,-3.3605,-3.3563,-3.3422,-3.3393,-3.3393,-3.3393,-3.3393,-3.3393,-3.3393,-3.3393,-3.3393,-3.3393,-3.3114,-3.2908,-3.2908,-3.2651,-3.2469,-3.2384,-3.2402,-3.2214,-3.1823,-3.1805,-3.1675,-3.1406,-3.1406,-3.1368,-3.1291,-3.123,-3.119,-3.119,-3.119,-3.119,-3.119,-3.119,-3.119,-4.685,0.0,-4.8883,0.0,-4.8569,-4.8885,0.0,0.0,-4.7889,0.0,-4.6507,-4.5902,-4.5902,-4.458,-4.3515,-4.3515,-4.3515,-4.346,-4.3349,-4.2047,-4.1058,-4.0948,-3.9625,-3.8707,-3.8707,-3.8707,-3.8658,-3.8544,-3.8624,-3.8346,-3.7522,-3.6828,-3.6119,-3.5353,-3.4807,-3.4591,-3.4791,-3.497,-3.5144,-3.5321,-3.5231,-3.5245,-3.5304,-3.5277,-3.5201,-3.5079,-3.5107,-3.5028,-3.4831,-3.4636,-3.4506,-3.4427,-3.4124,-3.3959,-3.3895,-3.3815,-3.3807,-3.3807,-3.3807,-3.3807,-3.3807,-3.3807,-3.3807,-3.3807,-3.3807,-3.3807,-3.3807,-3.3807,-3.3807,-3.3807,-3.3807,-3.3807,-3.3807,-3.3807,-3.3807,-3.3766,-3.3633,-3.3605,-3.3563,-3.3422,-3.3393,-3.3393,-3.3393,-3.3393,-3.3393,-3.3393,-3.3393,-3.3393,-3.3393,-3.3349,-3.3334,-3.3334,-3.3271,-3.3117,-3.2763,-3.2731,-3.2584,-3.2231,-3.2231,-3.2214,-3.2162,-3.2144,-3.1985,-3.1638,-3.1349,-3.119,-3.119,-3.119,-3.119,-3.119,-3.119,-3.119,-4.6892,-4.7804,-4.8587,0.0,-4.9116,-4.8491,-4.8559,-4.8275,-4.7921,-4.7614,-4.6575,-4.5626,-4.5296,-4.4287,-4.3515,-4.3515,-4.3515,-4.3185,-4.2286,-4.1535,-4.0765,-3.9848,-3.9064,-3.8624,-3.8692,-3.8611,-3.8512,-3.851,-3.8092,-3.7692,-3.7262,-3.6146,-3.5399,-3.5177,-3.4648,-3.4483,-3.4714,-3.4954,-3.5107,-3.5209,-3.5209,-3.5218,-3.5253,-3.5277,-3.5293,-3.5262,-3.5182,-3.5124,-3.5046,-3.473,-3.452,-3.436,-3.4093,-3.3934,-3.3829,-3.382,-3.3807,-3.3807,-3.3807,-3.3807,-3.3807,-3.3807,-3.3807,-3.3807,-3.3807,-3.3807,-3.3807,-3.3807,-3.3807,-3.3807,-3.3807,-3.3807,-3.3807,-3.3807,-3.3807,-3.3766,-3.3633,-3.3605,-3.3563,-3.3422,-3.3393,-3.3393,-3.3393,-3.3393,-3.3393,-3.3393,-3.3393,-3.3393,-3.3393,-3.3393,-3.3393,-3.3393,-3.3393,-3.3334,-3.3162,-3.3147,-3.2972,-3.2601,-3.2584,-3.2503,-3.2317,-3.23,-3.2109,-3.1714,-3.1562,-3.1389,-3.119,-3.119,-3.119,-3.119,-3.119,-3.119,-4.6305,-4.7083,-4.7844,-4.9619,-4.9122,-4.8314,0.0,0.0,-4.8166,0.0,-4.6676,-4.5385,-4.4748,-4.3995,-4.348,-4.348,-4.3497,-4.3075,-4.1867,-4.1335,-4.0622,-3.9378,-3.8784,-3.851,-3.8611,-3.8481,-3.8415,-3.8446,-3.7669,-3.7109,-3.6877,-3.563,-3.4931,-3.4975,-3.467,-3.4632,-3.4908,-3.5098,-3.5209,-3.5209,-3.5209,-3.5209,-3.5209,-3.5261,-3.5308,-3.5369,-3.5231,-3.5207,-3.5215,-3.4879,-3.462,-3.4379,-3.416,-3.3954,-3.3807,-3.3807,-3.3807,-3.3807,-3.3807,-3.3807,-3.3807,-3.3807,-3.3807,-3.3807,-3.3807,-3.3807,-3.3807,-3.3807,-3.3807,-3.3807,-3.3807,-3.3807,-3.3807,-3.3807,-3.3807,-3.3766,-3.3633,-3.3577,-3.352,-3.3408,-3.3393,-3.3393,-3.3393,-3.3393,-3.3393,-3.3393,-3.3393,-3.3393,-3.3393,-3.3393,-3.3393,-3.3393,-3.3393,-3.3393,-3.3393,-3.3393,-3.3271,-3.2972,-3.2939,-3.2797,-3.2435,-3.2436,-3.2196,-3.1714,-3.1695,-3.1543,-3.119,-3.119,-3.119,-3.119,-3.119,-3.119,-4.424,-4.5399,-4.6595,-4.6721,-4.7808,-4.8858,0.0,0.0,-4.8665,-4.7951,-4.6575,-4.5269,-4.4545,-4.3871,-4.3412,-4.3412,-4.3464,-4.3462,-4.3284,-4.1966,-4.0944,-4.0715,-3.9347,-3.8399,-3.8415,-3.8417,-3.8385,-3.8305,-3.7624,-3.6841,-3.6002,-3.5276,-3.4674,-3.4191,-3.4371,-3.4632,-3.4908,-3.5098,-3.5209,-3.5209,-3.5209,-3.5209,-3.5209,-3.5209,-3.5234,-3.5319,-3.5369,-3.5398,-3.5383,-3.5234,-3.4982,-3.4653,-3.4379,-3.408,-3.3807,-3.3807,-3.3807,-3.3807,-3.3807,-3.3807,-3.3807,-3.3807,-3.3807,-3.3807,-3.3807,-3.3807,-3.3807,-3.3807,-3.3807,-3.3807,-3.3807,-3.3807,-3.3807,-3.3807,-3.3807,-3.3766,-3.3633,-3.3509,-3.3408,-3.3393,-3.3393,-3.3393,-3.3393,-3.3393,-3.3393,-3.3393,-3.3393,-3.3393,-3.3393,-3.3393,-3.3393,-3.3393,-3.3393,-3.3393,-3.3393,-3.3393,-3.3378,-3.3364,-3.3364,-3.3193,-3.2779,-3.2763,-3.2452,-3.1714,-3.1695,-3.1543,-3.119,-3.119,-3.119,-3.119,-3.119,-3.119,-4.4729,-4.5291,0.0,-4.7011,-4.7319,-4.75,-4.8004,-4.8113,-4.7916,-4.7125,-4.613,-4.5134,-4.4337,-4.3688,-4.3269,-4.3269,-4.3286,-4.3122,-4.2593,-4.1553,-4.0659,-4.0096,-3.9026,-3.8336,-3.8401,-3.832,-3.8072,-3.7562,0.0,-3.5937,-3.5108,-3.4393,-3.4082,-3.4213,-3.4357,-3.4645,-3.5089,-3.5157,-3.5209,-3.5209,-3.5209,-3.5209,-3.5209,-3.5209,-3.5218,-3.5234,-3.5308,-3.5361,-3.5398,-3.5207,-3.5034,-3.4851,-3.4461,-3.4203,-3.4036,-3.3855,-3.3807,-3.3807,-3.3807,-3.3807,-3.3807,-3.3807,-3.3807,-3.3807,-3.3807,-3.3807,-3.3807,-3.3807,-3.3807,-3.3807,-3.3807,-3.3807,-3.3793,-3.3753,-3.3698,-3.3661,-3.3549,-3.3466,-3.3393,-3.3393,-3.3393,-3.3393,-3.3393,-3.3393,-3.3393,-3.3393,-3.3393,-3.3393,-3.3393,-3.3393,-3.3393,-3.3393,-3.3393,-3.3393,-3.3393,-3.3393,-3.3286,-3.3019,-3.3003,-3.2844,-3.2485,-3.2468,-3.2231,-3.1714,-3.1695,-3.1543,-3.119,-3.119,-3.119,-3.119,-3.119,-3.119,-4.4023,-4.4095,-4.4421,0.0,-4.5888,-4.6051,-4.7391,-4.7717,-4.7606,-4.7373,-4.625,-4.5146,-4.4603,-4.3739,-4.3105,-4.316,-4.3196,-4.2905,-4.2086,-4.1266,-4.0448,-3.963,-3.8779,-3.8272,-3.832,-3.8257,-3.7881,-3.7114,0.0,0.0,-3.4767,-3.3938,-3.3757,-3.4323,-3.4553,-3.4841,-3.5201,-3.5209,-3.5209,-3.5209,-3.5209,-3.5209,-3.519,-3.4923,-3.4808,-3.4789,-3.4837,-3.5044,-3.5357,-3.5211,-3.5094,-3.4953,-3.4559,-3.4309,-3.4173,-3.3895,-3.3807,-3.3807,-3.3807,-3.3807,-3.3807,-3.3807,-3.3807,-3.3807,-3.3807,-3.3807,-3.3807,-3.3807,-3.3807,-3.3807,-3.3807,-3.3807,-3.3793,-3.3739,-3.3657,-3.3591,-3.3534,-3.3466,-3.3393,-3.3393,-3.3393,-3.3393,-3.3393,-3.3393,-3.3393,-3.3393,-3.3393,-3.3393,-3.3393,-3.3393,-3.3393,-3.3393,-3.3393,-3.3393,-3.3393,-3.3393,-3.3223,-3.2844,-3.2795,-3.2584,-3.2127,-3.2109,-3.1914,-3.1543,-3.1543,-3.1428,-3.119,-3.119,-3.119,-3.119,-3.119,-3.119,0.0,0.0,0.0,0.0,0.0,0.0,-4.7029,0.0,-4.7826,-4.8619,-4.6939,-4.5291,-4.5291,-4.4023,-4.301,-4.314,-4.3178,-4.2905,-4.205,-4.1214,-4.038,-3.9531,-3.8716,-3.8209,-3.8209,-3.8209,-3.7865,0.0,-3.6272,-3.5582,-3.5015,-3.4058,-3.3797,-3.4379,-3.4907,-3.5209,-3.5209,-3.5209,-3.5209,-3.5209,-3.5209,-3.5209,-3.5171,-3.4369,-3.3995,-3.3995,-3.3995,-3.4473,-3.527,-3.5289,-3.5176,-3.498,-3.4705,-3.445,-3.4185,-3.3908,-3.382,-3.3807,-3.3807,-3.3807,-3.3807,-3.3807,-3.3807,-3.3807,-3.3807,-3.3807,-3.3807,-3.3807,-3.3807,-3.3807,-3.3807,-3.3807,-3.3807,-3.3807,-3.3684,-3.3605,-3.3591,-3.3477,-3.3393,-3.3393,-3.3393,-3.3393,-3.3393,-3.3393,-3.3393,-3.3393,-3.3393,-3.3393,-3.3393,-3.3393,-3.3393,-3.3393,-3.3393,-3.3393,-3.3393,-3.3393,-3.3223,-3.2844,-3.2795,-3.2468,-3.1732,-3.1677,-3.1543,-3.121,-3.119,-3.119,-3.119,-3.119,-3.119,-3.119,-3.119,-3.119,-4.089,0.0,0.0,0.0,0.0,0.0,0.0,0.0,-4.5327,-4.6142,-4.5761,-4.5291,-4.5291,-4.4928,-4.4658,-4.4696,-4.3737,-4.2903,-4.2667,-4.1434,-4.0455,-4.022,-3.9007,-3.8209,-3.8209,-3.8209,-3.7865,0.0,-3.661,-3.5885,-3.4767,-3.431,-3.4159,-3.4334,-3.4889,-3.5209,-3.5209,-3.5209,-3.5209,-3.5209,-3.5209,-3.5209,-3.5171,-3.4369,-3.3995,-3.3995,-3.4002,-3.4148,-3.4408,-3.504,-3.5273,-3.5195,-3.4917,-3.4643,-3.4375,-3.4166,-3.3972,-3.3807,-3.3807,-3.3807,-3.3807,-3.3807,-3.3807,-3.3807,-3.3807,-3.3807,-3.3807,-3.3807,-3.3807,-3.3807,-3.3807,-3.3807,-3.378,-3.3671,-3.3633,-3.3577,-3.3481,-3.3422,-3.3393,-3.3393,-3.3393,-3.3393,-3.3393,-3.3393,-3.3393,-3.3393,-3.3393,-3.3393,-3.3393,-3.3393,-3.3393,-3.3393,-3.3393,-3.3393,-3.3393,-3.3393,-3.3223,-3.2844,-3.2568,-3.2214,-3.1714,-3.1468,-3.1291,-3.119,-3.119,-3.119,-3.119,-3.119,-3.119,-3.119,-3.119,-3.119,-4.013,-4.0039,-4.0039,-4.0039,0.0,0.0,-4.2556,-4.3263,-4.3914,0.0,-4.5037,-4.4802,-4.4802,-4.453,-4.4295,-4.4295,-4.3517,-4.2901,-4.2901,-4.1506,-4.0383,-4.0093,-3.8952,-3.8209,-3.8209,-3.8209,-3.781,-3.69,-3.6697,-3.5864,-3.419,-3.4313,-3.4386,-3.4311,-3.4889,-3.5209,-3.5209,-3.4866,-3.4866,-3.519,-3.4495,-3.4342,-3.4655,-3.349,-3.3146,-3.3452,-3.3452,-3.3666,-3.4029,-3.455,-3.4967,-3.5262,-3.5,-3.4743,-3.4475,-3.4274,-3.4036,-3.3807,-3.3807,-3.3807,-3.3807,-3.3807,-3.3807,-3.3807,-3.3807,-3.3807,-3.3807,-3.3807,-3.3807,-3.3807,-3.3807,-3.3807,-3.378,-3.3657,-3.3633,-3.3577,-3.3466,-3.3408,-3.3393,-3.3393,-3.3393,-3.3393,-3.3393,-3.3393,-3.3393,-3.3393,-3.3393,-3.3393,-3.3393,-3.3393,-3.3393,-3.3393,-3.3393,-3.3393,-3.3393,-3.3393,-3.3223,-3.2844,-3.2617,-3.2334,-3.1967,-3.1601,-3.1408,-3.1408,-3.1271,-3.119,-3.119,-3.119,-3.119,-3.119,-3.119,-3.119,-3.9441,-3.9278,-3.9278,-3.9278,-3.9278,0.0,-4.2031,-4.2521,-4.2973,0.0,-4.4331,-4.386,-4.3951,-4.3371,-4.2901,-4.2901,-4.2901,-4.2901,-4.2901,-4.1596,-4.0401,-3.9731,-3.8952,-3.8409,-3.8354,-3.8336,-3.7899,-3.686,-3.6606,-3.561,-3.3502,-3.4049,-3.4341,-3.415,-3.4652,-3.4915,-3.4915,-3.4216,-3.4216,-3.4896,-3.3406,-3.31,-3.3796,-3.221,-3.1878,-3.2565,-3.2565,-3.2989,-3.3716,-3.3811,-3.4431,-3.5269,-3.4906,-3.4649,-3.4475,-3.4274,-3.4036,-3.3807,-3.3807,-3.3807,-3.3807,-3.3807,-3.3807,-3.3807,-3.3807,-3.3807,-3.3807,-3.3807,-3.3807,-3.3807,-3.3807,-3.3807,-3.378,-3.3712,-3.3629,-3.3577,-3.3491,-3.3437,-3.3393,-3.3393,-3.3393,-3.3393,-3.3393,-3.3393,-3.3393,-3.3393,-3.3393,-3.3393,-3.3393,-3.3393,-3.3393,-3.3393,-3.3393,-3.3393,-3.3393,-3.3393,-3.3256,-3.2892,-3.2811,-3.2666,-3.2368,-3.1932,-3.1695,-3.1695,-3.137,-3.119,-3.119,-3.119,-3.119,-3.119,-3.119,-3.119,-3.8464,-3.8444,-3.8444,-3.8444,-3.8444,0.0,-3.9822,-4.0075,-4.051,0.0,-4.2266,-4.2375,-4.3009,-4.301,-4.2901,-4.2901,-4.2901,-4.2901,-4.2901,-4.2067,-4.1415,-4.127,-4.0528,-3.9822,-3.9206,-3.9187,-3.8807,-3.7954,-3.6687,-3.5204,-3.3502,-3.3346,-3.3299,-3.3262,-3.3201,-3.3196,-3.3196,-3.3024,-3.3024,-3.3177,-3.2871,-3.2795,-3.2928,-3.1943,-3.1599,-3.1732,-3.1687,-3.1752,-3.1969,-3.2669,-3.3876,-3.5192,-3.4222,-3.411,-3.4475,-3.4274,-3.4036,-3.3807,-3.3807,-3.3807,-3.3807,-3.3807,-3.3807,-3.3807,-3.3807,-3.3807,-3.3807,-3.3807,-3.3807,-3.3807,-3.3807,-3.3807,-3.378,-3.3661,-3.3619,-3.3563,-3.3452,-3.3408,-3.3393,-3.3393,-3.3393,-3.3393,-3.3393,-3.3393,-3.3393,-3.3393,-3.3393,-3.3393,-3.3393,-3.3393,-3.3393,-3.3393,-3.3393,-3.3393,-3.3393,-3.3393,-3.3364,-3.3286,-3.2988,-3.2763,-3.2699,-3.2056,-3.1695,-3.1695,-3.137,-3.119,-3.119,-3.119,-3.119,-3.119,-3.119,-3.119,-3.8209,-3.8209,-3.8209,-3.8209,-3.8209,0.0,0.0,-3.9387,-3.9713,-4.0872,-4.1089,-4.1216,-4.1633,-4.1705,-4.1705,-4.1705,-4.2049,-4.2303,-4.2303,-4.194,-4.1705,-4.1705,-4.0981,0.0,-3.9985,-3.9623,-3.9077,-3.8274,-3.6465,-3.4842,-3.3577,-3.3586,-3.3657,-3.371,-3.3864,-3.375,-3.3356,-3.2928,-3.2699,-3.2699,-3.184,-3.1668,-3.2069,-3.1236,-3.1083,-3.1503,-3.1465,-3.1687,-3.2088,-3.2527,-3.3479,-3.4584,-3.4012,-3.4093,-3.4497,-3.4394,-3.413,-3.3807,-3.3807,-3.3807,-3.3807,-3.3807,-3.3807,-3.3807,-3.3807,-3.3807,-3.3807,-3.3807,-3.3807,-3.3807,-3.3807,-3.3807,-3.3766,-3.3629,-3.3605,-3.3563,-3.3422,-3.3393,-3.3393,-3.3393,-3.3393,-3.3393,-3.3393,-3.3393,-3.3393,-3.3393,-3.3393,-3.3393,-3.3393,-3.3393,-3.3393,-3.3393,-3.3393,-3.3393,-3.3393,-3.3393,-3.3393,-3.3393,-3.3208,-3.3099,-3.3099,-3.2551,-3.2074,-3.1714,-3.1526,-3.137,-3.119,-3.119,-3.119,-3.119,-3.119,-3.119,-3.8209,-3.81,-3.8009,-3.8172,-3.8082,-3.8191,0.0,0.0,0.0,-3.993,-4.0075,0.0,0.0,0.0,0.0,0.0,0.0,0.0,0.0,-4.1213,0.0,-4.1886,-4.1361,0.0,-4.0745,-4.0057,-3.9221,-3.8269,-3.6588,-3.5162,-3.4117,-3.4195,-3.4323,-3.4409,-3.4603,-3.4331,-3.3536,-3.2967,-3.2623,-3.2451,-3.1255,-3.0968,-3.1484,-3.0777,-3.0739,-3.1255,-3.1255,-3.1618,-3.2222,-3.2394,-3.2947,-3.3757,-3.3879,-3.4168,-3.4497,-3.4453,-3.4172,-3.3807,-3.3807,-3.3807,-3.3807,-3.3807,-3.3807,-3.3807,-3.3807,-3.3807,-3.3807,-3.3807,-3.3807,-3.3807,-3.3807,-3.3793,-3.3753,-3.3633,-3.3591,-3.3549,-3.3422,-3.3393,-3.3393,-3.3393,-3.3393,-3.3393,-3.3393,-3.3393,-3.3393,-3.3393,-3.3393,-3.3393,-3.3393,-3.3393,-3.3393,-3.3393,-3.3393,-3.3393,-3.3393,-3.3393,-3.3393,-3.3393,-3.3393,-3.3393,-3.3393,-3.3003,-3.2502,-3.1823,-3.1823,-3.1675,-3.1408,-3.1329,-3.1252,-3.119,-3.119,-3.119,-3.8209,-3.7683,-3.7303,-3.8028,-3.7665,-3.7357,-3.8154,0.0,-3.8372,-3.8427,0.0,0.0,0.0,0.0,0.0,0.0,0.0,0.0,-3.862,-3.9422,-4.0771,-4.2537,-4.2665,0.0,0.0,-4.0836,-3.9767,-3.8316,-3.7973,-3.7227,-3.5799,-3.475,-3.4258,-3.4401,-3.3476,-3.2604,-3.179,-3.2394,-3.2336,-3.1637,-3.2164,-3.2088,-3.1503,-3.1408,-3.0987,-3.0338,-3.0338,-3.0395,-3.0529,-3.1248,-3.2069,-3.2894,-3.3443,-3.3998,-3.4486,-3.4309,-3.4061,-3.3807,-3.3807,-3.3807,-3.3807,-3.3807,-3.3807,-3.3807,-3.3807,-3.3807,-3.3807,-3.3807,-3.3807,-3.3807,-3.3807,-3.3766,-3.3684,-3.3619,-3.3549,-3.3495,-3.3408,-3.3393,-3.3393,-3.3393,-3.3393,-3.3393,-3.3393,-3.3393,-3.3393,-3.3393,-3.3393,-3.3393,-3.3393,-3.3393,-3.3393,-3.3393,-3.3393,-3.3393,-3.3393,-3.3393,-3.3393,-3.3393,-3.3393,-3.3393,-3.3393,-3.3003,-3.2617,-3.2248,-3.2231,-3.2214,-3.2179,-3.1805,-3.1487,-3.119,-3.119,-3.119,-3.8209,0.0,0.0,0.0,0.0,0.0,-3.8028,0.0,-3.8209,0.0,0.0,0.0,0.0,0.0,0.0,0.0,-3.8146,0.0,0.0,0.0,-3.9853,0.0,0.0,0.0,0.0,0.0,0.0,0.0,-3.8711,-3.7965,-3.7411,-3.574,-3.4896,-3.5143,-3.4396,-3.3652,-3.2955,-3.3299,-3.3032,-3.2183,-3.2069,-3.1828,-3.1484,-3.0987,-3.0548,-3.0211,-3.0211,-3.0211,-3.03,-3.161,-3.2374,-3.2817,-3.3919,-3.4422,-3.4497,-3.4416,-3.4123,-3.3807,-3.3807,-3.3807,-3.3807,-3.3807,-3.3807,-3.3807,-3.3807,-3.3807,-3.3807,-3.3807,-3.3807,-3.3807,-3.3807,-3.3753,-3.3684,-3.3619,-3.3549,-3.3481,-3.3408,-3.3393,-3.3393,-3.3393,-3.3393,-3.3393,-3.3393,-3.3393,-3.3393,-3.3393,-3.3393,-3.3393,-3.3393,-3.3393,-3.3393,-3.3393,-3.3393,-3.3393,-3.3393,-3.3393,-3.3393,-3.3393,-3.3393,-3.3393,-3.3393,-3.3241,-3.2972,-3.2601,-3.2584,-3.2485,-3.23,-3.2144,-3.186,-3.1487,-3.1291,-3.131,-3.781,0.0,0.0,0.0,0.0,0.0,0.0,0.0,0.0,0.0,0.0,0.0,0.0,0.0,0.0,0.0,0.0,-3.7682,0.0,-3.8028,0.0,0.0,0.0,0.0,0.0,0.0,0.0,0.0,0.0,-3.849,-3.8405,-3.6558,-3.5651,-3.6021,-3.5301,-3.4602,-3.4006,-3.4216,-3.3777,-3.2699,-3.2344,-3.1943,-3.1484,-3.0835,-3.0414,-3.0211,-3.0211,-3.0345,-3.0663,-3.2107,-3.2833,-3.318,-3.4413,-3.4743,-3.4497,-3.4431,-3.416,-3.3807,-3.3807,-3.3807,-3.3807,-3.3807,-3.3807,-3.3807,-3.3807,-3.3807,-3.3807,-3.3807,-3.3807,-3.3807,-3.3807,-3.3739,-3.3657,-3.3619,-3.3534,-3.3466,-3.3408,-3.3393,-3.3393,-3.3393,-3.3393,-3.3393,-3.3393,-3.3393,-3.3393,-3.3393,-3.3393,-3.3393,-3.3393,-3.3393,-3.3393,-3.3393,-3.3393,-3.3393,-3.3393,-3.3393,-3.3393,-3.3393,-3.3393,-3.3393,-3.3393,-3.3393,-3.3271,-3.2972,-3.2972,-3.2829,-3.2586,-3.2503,-3.2282,-3.1986,-3.1543,-3.1428,0.0,0.0,0.0,-3.7794,0.0,0.0,0.0,0.0,-3.7267,0.0,0.0,0.0,0.0,0.0,0.0,-3.6471,0.0,0.0,0.0,0.0,0.0,0.0,0.0,0.0,0.0,0.0,-4.0741,0.0,-4.0667,0.0,-3.8419,-3.7048,-3.6441,-3.6841,-3.5593,-3.4602,-3.4006,-3.477,-3.4323,-3.2718,-3.3528,-3.307,-3.1503,-3.14,-3.0949,-3.0211,-3.0211,-3.0682,-3.1522,-3.2355,-3.3196,-3.4009,-3.4641,-3.4743,-3.4475,-3.4286,-3.4036,-3.3807,-3.3807,-3.3807,-3.3807,-3.3807,-3.3807,-3.3807,-3.3807,-3.3807,-3.3807,-3.3807,-3.3807,-3.3807,-3.3807,-3.3698,-3.3605,-3.3605,-3.3509,-3.3393,-3.3393,-3.3393,-3.3393,-3.3393,-3.3393,-3.3393,-3.3393,-3.3393,-3.3393,-3.3393,-3.3393,-3.3393,-3.3393,-3.3393,-3.3393,-3.3393,-3.3393,-3.3393,-3.3393,-3.3393,-3.3393,-3.3393,-3.3393,-3.3393,-3.3393,-3.3393,-3.3393,-3.3378,-3.3378,-3.3364,-3.3364,-3.2972,-3.2779,-3.2747,-3.2021,-3.1524,0.0,0.0,-3.5261,-3.6345,0.0,0.0,0.0,0.0,0.0,0.0,0.0,0.0,0.0,0.0,0.0,0.0,0.0,0.0,0.0,0.0,0.0,0.0,0.0,0.0,0.0,0.0,0.0,0.0,-3.9598,0.0,0.0,-3.697,-3.6394,-3.6878,-3.5426,-3.4699,-3.4789,-3.5057,-3.4655,-3.3566,-3.328,-3.2546,-3.14,-3.0854,-3.0452,-3.023,-3.0815,-3.1197,-3.1541,-3.2974,-3.3719,-3.4039,-3.4481,-3.4572,-3.4475,-3.4274,-3.4036,-3.3807,-3.3807,-3.3807,-3.3807,-3.3807,-3.3807,-3.3807,-3.3807,-3.3807,-3.3807,-3.3807,-3.3807,-3.3793,-3.3753,-3.3657,-3.3591,-3.3534,-3.3466,-3.3393,-3.3393,-3.3393,-3.3393,-3.3393,-3.3393,-3.3393,-3.3393,-3.3393,-3.3393,-3.3393,-3.3393,-3.3393,-3.3393,-3.3393,-3.3393,-3.3393,-3.3393,-3.3393,-3.3393,-3.3393,-3.3393,-3.3393,-3.3393,-3.3393,-3.3393,-3.3393,-3.3393,-3.3393,-3.3147,-3.3003,-3.3003,-3.2651,-3.2334,-3.2074,-3.1823,-3.1638,-3.4878,-3.4371,0.0,-3.4751,-3.495,0.0,-3.6309,0.0,-3.6798,0.0,0.0,0.0,0.0,0.0,0.0,0.0,0.0,0.0,0.0,-3.56,0.0,0.0,0.0,0.0,0.0,0.0,-3.8648,-3.8231,-3.8747,0.0,0.0,0.0,-3.6639,-3.6897,-3.5631,-3.5018,-3.5201,-3.5209,-3.4636,-3.3528,-3.2967,-3.2088,-3.0968,-3.0433,-3.0211,-3.0249,-3.1121,-3.1637,-3.1973,-3.3414,-3.4127,-3.4321,-3.4437,-3.4453,-3.4371,-3.4142,-3.3947,-3.3807,-3.3807,-3.3807,-3.3807,-3.3807,-3.3807,-3.3807,-3.3807,-3.3807,-3.3807,-3.3807,-3.3793,-3.3753,-3.3712,-3.3629,-3.3549,-3.3506,-3.3452,-3.3393,-3.3393,-3.3393,-3.3393,-3.3393,-3.3393,-3.3393,-3.3393,-3.3393,-3.3393,-3.3393,-3.3393,-3.3393,-3.3393,-3.3393,-3.3393,-3.3393,-3.3393,-3.3393,-3.3393,-3.3393,-3.3393,-3.3393,-3.3393,-3.3393,-3.3393,-3.3271,-3.3193,-3.3193,-3.2813,-3.2617,-3.2617,-3.2419,-3.2074,-3.1695,-3.1695,-3.1638]},{"header":{"parameterUnit":"m.s-1","parameterCategory":1,"la1":30.6,"la2":29.2853,"lo1":-89.7004,"lo2":-87.6739,"dy":0.0162,"dx":0.0183,"nx":112,"ny":82,"refTime":"2026-04-26T12:00:00:Z","depth":0,"parameterNumber":3,"parameterNumberName":"V-component_of_WINDS"},"data":[0.0,0.0,0.0,0.0,0.0,0.0,0.0,0.0,0.0,0.0,0.0,0.0,0.0,0.0,0.0,0.0,0.0,0.0,0.0,0.0,0.0,0.0,0.0,0.0,0.0,0.0,0.0,0.0,0.0,0.0,0.0,0.0,0.0,0.0,0.0,0.0,0.0,0.0,0.0,0.0,0.0,0.0,0.0,0.0,0.0,0.0,0.0,0.0,0.0,0.0,0.0,0.0,0.0,0.0,0.0,0.0,0.0,0.0,0.0,0.0,0.0,0.0,0.0,0.0,0.0,0.0,0.0,0.0,0.0,0.0,0.0,0.0,0.0,0.0,0.0,0.0,0.0,0.0,0.0,0.0,0.0,0.0,0.0,0.0,0.0,0.0,0.0,0.0,0.0,0.0,-2.0744,-1.8861,-1.9112,-1.9722,-2.0419,-2.2269,-2.3476,-2.3674,0.0,0.0,0.0,0.0,0.0,0.0,0.0,0.0,0.0,0.0,0.0,0.0,0.0,0.0,0.0,0.0,0.0,0.0,0.0,0.0,0.0,0.0,0.0,0.0,0.0,0.0,0.0,0.0,0.0,0.0,0.0,0.0,0.0,0.0,0.0,0.0,0.0,0.0,0.0,0.0,0.0,0.0,0.0,0.0,0.0,0.0,0.0,0.0,0.0,0.0,0.0,0.0,0.0,0.0,0.0,0.0,0.0,0.0,0.0,0.0,0.0,0.0,0.0,0.0,0.0,0.0,0.0,0.0,0.0,0.0,0.0,0.0,0.0,0.0,0.0,0.0,0.0,0.0,0.0,0.0,0.0,0.0,0.0,0.0,0.0,0.0,0.0,0.0,0.0,0.0,0.0,0.0,0.0,0.0,0.0,0.0,0.0,0.0,0.0,0.0,0.0,0.0,0.0,0.0,-2.1267,-1.9466,-1.9533,-2.0774,-2.3301,-2.3373,-2.4258,-2.6553,0.0,0.0,0.0,0.0,0.0,0.0,0.0,0.0,0.0,0.0,0.0,0.0,0.0,0.0,0.0,0.0,0.0,0.0,0.0,0.0,0.0,0.0,0.0,0.0,0.0,0.0,0.0,0.0,0.0,0.0,0.0,0.0,0.0,0.0,0.0,0.0,0.0,0.0,0.0,0.0,0.0,0.0,0.0,0.0,0.0,0.0,0.0,0.0,0.0,0.0,0.0,0.0,0.0,0.0,0.0,0.0,0.0,0.0,0.0,0.0,0.0,0.0,0.0,0.0,0.0,0.0,0.0,0.0,0.0,0.0,0.0,0.0,0.0,0.0,0.0,0.0,0.0,0.0,0.0,0.0,0.0,0.0,0.0,0.0,0.0,0.0,0.0,0.0,0.0,0.0,0.0,0.0,0.0,0.0,0.0,0.0,0.0,0.0,0.0,0.0,0.0,0.0,0.0,-2.0698,-2.0023,-1.9636,-1.972,-2.0855,-2.3403,-2.3741,-2.4606,-2.6472,-2.6731,0.0,0.0,0.0,0.0,0.0,0.0,0.0,0.0,0.0,0.0,0.0,0.0,0.0,0.0,0.0,0.0,0.0,0.0,0.0,0.0,0.0,0.0,0.0,0.0,0.0,0.0,0.0,0.0,0.0,0.0,0.0,0.0,0.0,0.0,0.0,0.0,0.0,0.0,0.0,0.0,0.0,0.0,0.0,0.0,0.0,0.0,0.0,0.0,0.0,0.0,0.0,0.0,0.0,0.0,0.0,0.0,0.0,0.0,0.0,0.0,0.0,0.0,0.0,0.0,0.0,0.0,0.0,0.0,0.0,0.0,0.0,0.0,0.0,0.0,0.0,0.0,0.0,0.0,0.0,0.0,0.0,0.0,0.0,0.0,0.0,0.0,0.0,0.0,0.0,0.0,0.0,0.0,0.0,0.0,0.0,0.0,0.0,0.0,0.0,0.0,0.0,0.0,-1.9675,-1.9085,-1.9826,-2.002,-2.1071,-2.3399,-2.4039,-2.4952,-2.6245,-2.6688,0.0,0.0,0.0,0.0,0.0,0.0,0.0,0.0,0.0,0.0,0.0,0.0,0.0,0.0,0.0,0.0,0.0,0.0,0.0,0.0,0.0,0.0,0.0,0.0,0.0,0.0,0.0,0.0,0.0,0.0,0.0,0.0,0.0,0.0,0.0,0.0,0.0,0.0,0.0,0.0,0.0,0.0,0.0,0.0,0.0,0.0,0.0,0.0,0.0,0.0,0.0,0.0,0.0,0.0,0.0,0.0,0.0,0.0,0.0,0.0,0.0,0.0,0.0,0.0,0.0,0.0,0.0,0.0,0.0,0.0,0.0,0.0,0.0,0.0,0.0,0.0,0.0,0.0,0.0,0.0,0.0,0.0,0.0,0.0,0.0,0.0,0.0,0.0,0.0,0.0,0.0,0.0,0.0,0.0,0.0,0.0,0.0,0.0,0.0,0.0,0.0,0.0,-2.0111,-1.9833,-2.0167,-2.0754,-2.2137,-2.4747,-2.4746,-2.5475,-2.7558,-2.6914,0.0,0.0,0.0,0.0,0.0,0.0,0.0,0.0,0.0,0.0,0.0,0.0,0.0,0.0,0.0,0.0,0.0,0.0,0.0,0.0,0.0,0.0,0.0,0.0,0.0,0.0,0.0,0.0,0.0,0.0,0.0,0.0,0.0,0.0,0.0,0.0,0.0,0.0,0.0,0.0,0.0,0.0,0.0,0.0,0.0,0.0,0.0,0.0,0.0,0.0,0.0,0.0,0.0,0.0,0.0,0.0,0.0,0.0,0.0,0.0,0.0,0.0,0.0,0.0,0.0,0.0,0.0,0.0,0.0,0.0,0.0,0.0,0.0,0.0,0.0,0.0,0.0,0.0,0.0,0.0,0.0,0.0,0.0,0.0,0.0,0.0,0.0,0.0,0.0,0.0,0.0,0.0,0.0,0.0,0.0,0.0,0.0,0.0,0.0,0.0,0.0,0.0,-2.0494,-1.9994,-2.0483,-2.1406,-2.2977,-2.532,-2.5671,-2.6333,-2.7675,0.0,0.0,0.0,0.0,0.0,0.0,0.0,0.0,0.0,0.0,0.0,0.0,0.0,0.0,0.0,0.0,0.0,0.0,0.0,0.0,0.0,0.0,0.0,0.0,0.0,0.0,0.0,0.0,0.0,0.0,0.0,0.0,0.0,0.0,0.0,0.0,0.0,0.0,0.0,0.0,0.0,0.0,0.0,0.0,0.0,0.0,0.0,0.0,0.0,0.0,0.0,0.0,0.0,0.0,0.0,0.0,0.0,0.0,0.0,0.0,0.0,0.0,0.0,0.0,0.0,0.0,0.0,0.0,0.0,0.0,0.0,0.0,0.0,0.0,0.0,0.0,0.0,0.0,0.0,0.0,0.0,0.0,0.0,0.0,0.0,0.0,0.0,0.0,0.0,0.0,0.0,0.0,0.0,0.0,0.0,0.0,0.0,0.0,0.0,0.0,0.0,0.0,-2.1648,-2.095,-2.0716,-2.1297,-2.2595,-2.4145,-2.6024,-2.6355,-2.6755,-2.7458,0.0,0.0,0.0,0.0,0.0,0.0,0.0,0.0,0.0,0.0,0.0,0.0,0.0,0.0,0.0,0.0,0.0,0.0,0.0,0.0,0.0,0.0,0.0,0.0,0.0,0.0,0.0,0.0,0.0,0.0,0.0,0.0,0.0,0.0,0.0,0.0,0.0,0.0,0.0,0.0,0.0,0.0,0.0,0.0,0.0,0.0,0.0,0.0,0.0,0.0,0.0,0.0,0.0,0.0,0.0,0.0,0.0,0.0,0.0,0.0,0.0,0.0,0.0,0.0,0.0,0.0,0.0,0.0,0.0,0.0,0.0,0.0,0.0,0.0,0.0,0.0,0.0,0.0,0.0,0.0,0.0,0.0,0.0,0.0,0.0,0.0,0.0,0.0,0.0,0.0,0.0,0.0,0.0,0.0,0.0,0.0,0.0,0.0,0.0,0.0,0.0,0.0,-2.0577,-2.1353,-2.2257,-2.2839,-2.4277,-2.5724,-2.7007,-2.6708,-2.6582,0.0,0.0,0.0,0.0,0.0,0.0,0.0,0.0,0.0,0.0,0.0,0.0,0.0,0.0,0.0,0.0,0.0,0.0,0.0,0.0,0.0,0.0,0.0,0.0,0.0,0.0,0.0,0.0,0.0,0.0,0.0,0.0,0.0,0.0,0.0,0.0,0.0,0.0,0.0,0.0,0.0,0.0,0.0,0.0,0.0,0.0,0.0,0.0,0.0,0.0,0.0,0.0,0.0,0.0,0.0,0.0,0.0,0.0,0.0,0.0,0.0,0.0,0.0,0.0,0.0,0.0,0.0,0.0,0.0,0.0,0.0,0.0,0.0,0.0,0.0,0.0,0.0,0.0,0.0,0.0,0.0,0.0,0.0,0.0,0.0,0.0,0.0,0.0,0.0,0.0,0.0,0.0,0.0,0.0,0.0,0.0,0.0,0.0,0.0,0.0,0.0,0.0,0.0,-2.3082,-2.3533,-2.4007,-2.4244,-2.5349,-2.6379,-2.6961,-2.7442,-2.7425,-2.6641,0.0,0.0,0.0,0.0,0.0,0.0,0.0,0.0,0.0,0.0,0.0,0.0,0.0,0.0,0.0,0.0,0.0,0.0,0.0,0.0,0.0,0.0,0.0,0.0,0.0,0.0,0.0,0.0,0.0,0.0,0.0,0.0,0.0,0.0,0.0,0.0,0.0,0.0,0.0,0.0,0.0,0.0,0.0,0.0,0.0,0.0,0.0,0.0,0.0,0.0,0.0,0.0,0.0,0.0,0.0,0.0,0.0,0.0,0.0,0.0,0.0,0.0,0.0,0.0,0.0,0.0,0.0,0.0,0.0,0.0,0.0,0.0,0.0,0.0,0.0,0.0,0.0,0.0,0.0,0.0,0.0,0.0,0.0,0.0,0.0,0.0,0.0,0.0,0.0,0.0,0.0,0.0,0.0,0.0,0.0,0.0,0.0,0.0,0.0,0.0,0.0,0.0,-2.3925,-2.4526,-2.5112,-2.5452,-2.6399,-2.7037,-2.7264,-2.7593,-2.7236,-2.5937,0.0,0.0,0.0,0.0,0.0,0.0,0.0,0.0,0.0,0.0,0.0,0.0,0.0,0.0,0.0,0.0,0.0,0.0,0.0,0.0,0.0,0.0,0.0,0.0,0.0,0.0,0.0,0.0,0.0,0.0,0.0,0.0,0.0,0.0,0.0,0.0,0.0,0.0,0.0,0.0,0.0,0.0,0.0,0.0,0.0,0.0,0.0,0.0,0.0,0.0,0.0,0.0,0.0,0.0,0.0,0.0,0.0,0.0,0.0,0.0,0.0,0.0,0.0,0.0,0.0,0.0,0.0,0.0,0.0,0.0,0.0,0.0,0.0,0.0,0.0,0.0,0.0,0.0,0.0,0.0,0.0,0.0,0.0,0.0,0.0,0.0,0.0,0.0,0.0,0.0,0.0,0.0,0.0,0.0,0.0,0.0,0.0,0.0,0.0,0.0,0.0,0.0,-2.366,-2.4778,-2.5817,-2.6479,-2.7179,-2.766,-2.766,-2.7236,-2.6465,-2.5194,0.0,0.0,0.0,0.0,0.0,0.0,0.0,0.0,0.0,0.0,0.0,0.0,0.0,0.0,0.0,0.0,0.0,0.0,0.0,0.0,0.0,0.0,0.0,0.0,0.0,0.0,0.0,0.0,0.0,0.0,0.0,0.0,0.0,0.0,0.0,0.0,0.0,0.0,0.0,0.0,0.0,0.0,0.0,0.0,0.0,0.0,0.0,0.0,0.0,0.0,0.0,0.0,0.0,0.0,0.0,0.0,0.0,0.0,0.0,0.0,-1.7688,0.0,0.0,0.0,0.0,0.0,0.0,0.0,0.0,0.0,0.0,0.0,0.0,0.0,0.0,0.0,0.0,0.0,0.0,0.0,0.0,0.0,0.0,0.0,0.0,0.0,0.0,0.0,0.0,0.0,0.0,0.0,0.0,0.0,0.0,0.0,0.0,0.0,0.0,0.0,0.0,0.0,-2.4756,-2.5879,-2.6695,-2.6852,-2.7053,-2.7148,-2.7148,-2.707,-2.6465,-2.5194,-2.5116,0.0,0.0,0.0,0.0,0.0,0.0,0.0,0.0,0.0,0.0,0.0,0.0,0.0,0.0,0.0,0.0,0.0,0.0,0.0,0.0,0.0,0.0,0.0,0.0,0.0,0.0,0.0,0.0,0.0,0.0,0.0,0.0,0.0,0.0,0.0,0.0,0.0,0.0,0.0,0.0,0.0,0.0,0.0,0.0,0.0,0.0,0.0,0.0,0.0,0.0,0.0,0.0,0.0,0.0,0.0,0.0,0.0,0.0,0.0,0.0,-1.8657,0.0,0.0,0.0,0.0,0.0,0.0,0.0,0.0,0.0,0.0,0.0,0.0,0.0,0.0,0.0,0.0,0.0,0.0,0.0,0.0,0.0,0.0,0.0,0.0,0.0,0.0,0.0,0.0,0.0,0.0,0.0,0.0,0.0,0.0,0.0,0.0,0.0,0.0,0.0,0.0,-2.5086,-2.6025,-2.6797,-2.6992,-2.6836,-2.6709,-2.6709,-2.6523,-2.6016,-2.5174,-2.4724,0.0,0.0,0.0,0.0,0.0,0.0,0.0,0.0,0.0,0.0,0.0,0.0,0.0,0.0,0.0,0.0,0.0,0.0,0.0,0.0,0.0,0.0,0.0,0.0,0.0,0.0,0.0,0.0,0.0,0.0,0.0,0.0,0.0,0.0,0.0,0.0,0.0,0.0,0.0,0.0,0.0,0.0,0.0,0.0,0.0,0.0,0.0,0.0,0.0,0.0,0.0,0.0,0.0,-1.6343,-1.6387,-1.6194,-1.658,-1.6575,-1.6196,-1.7031,-1.7896,-1.89,-2.1026,0.0,0.0,0.0,0.0,0.0,0.0,0.0,0.0,0.0,0.0,0.0,0.0,0.0,0.0,0.0,0.0,0.0,0.0,0.0,0.0,0.0,0.0,0.0,0.0,-2.4141,-2.4191,-2.3862,0.0,0.0,0.0,0.0,0.0,0.0,0.0,0.0,0.0,0.0,0.0,-2.4912,-2.5723,-2.6406,-2.6758,-2.6484,-2.6279,-2.6279,-2.5947,-2.5547,-2.5145,-2.4404,-2.375,0.0,0.0,0.0,0.0,0.0,0.0,0.0,0.0,0.0,0.0,0.0,0.0,0.0,0.0,0.0,0.0,0.0,0.0,0.0,0.0,0.0,0.0,0.0,0.0,0.0,0.0,0.0,0.0,0.0,0.0,0.0,0.0,-1.5219,-1.3846,0.0,0.0,0.0,0.0,0.0,0.0,0.0,0.0,0.0,0.0,0.0,0.0,0.0,-1.5463,-1.5499,-1.6181,-1.6551,-1.6612,-1.7098,-1.7349,-1.7285,-1.7097,-1.7155,-1.7279,-1.7158,0.0,-1.865,-2.094,0.0,0.0,0.0,0.0,0.0,0.0,0.0,0.0,0.0,0.0,0.0,0.0,0.0,0.0,0.0,0.0,0.0,0.0,0.0,0.0,0.0,0.0,-2.4555,-2.4251,-2.4177,-2.4208,0.0,-2.3887,-2.3587,-2.3133,-2.3047,0.0,0.0,0.0,0.0,0.0,0.0,0.0,-2.4492,-2.5226,-2.5791,-2.5849,-2.5801,-2.5771,-2.5771,-2.5723,-2.5547,-2.5145,-2.5008,-2.4421,-2.3257,-2.3037,0.0,0.0,0.0,0.0,0.0,0.0,0.0,0.0,0.0,0.0,0.0,0.0,0.0,0.0,0.0,0.0,0.0,0.0,0.0,0.0,0.0,0.0,0.0,0.0,0.0,0.0,0.0,0.0,0.0,-1.4792,-1.4048,-1.318,-1.3314,-1.3413,0.0,0.0,0.0,0.0,0.0,0.0,0.0,0.0,0.0,-1.4594,-1.5482,-1.6085,-1.6392,-1.6742,-1.7001,-1.7159,-1.7383,-1.7485,-1.7485,-1.7355,-1.7322,-1.7291,-1.7165,-1.7293,-1.7799,-1.9787,-2.0984,-2.1699,0.0,0.0,0.0,0.0,-2.3602,-2.3224,-2.373,-2.3629,-2.327,-2.3435,0.0,0.0,0.0,0.0,0.0,0.0,0.0,0.0,0.0,0.0,-2.4161,-2.4436,-2.4376,-2.4137,-2.3859,-2.3682,-2.3568,0.0,-2.3533,-2.3364,-2.2986,0.0,0.0,0.0,0.0,-2.388,-2.4062,-2.4609,-2.4953,-2.4953,-2.5215,-2.5361,-2.5361,-2.5596,-2.5606,-2.5459,-2.5205,-2.4861,-2.4304,-2.3535,-2.2891,0.0,0.0,0.0,0.0,0.0,0.0,0.0,0.0,0.0,0.0,0.0,0.0,0.0,0.0,0.0,0.0,0.0,0.0,0.0,0.0,0.0,0.0,0.0,0.0,0.0,0.0,0.0,0.0,-1.3944,-1.3237,-1.2499,-1.2616,-1.2649,0.0,0.0,0.0,0.0,0.0,0.0,-1.2325,-1.3377,-1.4094,-1.4342,-1.5739,-1.6682,-1.7086,-1.7159,-1.7286,-1.7414,-1.7479,-1.742,-1.7285,-1.7355,-1.7259,-1.7005,-1.6987,-1.7029,-1.7201,-1.8941,-1.9998,-2.0696,-2.257,-2.339,-2.3588,-2.4245,-2.4024,-2.3471,-2.4275,-2.4125,-2.3721,-2.3822,-2.3663,-2.338,-2.2776,0.0,0.0,0.0,0.0,-2.3224,-2.4018,-2.3923,-2.3822,-2.4345,-2.4225,-2.3886,-2.3435,-2.3343,-2.3363,0.0,-2.3473,-2.3345,-2.2838,0.0,0.0,0.0,0.0,-2.3509,-2.3789,-2.415,-2.4414,-2.4414,-2.4707,-2.4988,-2.5106,-2.5371,-2.5567,-2.5684,-2.543,-2.5233,-2.5116,-2.4053,-2.3433,-2.3208,0.0,0.0,0.0,0.0,0.0,0.0,0.0,0.0,0.0,0.0,0.0,0.0,0.0,0.0,0.0,0.0,0.0,0.0,0.0,0.0,0.0,0.0,0.0,0.0,0.0,0.0,0.0,0.0,0.0,-1.1472,-1.1685,0.0,0.0,0.0,0.0,-1.0462,-1.1168,-1.1678,-1.1824,-1.3571,-1.4645,-1.4775,-1.628,-1.7062,-1.7092,-1.734,-1.7337,-1.7097,-1.7355,-1.722,-1.6768,-1.7026,-1.694,-1.6732,-1.67,-1.6863,-1.7258,-1.9047,-1.9759,-1.9948,-2.298,-2.3905,-2.372,-2.4925,-2.5041,-2.4748,-2.517,-2.4836,-2.4238,-2.4592,-2.418,-2.3489,-2.3444,-2.3169,0.0,0.0,-2.3444,-2.3563,-2.4091,-2.4183,-2.4082,-2.3636,-2.3535,-2.3416,-2.3023,-2.294,-2.2821,0.0,-2.2392,-2.2345,-2.2154,0.0,-2.2293,-2.2715,-2.315,-2.3509,-2.3789,-2.415,-2.4414,-2.4414,-2.4434,-2.4619,-2.5077,-2.5135,-2.5283,-2.5664,-2.5664,-2.5518,-2.5135,-2.4609,-2.3975,-2.3227,-2.2715,0.0,0.0,0.0,0.0,0.0,0.0,0.0,0.0,0.0,0.0,0.0,0.0,0.0,0.0,0.0,0.0,0.0,0.0,0.0,0.0,0.0,0.0,0.0,0.0,0.0,0.0,0.0,0.0,-1.036,-1.0664,0.0,-1.0011,-0.9626,-0.961,-0.9989,-0.9879,-0.995,-1.0341,-1.2597,-1.3849,-1.3871,-1.6147,-1.734,-1.734,-1.7436,-1.7355,-1.7091,-1.722,-1.7032,-1.6686,-1.6773,-1.6716,-1.6465,-1.6448,-1.6513,-1.6659,-1.7708,-1.8718,-1.9836,-2.1875,-2.3095,-2.3754,-2.4936,-2.5176,-2.4803,-2.4941,-2.467,-2.4229,-2.4376,-2.3996,-2.3499,-2.3499,-2.3398,-2.3316,-2.3453,-2.373,-2.3969,-2.4165,-2.396,-2.373,-2.3526,-2.3297,-2.3004,-2.2593,-2.2501,-2.2382,-2.198,-2.2327,-2.2602,-2.2281,-2.2207,-2.226,-2.2356,-2.2574,-2.2837,-2.3113,-2.3372,-2.3549,-2.3549,-2.3848,-2.4072,-2.4228,-2.4492,-2.4717,-2.4826,-2.4836,-2.4814,-2.4658,-2.4238,-2.3867,-2.3574,-2.2871,-2.2227,0.0,0.0,0.0,0.0,0.0,0.0,0.0,0.0,0.0,0.0,0.0,0.0,0.0,0.0,0.0,0.0,0.0,0.0,0.0,0.0,0.0,0.0,0.0,0.0,0.0,-1.0411,-0.9852,-0.9333,-0.9514,-0.9553,-0.9022,-0.8588,-0.8507,-0.893,-0.8732,-0.8777,-0.9222,-1.1483,-1.2791,-1.2804,-1.5429,-1.6832,-1.6844,-1.7185,-1.722,-1.6962,-1.699,-1.6759,-1.6421,-1.6514,-1.6421,-1.6182,-1.6182,-1.6277,-1.6453,-1.6845,-1.7911,-1.9373,-2.0872,-2.2245,-2.3532,-2.4738,-2.5113,-2.4941,-2.4666,-2.444,-2.4202,-2.4202,-2.3969,-2.3749,-2.3749,-2.3749,-2.3749,-2.3749,-2.3941,-2.4165,-2.3978,-2.3749,-2.3425,-2.3151,-2.2885,-2.2584,-2.2172,-2.208,-2.1998,-2.1742,-2.2126,-2.241,-2.2126,-2.208,-2.2124,-2.2178,-2.2309,-2.253,-2.2838,-2.3013,-2.3091,-2.3091,-2.3398,-2.3633,-2.3779,-2.4043,-2.4268,-2.4404,-2.4287,-2.4209,-2.4209,-2.3662,-2.3359,-2.3359,-2.2519,-2.1943,-2.167,0.0,0.0,0.0,0.0,0.0,0.0,0.0,0.0,0.0,0.0,0.0,0.0,0.0,0.0,0.0,0.0,0.0,0.0,0.0,0.0,0.0,0.0,0.0,-0.9359,-0.9758,-0.9466,-0.831,-0.8387,-0.8117,-0.7086,-0.6991,-0.7035,-0.7202,-0.7892,-0.8365,-0.8494,-1.0387,-1.1561,-1.1687,-1.4262,-1.5591,-1.5564,-1.6585,-1.6962,-1.6692,-1.6704,-1.6421,-1.5891,-1.6182,-1.6129,-1.5891,-1.5891,-1.6193,-1.6688,-1.67,-1.7344,-1.8519,-2.0056,-2.1658,-2.3143,-2.4317,-2.5057,-2.5286,-2.4486,-2.4202,-2.4202,-2.4202,-2.4202,-2.4202,-2.4183,-2.4192,-2.4202,-2.4183,-2.4183,-2.4091,-2.3599,-2.3471,-2.3261,-2.2474,-2.2272,-2.2153,-2.1769,-2.1696,-2.1696,-2.1696,-2.1696,-2.1696,-2.1696,-2.1696,-2.1865,-2.2309,-2.2397,0.0,-2.3003,-2.3057,-2.3091,-2.3101,-2.3101,-2.3266,-2.374,-2.3769,-2.3935,-2.4336,-2.3975,-2.374,-2.373,-2.293,-2.249,-2.249,-2.1629,-2.119,-2.119,0.0,0.0,0.0,0.0,0.0,0.0,0.0,0.0,0.0,0.0,0.0,0.0,0.0,0.0,0.0,0.0,0.0,0.0,0.0,0.0,0.0,-0.7956,-0.7811,-0.8343,-0.7901,-0.747,-0.7209,-0.7334,-0.7354,-0.715,-0.7163,-0.7177,-0.7207,-0.766,-0.8073,-0.8494,-1.0211,-1.1387,-1.1683,-1.4262,-1.5521,-1.5304,-1.6514,-1.6897,-1.6434,-1.6398,-1.6242,-1.5891,-1.6004,-1.5951,-1.5891,-1.5891,-1.6079,-1.641,-1.6616,-1.7239,-1.825,-1.975,-2.143,-2.3111,-2.4014,-2.4597,-2.4867,-2.4385,-2.4202,-2.4202,-2.4202,-2.4202,-2.4146,-2.3804,-2.3923,-2.4137,-2.3794,-2.3712,-2.3636,-2.3526,-2.3059,-2.2556,-2.2327,-2.2062,-2.1824,-2.1714,-2.1696,-2.1696,-2.1696,-2.1696,-2.1696,-2.1696,-2.1696,-2.1731,-2.1865,-2.2052,0.0,-2.2353,-2.2485,-2.2662,-2.2838,-2.2882,-2.2974,-2.3266,-2.3276,-2.3242,-2.3047,-2.293,-2.2734,-2.2422,-2.2187,-2.206,-2.206,-2.1514,-2.119,0.0,0.0,0.0,0.0,0.0,0.0,0.0,0.0,0.0,0.0,0.0,0.0,0.0,0.0,0.0,0.0,0.0,0.0,0.0,0.0,0.0,0.0,-0.7321,-0.718,-0.731,-0.6846,-0.6605,-0.6782,-0.6866,-0.6972,-0.7193,-0.721,-0.721,-0.721,-0.7548,-0.8015,-0.8494,-0.9631,-1.0733,-1.1687,-1.3186,-1.4391,-1.5173,-1.5801,-1.6218,-1.6304,-1.6187,-1.6064,-1.5891,-1.5891,-1.5891,-1.5891,-1.5891,-1.6103,-1.6471,-1.6634,-1.7134,0.0,0.0,0.0,0.0,0.0,-2.4582,-2.4721,-2.4349,-2.4202,-2.4174,-2.395,-2.3895,-2.3859,-2.3563,-2.3712,-2.3849,-2.3563,-2.3499,-2.3416,-2.3068,-2.2629,-2.2282,-2.2071,-2.1861,-2.1696,-2.1696,-2.1696,-2.1696,-2.1696,-2.1696,0.0,-2.1696,-2.1696,-2.1741,-2.1874,-2.2008,-2.2141,-2.222,-2.2441,-2.2618,-2.2803,-2.2882,-2.2969,-2.3101,-2.3091,0.0,0.0,0.0,-2.1973,-2.1398,-2.1378,0.0,0.0,0.0,0.0,0.0,0.0,0.0,0.0,-2.085,-2.0879,0.0,0.0,0.0,0.0,0.0,0.0,0.0,0.0,0.0,0.0,0.0,0.0,0.0,0.0,0.0,0.0,-0.6857,-0.6323,-0.6373,-0.6398,-0.6492,-0.6774,-0.6801,-0.6896,-0.7188,-0.721,-0.721,-0.721,-0.7534,-0.7995,-0.8472,0.0,0.0,0.0,0.0,-1.2753,-1.4919,-1.4823,-1.5275,-1.6242,-1.6004,-1.5891,-1.5891,-1.5891,-1.5891,-1.5891,-1.5922,-1.6223,-1.67,-1.67,-1.7059,-1.7634,-1.8275,-2.0111,-2.2461,-2.4025,-2.4646,-2.4656,-2.433,0.0,0.0,-2.3657,-2.3462,-2.3425,-2.3425,-2.3425,-2.3425,-2.3425,-2.3398,-2.3197,-2.2474,-2.2245,-2.2126,-2.1778,-2.1696,-2.1696,-2.1696,-2.1696,-2.1696,-2.1696,-2.1696,-2.1696,-2.1696,-2.1696,-2.1785,-2.2008,-2.2052,-2.2122,-2.2287,-2.2545,-2.274,-2.2736,0.0,0.0,-2.3023,-2.3023,-2.2828,-2.2393,-2.1973,-2.1427,-2.0635,-2.0605,-2.0605,-2.0605,-2.0605,-2.0605,-2.0605,-2.0605,-2.0605,-2.0605,-2.0605,-2.0635,0.0,0.0,0.0,0.0,0.0,0.0,0.0,0.0,0.0,0.0,0.0,0.0,0.0,0.0,0.0,-0.6677,-0.6443,-0.6363,-0.6384,-0.647,-0.6638,-0.6785,-0.6801,-0.6896,-0.7188,-0.721,-0.721,-0.721,-0.7457,-0.7865,-0.834,-0.8657,-0.919,-0.9996,-1.1003,-1.2148,-1.3306,-1.4313,-1.5215,-1.6004,0.0,0.0,-1.5891,-1.5891,-1.5891,-1.5903,-1.6115,-1.6392,-1.67,-1.67,-1.6949,-1.7441,-1.898,-2.0397,-2.169,-2.2979,-2.3821,-2.4312,-2.4229,-2.3932,-2.3599,-2.3526,-2.3279,-2.3023,-2.3023,-2.3023,0.0,-2.3023,-2.2776,-2.2483,-2.2318,-2.2044,-2.1787,-2.1705,-2.1696,-2.1696,-2.1696,-2.1696,-2.1696,-2.1696,-2.1696,-2.1696,-2.1696,-2.1696,-2.1741,-2.1785,-2.1785,-2.1754,-2.1596,-2.1979,-2.2284,-2.2299,-2.2645,-2.279,-2.2623,-2.2637,-2.2262,-2.1492,-2.1064,-2.0781,-2.0615,-2.0605,-2.0605,-2.0605,-2.0605,-2.0605,-2.0605,-2.0605,-2.0605,-2.0605,-2.0605,-2.0762,0.0,0.0,0.0,0.0,0.0,0.0,0.0,0.0,0.0,0.0,0.0,-0.8565,-0.7742,0.0,-0.6789,-0.6432,-0.6399,-0.6387,-0.6387,-0.6438,-0.6594,-0.6779,-0.6858,-0.6961,-0.7193,-0.721,-0.7265,-0.7379,-0.7549,-0.7885,-0.847,-0.8647,-0.9289,-1.0535,-1.1189,-1.2247,-1.3816,-1.4458,-1.5183,-1.5891,-1.5891,-1.5891,-1.5891,-1.5891,-1.5964,-1.6091,-1.6223,-1.6441,-1.6676,-1.6404,-1.6563,-1.7089,-1.8422,-1.9821,-2.1257,-2.2399,-2.3397,-2.4202,-2.4202,-2.3886,-2.3462,-2.327,-2.2922,-2.2593,-2.2593,-2.2593,-2.2593,-2.2593,-2.2446,-2.2236,-2.2034,-2.1842,-2.1696,-2.1696,-2.1696,-2.1696,-2.1696,-2.1696,-2.1632,-2.1421,-2.142,-2.1355,-2.1119,-2.1083,-2.1147,-2.1392,-2.1211,-2.117,-2.1429,-2.1558,-2.1773,-2.2135,-2.2306,-2.2304,-2.2217,-2.2002,-2.1648,-2.122,-2.081,-2.0605,-2.0605,-2.0605,-2.0605,-2.0605,-2.0605,-2.0605,-2.0605,-2.0605,-2.0605,-2.0605,-2.0605,-2.0723,0.0,0.0,0.0,0.0,0.0,0.0,0.0,-1.0447,-0.9804,-0.9423,-0.8412,-0.7545,-0.7359,-0.6783,-0.6374,-0.6515,-0.6537,-0.6487,-0.6487,-0.6458,-0.6554,-0.6777,-0.6891,-0.7005,-0.7196,-0.7265,-0.7379,-0.7607,-0.7718,-0.8038,-0.8655,-0.8718,-0.946,-1.1016,-1.1028,-1.2116,-1.4354,-1.4354,-1.4871,-1.5891,-1.5891,-1.5891,-1.5891,-1.594,-1.6054,-1.6205,-1.6205,-1.6362,-1.6579,-1.6091,-1.6205,-1.6711,-1.7457,-1.8949,-2.0828,-2.1954,-2.3167,-2.4183,-2.4027,-2.3703,-2.3316,-2.2913,-2.2501,-2.2181,-2.2254,-2.2272,-2.2181,-2.2254,-2.2227,-2.2089,-2.1769,-2.1696,-2.1696,-2.1696,-2.1696,-2.1696,-2.1696,-2.1632,-2.1476,-2.1172,-2.1044,-2.0897,-2.0576,-2.0457,-2.0539,-2.0934,-2.0723,-2.0688,-2.1193,-2.1207,-2.1412,-2.1899,-2.1916,-2.1846,-2.1768,-2.1357,-2.1064,-2.1064,-2.0762,-2.0605,-2.0605,-2.0605,-2.0605,-2.0605,-2.0605,-2.0605,-2.0605,-2.0605,-2.0605,-2.0605,-2.0605,-2.0644,-1.4721,-1.3234,-1.19,-1.1204,-1.1051,-1.091,0.0,-0.9995,-0.9426,-0.7767,-0.7272,-0.7072,-0.6692,-0.6517,-0.6607,-0.7047,-0.6889,-0.6742,-0.6742,-0.6636,-0.6649,-0.6785,-0.6815,-0.691,-0.7188,-0.7438,-0.7551,-0.7607,-0.81,-0.8439,-0.8507,-0.8739,-0.9035,-0.9425,-0.9486,-1.0545,-1.2823,-1.2847,-1.3889,-1.5891,-1.5891,-1.5891,-1.5897,-1.6133,-1.6127,-1.5934,-1.5934,-1.6085,-1.6308,-1.6012,-1.6105,-1.6371,-1.6698,-1.8102,-2.0089,-2.147,-2.2929,-2.4101,-2.3288,-2.3014,-2.2904,-2.2483,-2.208,-2.1824,-2.2172,-2.2034,-2.1833,-2.2181,-2.2025,-2.1751,-2.1705,-2.1696,-2.1696,-2.1696,-2.1696,-2.1696,-2.1696,-2.1403,-2.1163,-2.1117,-2.0824,-2.0525,-2.0521,-2.0186,-2.0085,-2.0521,-2.0549,-2.0444,-2.0378,-2.0859,-2.1142,-2.1063,-2.1547,-2.1728,-2.1298,-2.0898,-2.0674,-2.0674,-2.0635,-2.0605,-2.0605,-2.0605,-2.0605,-2.0605,-2.0605,-2.0605,-2.0605,-2.0605,-2.0605,-2.0605,-2.0605,-2.0781,-1.3324,-1.1789,-1.0601,-1.0565,-1.0517,-1.0489,-1.0547,-0.9898,-0.9109,-0.8321,-0.741,-0.6747,-0.6676,-0.6822,-0.6957,-0.717,-0.7089,-0.7039,-0.7039,-0.6986,-0.7017,-0.7148,-0.7232,-0.7327,-0.7412,-0.7549,-0.7773,-0.81,-0.8374,-0.8543,-0.8712,-0.8826,-0.9005,-0.9204,-0.9942,-1.106,-1.2562,-1.3351,-1.4456,-1.5891,-1.5891,-1.5891,-1.5891,-1.6006,-1.6072,-1.6109,-1.5958,-1.5867,-1.5819,-1.5704,-1.5833,-1.6208,-1.6901,-1.8383,-2.0137,-2.0735,-2.2008,-2.3409,-2.3023,-2.2748,-2.251,-2.2336,-2.2016,-2.1723,-2.1888,-2.1824,-2.1723,-2.1888,-2.1824,-2.1696,-2.1696,-2.1696,-2.1696,-2.1696,-2.1696,-2.1623,-2.142,-2.1236,-2.097,-2.047,-2.0292,-2.0099,-1.9852,-1.9677,-1.9622,-1.9787,-1.9806,-1.9915,-2.0201,-2.0276,-2.0325,-2.0543,-2.0926,-2.1045,-2.0859,-2.0713,-2.0605,-2.0605,-2.0605,-2.0605,-2.0605,-2.0605,-2.0605,-2.0605,-2.0605,-2.0605,-2.0605,-2.0605,-2.0605,-2.0605,-2.0605,-2.0703,-1.2107,-1.0679,-0.9597,-0.9958,-0.9805,-0.9636,-0.9932,-0.925,-0.8467,-0.821,-0.7312,-0.6605,-0.6879,-0.7124,-0.7294,-0.7381,-0.7338,-0.7291,-0.7291,-0.7238,-0.7252,-0.7428,-0.7537,-0.7648,-0.7858,-0.7826,-0.8045,-0.8484,-0.8543,-0.8712,-0.8881,-0.8885,-0.8988,-0.9089,-0.9988,-1.1154,-1.2534,-1.3532,-1.4652,-1.5891,-1.5891,-1.5849,-1.5777,-1.5704,-1.5855,-1.6151,-1.5819,-1.565,-1.5602,-1.5529,-1.5743,-1.6138,-1.6891,-1.8182,-1.964,-1.9893,-2.1235,-2.2876,-2.2648,-2.2446,-2.2263,-2.2153,-2.1925,-2.1696,-2.1696,-2.1696,-2.1696,-2.1696,-2.1696,-2.1696,-2.1696,-2.1696,-2.1696,-2.1696,-2.1604,-2.1431,-2.1172,-2.0934,-2.0613,-2.0003,-1.9793,-1.9659,-1.9356,-1.9301,-1.9301,-1.9301,-1.9301,-1.9491,-1.9966,-1.9823,-1.9872,-2.0342,-2.0489,-2.0605,-2.0605,-2.0605,-2.0605,-2.0605,-2.0605,-2.0605,-2.0605,-2.0605,-2.0546,-2.0429,-2.0429,-2.0429,-2.0429,-2.0429,-2.0488,-2.0605,-2.0605,-2.0605,-1.1316,-1.0061,-0.8846,-0.9296,-0.8788,-0.8037,-0.7614,-0.7575,-0.7396,-0.6457,-0.65,-0.6774,-0.7142,-0.7337,-0.7579,-0.7918,-0.7743,-0.7596,-0.7596,-0.7341,-0.7288,-0.7558,-0.7592,-0.7805,-0.8404,-0.8484,-0.8484,-0.8484,-0.8768,-0.8881,-0.8885,-0.8885,-0.8885,-0.8892,-0.8944,-1.0088,-1.2372,-1.2427,-1.3614,-1.5891,-1.5891,-1.5759,-1.5499,-1.5246,-1.5415,-1.5873,-1.5354,-1.5415,-1.5855,-1.5602,-1.5801,-1.6274,-1.6308,-1.6947,-1.7994,-1.8881,-2.0796,-2.2794,-2.2007,-2.197,-2.2263,-2.1833,-2.1705,-2.1696,-2.1696,-2.1696,-2.1696,-2.1696,-2.1696,-2.1696,-2.1696,-2.1696,-2.1696,-2.1696,-2.142,-2.1117,-2.1108,-2.0512,-1.9921,-1.9893,-1.9604,-1.932,-1.9301,-1.9301,-1.9301,-1.9301,-1.9301,-1.9311,-1.932,-1.9666,-2.0059,-2.0527,-2.0605,-2.0605,-2.0605,-2.0605,-2.0605,-2.0605,-2.0605,-2.0605,-2.0605,-2.0605,-2.04,-1.9941,-1.9932,-1.9932,-1.9932,-1.9932,-2.0156,-2.0605,-2.0605,-2.0605,-1.0492,-0.9443,-0.8602,-0.9012,-0.8655,-0.8104,-0.793,-0.7857,-0.7727,-0.7218,-0.6982,-0.7007,-0.7379,-0.7573,-0.7764,-0.7965,-0.7942,-0.7842,-0.7842,-0.7925,-0.7973,-0.8075,-0.82,-0.8407,-0.8611,-0.854,0.0,-0.8768,-0.8826,-0.8885,-0.8885,-0.8885,-0.8885,-0.8885,-0.8885,-1.0029,-1.2363,-1.2417,-1.3555,-1.5885,-1.5716,-1.5584,-1.5481,-1.5046,-1.5228,-1.5861,-1.5336,-1.5306,-1.5638,-1.5722,-1.5759,-1.5766,-1.5979,-1.678,-1.781,-1.7908,-1.942,-2.1456,-2.1645,-2.1778,-2.187,-2.1733,-2.1696,-2.1696,-2.1696,-2.1696,-2.1696,-2.1696,-2.1696,-2.1696,-2.1696,-2.1485,-2.1319,-2.1319,-2.1007,-2.0649,-2.0342,-2.0076,-1.9802,-1.9567,-1.9402,-1.9301,-1.9301,-1.9301,-1.9301,-1.9301,-1.9429,-1.9518,-1.9518,-1.9912,-2.0225,-2.0372,-2.0236,-2.0137,-2.0137,-1.9873,-1.9834,-2.0117,-2.0137,-2.0264,-2.0595,-2.0605,-2.0537,-2.039,-2.0342,-2.0205,-1.9912,-1.9912,-1.999,-2.0137,-2.0137,-2.0283,-0.9576,-0.8546,-0.7697,-0.8134,-0.7764,-0.73,-0.7473,-0.7518,-0.7486,-0.7378,-0.7252,-0.7237,-0.7526,-0.7716,-0.7862,-0.7965,-0.7988,-0.8008,-0.8113,-0.8208,-0.8361,-0.8414,-0.8594,-0.873,-0.8784,-0.8711,-0.8712,-0.8881,-0.8885,-0.8885,-0.8885,-0.8885,-0.8885,-0.8885,-0.8885,-1.0029,-1.2363,-1.2288,-1.3395,-1.5608,-1.5348,-1.527,-1.5348,-1.4914,-1.5095,-1.5728,-1.5396,-1.5342,-1.5511,-1.568,-1.5597,-1.5398,-1.5651,-1.647,-1.7498,-1.7768,-1.8987,-2.062,-2.1032,-2.141,-2.1696,-2.1696,-2.1696,-2.1696,-2.1696,-2.1696,-2.1696,-2.1696,-2.1696,-2.1659,-2.1504,-2.131,-2.1071,-2.0934,-2.0594,-2.0195,-1.9948,-1.9774,-1.9622,-1.9356,-1.9301,-1.9301,-1.9301,-1.9301,-1.9301,-1.9301,-1.9349,-1.9468,-1.9696,-1.999,-2.0216,-2.0381,-2.0099,-1.998,-2.0137,-1.9756,-1.9697,-2.0117,-2.0146,-2.0273,-2.0595,-2.0605,-2.0537,-2.0332,-2.0332,-2.0195,-1.9912,-1.9766,-1.9853,-2.0146,-1.999,-2.0146,-0.8742,-0.7544,-0.6433,-0.6822,-0.6289,-0.5827,-0.6361,-0.659,-0.6746,-0.6856,-0.716,-0.7407,-0.757,-0.7716,-0.7865,-0.7975,-0.8008,-0.8113,-0.8262,-0.834,-0.8397,-0.8676,-0.8716,-0.8777,-0.8868,-0.8885,-0.8878,-0.8871,0.0,-0.8885,-0.8885,-0.8875,-0.8871,-0.8871,-0.8865,-1.0006,-1.2344,-1.2263,-1.3158,-1.5107,-1.4859,-1.4871,-1.5119,-1.4859,-1.5022,-1.5517,-1.5487,-1.5487,-1.5499,-1.5487,-1.5324,-1.5089,-1.5374,-1.6041,-1.6994,-1.8261,-1.9346,-2.0229,-2.0303,-2.0898,-2.1696,-2.1696,-2.1696,-2.1696,-2.1696,-2.1696,-2.1696,-2.1696,-2.1696,-2.1595,-2.1218,-2.1089,-2.0979,-2.0543,-2.0149,-1.9857,-1.9857,-1.9586,-1.9301,-1.9301,-1.9301,-1.9301,-1.9301,-1.9301,-1.9292,-1.9274,-1.9099,-1.919,-1.9806,-1.9864,-2.0051,-2.0518,-2.0137,-2.0029,-2.0537,-2.0107,-2.0049,-2.0537,-2.0546,-2.0556,-2.0605,-2.0566,-2.0312,-1.9922,-1.9912,-1.9902,-1.9883,-1.9502,-1.9774,-2.0556,-2.0107,-2.0146,-0.9263,-0.8727,-0.8084,-0.733,-0.683,-0.656,-0.6517,-0.659,-0.6746,-0.6856,-0.7031,-0.7282,-0.755,-0.7716,-0.7899,-0.8167,-0.8299,-0.8384,-0.8421,-0.8526,-0.8625,-0.8703,-0.8811,-0.8841,-0.8878,-0.8885,-0.8838,0.0,-0.8817,-0.8885,-0.8885,-0.8828,-0.8767,-0.8767,-0.8659,-0.9758,-1.223,-1.383,-1.4786,-1.5107,-1.504,-1.5149,-1.539,-1.5125,-1.5294,-1.5771,-1.5378,-1.5318,-1.5481,-1.5288,-1.5052,-1.4817,-1.5103,-1.5449,-1.5989,-1.6994,-1.827,-1.955,-2.0115,-2.0898,-2.1696,-2.1696,-2.1696,-2.1696,-2.1696,-2.1696,-2.1696,-2.1696,-2.1696,-2.1595,-2.1218,-2.0888,-2.0567,-2.0131,-1.9769,-1.9467,-1.9467,-1.9375,-1.9301,-1.9301,-1.9301,-1.9301,-1.9301,-1.9301,-1.9201,-1.8907,-1.8942,-1.918,-1.9629,-1.9411,-1.9525,-2.0275,-1.9498,-1.9231,-2.0019,-1.9358,-1.9241,-2.0029,-1.9785,-1.993,-2.0576,-1.9989,-1.9707,-1.9912,-1.9912,-1.9756,-1.9443,-1.9648,-1.9863,-2.0078,-1.9971,-2.0146,-0.8879,-0.8156,-0.7361,-0.6791,-0.6613,-0.6584,-0.6579,-0.6692,-0.6844,-0.6947,-0.7041,-0.7169,-0.7455,-0.7672,-0.7889,-0.813,-0.8347,-0.8506,-0.8574,-0.8655,-0.8733,-0.8804,-0.8831,-0.8885,-0.8885,-0.8885,-0.8821,-0.8723,-0.8791,-0.8808,-0.8743,-0.8659,-0.8611,-0.8611,-0.8526,-0.9616,-1.2016,-1.433,-1.5366,-1.5107,-1.5107,-1.5246,-1.5493,-1.5348,-1.5439,-1.5698,0.0,-1.5234,-1.5143,-1.4998,-1.4775,-1.4533,-1.4674,-1.512,-1.5703,-1.6327,-1.7613,-1.9126,-1.9652,-2.0395,-2.122,-2.1577,-2.1568,-2.1449,-2.1632,-2.1696,-2.1696,-2.1696,-2.1559,-2.1321,-2.0952,-2.0558,-2.0154,-1.971,-1.9476,-1.9301,-1.9301,-1.9301,-1.9301,-1.9301,-1.9301,-1.9246,-1.9072,-1.9123,-1.9033,-1.8618,-1.8602,-1.8761,-1.9135,-1.9079,-1.9224,-1.981,-1.9117,-1.8948,-1.9844,-1.9095,-1.8968,-1.9826,-1.9521,-1.9502,-2.0018,-1.9717,-1.959,-1.9639,-2.001,-1.999,-1.9561,-1.9805,-2.0019,-2.0195,-2.0,-2.0146,-0.8356,-0.728,-0.6177,-0.6155,-0.6261,-0.6441,-0.6692,-0.6834,-0.6927,-0.7065,-0.7095,-0.7149,-0.737,-0.7628,-0.7875,-0.8015,-0.833,-0.8567,-0.872,-0.874,-0.8791,-0.8868,-0.8885,-0.8885,-0.8885,-0.8885,-0.8821,-0.8723,-0.871,-0.8645,-0.8489,-0.8465,-0.8445,-0.8425,-0.8598,-0.9692,-1.1751,-1.4057,-1.5194,-1.5161,-1.5161,-1.5294,-1.5553,-1.5517,-1.5499,-1.5493,-1.5421,-1.5137,-1.4714,-1.4678,-1.4515,-1.4298,-1.4298,-1.4851,-1.5688,-1.601,-1.7243,-1.8809,-1.9178,-1.9795,-2.0525,-2.1284,-2.1284,-2.1099,-2.1421,-2.1531,-2.154,-2.1595,-2.1312,-2.0952,-2.0613,-2.0186,-1.9783,-1.9402,-1.9301,-1.9301,-1.9301,-1.9301,-1.9283,-1.9228,-1.9219,-1.91,-1.8705,-1.8765,-1.874,-1.835,-1.8169,-1.8163,-1.8485,-1.8695,-1.8952,-1.9241,-1.8861,-1.8948,-1.9844,-1.9143,-1.9026,-1.9863,-1.9463,-1.9228,-1.9287,-1.9531,-1.9521,-1.9209,-2.0028,-2.0185,-1.9746,-1.9912,-2.0166,-2.0507,-2.0088,-2.0117,-0.9781,-0.9382,-0.8851,-0.7694,-0.7398,-0.7346,-0.695,-0.6866,-0.6927,-0.7065,-0.7095,-0.7183,-0.7509,-0.7699,-0.7943,-0.834,-0.8554,-0.8723,-0.8821,-0.8844,-0.8854,-0.8878,-0.8885,-0.8885,-0.8885,-0.8885,-0.8821,0.0,-0.871,-0.8645,-0.8489,-0.837,-0.8248,-0.8069,-0.9139,-1.037,-1.1635,-1.3134,-1.4373,-1.5433,-1.5433,-1.5565,-1.5813,-1.5596,-1.5499,-1.5475,-1.504,0.0,-1.4696,-1.4467,-1.434,-1.4298,-1.4298,-1.4555,-1.4988,-1.5853,-1.695,-1.8163,-1.9359,-1.9895,-2.0067,-2.0534,-2.0677,-2.064,-2.0714,-2.0732,-2.0796,-2.1126,-2.0924,-2.0604,-2.0539,-2.0186,-1.9783,-1.9402,-1.9301,-1.9301,-1.9301,-1.9301,-1.9201,-1.888,-1.8815,-1.8687,-1.8255,-1.8229,-1.8128,-1.7733,-1.7766,-1.7814,-1.7716,-1.7843,-1.8206,-1.8964,-1.8799,-1.8948,-1.9844,-1.9463,-1.9385,-1.9883,-1.9143,-1.8906,-1.9268,-1.8682,-1.8432,-1.8705,-1.9248,-1.9297,-1.8831,-1.9932,-2.0303,-2.0029,-1.9951,-1.9951,-1.0433,-1.0008,-0.9518,-0.8813,-0.8675,-0.8556,-0.7816,-0.7666,-0.7621,-0.717,-0.7095,-0.7142,-0.7287,-0.7607,-0.7882,-0.8096,-0.8391,-0.8645,-0.8798,-0.8818,-0.8849,-0.8875,-0.8885,-0.8885,-0.8885,-0.8885,-0.8842,-0.8608,-0.8665,-0.8611,-0.8384,-0.8231,-0.8116,-0.7992,-0.928,-1.0573,-1.18,-1.3049,-1.4382,-1.5698,-1.5698,-1.5698,-1.568,-1.5559,-1.5348,-1.5077,-1.4829,0.0,-1.4485,-1.4352,-1.4214,-1.4081,-1.3942,-1.3902,-1.3945,-1.4553,-1.5364,-1.6342,-1.7254,-1.8136,-1.8935,-1.9153,-1.9655,-2.0214,-2.0457,-2.0521,-2.0558,-2.075,-2.0521,-2.0177,-2.0177,-1.9907,-1.9549,-1.9347,-1.9301,-1.9301,-1.9301,-1.9301,-1.9182,-1.8788,-1.8715,-1.8513,-1.7899,-1.788,-1.7814,-1.7415,-1.757,-1.7713,-1.7617,-1.7759,-1.8017,-1.8443,-1.8368,-1.8529,-1.9163,-1.8867,-1.8799,-1.9192,-1.8617,-1.8408,-1.8613,-1.8437,-1.8393,-1.8598,-1.9277,-1.9404,-1.8984,-1.9814,-2.001,-1.959,-1.959,-1.959,-1.0972,-1.0495,-0.9974,-0.982,-0.9881,-0.9723,-0.8828,-0.8568,-0.8281,-0.7533,-0.7228,-0.7105,-0.7139,-0.7506,-0.7787,-0.7848,-0.8211,-0.8533,-0.8689,-0.8737,-0.8804,-0.8868,-0.8885,-0.8885,-0.8885,-0.8885,0.0,-0.8598,-0.8632,-0.8547,-0.8337,-0.8123,-0.7988,-0.7988,-0.9048,-1.0327,-1.1958,-1.3008,-1.4267,-1.5807,-1.5807,-1.5668,-1.5415,-1.5354,-1.5107,-1.4714,-1.4654,0.0,0.0,-1.4214,-1.4057,-1.3803,-1.3598,-1.3387,-1.3226,-1.3442,-1.4031,-1.4853,-1.5359,-1.6495,-1.7764,-1.8059,-1.8859,-1.9811,-2.0163,-2.0255,-2.0273,-2.0365,-2.0058,-1.9774,-1.9866,-1.9613,-1.9301,-1.9301,-1.9301,-1.9301,-1.9301,-1.9301,-1.9164,-1.8678,-1.8586,-1.833,-1.7513,-1.7554,-1.7558,-1.7257,-1.7476,-1.7681,-1.7706,-1.7852,-1.794,-1.8008,-1.8086,-1.8247,-1.8568,-1.8295,-1.8247,-1.8578,-1.8208,-1.8008,-1.8008,-1.8383,-1.8598,-1.8598,-1.9446,-1.9658,-1.915,-1.9658,-1.9648,-1.915,-1.915,-1.915,-1.1925,-1.176,-1.1531,-1.0927,-1.0794,-1.0605,-0.9895,-0.9091,-0.8456,-0.8412,-0.7709,-0.7139,-0.7322,-0.7499,-0.7706,-0.7924,-0.8279,-0.8533,-0.8689,-0.8828,-0.8868,-0.8881,-0.8885,-0.8885,-0.8885,-0.8885,-0.8871,-0.8844,-0.8652,-0.8435,-0.833,-0.8123,-0.7988,-0.7988,-0.8101,-0.94,-1.1958,-1.2132,-1.3293,-1.5535,-1.5535,-1.5396,-1.5137,-1.4896,-1.4763,-1.4702,-1.4443,-1.4183,0.0,-1.3942,-1.3791,-1.355,-1.3525,-1.3501,-1.3477,-1.3775,-1.4381,-1.5154,-1.5762,-1.634,-1.7,-1.8169,-1.8894,-1.9366,-1.9402,-1.9412,-1.9494,-1.9838,-1.9687,-1.9448,-1.9793,-1.9613,-1.9301,-1.9301,-1.9301,-1.9301,-1.9301,-1.9301,-1.9072,-1.8283,-1.8145,-1.788,-1.7101,-1.7128,-1.7248,-1.721,-1.7382,-1.7564,-1.7672,-1.7706,-1.7784,-1.7974,-1.8315,-1.8559,-1.8598,-1.8568,-1.8559,-1.8598,-1.8208,-1.8008,-1.8008,-1.8383,-1.8598,-1.8598,-1.9446,-1.9475,-1.8666,-1.9512,-1.9455,-1.8656,-1.8656,-1.8656,-1.2892,-1.2765,-1.2583,-1.2485,-1.2224,-1.1673,-1.0426,-0.9715,-0.9013,-0.7885,-0.736,-0.7142,-0.7343,-0.7495,-0.7665,-0.7868,-0.8079,-0.8299,-0.854,-0.8625,-0.873,-0.8861,-0.8885,-0.8885,-0.8885,0.0,-0.8844,-0.8808,-0.8438,-0.8231,-0.832,-0.8123,-0.7988,-0.7988,-0.813,-0.9391,-1.1958,-1.1902,-1.3096,-1.5493,-1.5342,-1.5125,-1.4871,-1.4769,-1.4624,-1.4449,-1.4177,-1.4002,0.0,-1.3737,-1.3513,-1.3278,-1.3278,-1.3175,-1.3068,-1.3467,-1.3782,-1.4242,-1.5262,-1.6095,-1.6886,-1.7892,-1.87,-1.9301,-1.9301,-1.9301,-1.9338,-1.9503,-1.943,-1.9338,-1.9503,-1.943,-1.9301,-1.9301,-1.9301,-1.9301,-1.9301,-1.9118,-1.8779,-1.8191,-1.788,-1.7568,-1.7,-1.6978,-1.7072,-1.7166,-1.7358,-1.7564,-1.7672,-1.7818,-1.7896,-1.7974,-1.812,-1.8227,-1.8227,-1.8227,-1.8227,-1.8227,-1.8105,-1.8008,-1.8008,-1.813,-1.8344,-1.8598,-1.9228,-1.9238,-1.8598,-1.9248,-1.9092,-1.8227,-1.8227,-1.8227,-1.3685,-1.3605,-1.3501,-1.3691,-1.334,-1.2651,-1.1501,-1.0739,-0.9879,-0.8273,-0.7746,-0.7551,-0.744,-0.7533,-0.7695,0.0,-0.8014,-0.8228,-0.8394,-0.8492,-0.8611,-0.8784,-0.8845,-0.8817,-0.8817,-0.8828,-0.8743,-0.8591,-0.8201,-0.8018,-0.813,-0.7991,-0.788,-0.7921,-0.8325,-0.9613,-1.1771,-1.1965,-1.3111,-1.5143,-1.504,-1.4811,-1.4479,-1.4558,-1.4443,-1.4171,-1.3984,0.0,0.0,-1.3477,-1.3242,-1.3,-1.3,-1.288,-1.2747,-1.3179,-1.3355,-1.3561,-1.4559,-1.5352,-1.609,-1.6944,-1.7634,-1.8238,-1.8767,-1.9094,-1.9301,-1.9301,-1.9301,-1.9301,-1.9301,-1.9301,-1.9301,-1.9301,-1.9301,-1.9301,-1.9301,-1.899,-1.8595,-1.8164,-1.7789,-1.7367,-1.6972,-1.6943,-1.7072,-1.7245,-1.7451,-1.7623,-1.775,-1.7896,-1.8008,-1.8008,-1.8008,-1.8008,-1.8008,-1.8008,-1.8008,-1.8008,-1.8008,-1.8008,-1.8008,-1.8091,-1.8295,-1.8598,-1.9062,-1.9072,-1.8598,-1.8945,-1.8721,-1.8008,-1.8008,-1.8086,-1.427,-1.4276,-1.427,-1.4276,-1.3881,-1.3498,-1.3454,-1.2322,-1.102,-1.0053,-0.9292,-0.8483,-0.7549,-0.7611,-0.7811,-0.7811,-0.8184,-0.8428,-0.8344,-0.8523,-0.8652,-0.8506,-0.8621,-0.8713,-0.8713,-0.8574,-0.8428,-0.8337,-0.7987,0.0,-0.7818,-0.7682,-0.7668,-0.7811,-0.8727,-0.9868,-1.1277,-1.2252,-1.3227,-1.4316,-1.4588,-1.4437,-1.3924,-1.4183,-1.4159,-1.3912,-1.3906,0.0,0.0,-1.3133,-1.2964,-1.2705,-1.2705,-1.2705,-1.2747,-1.3009,-1.3228,-1.344,-1.3652,-1.3913,-1.425,-1.5151,-1.5436,-1.576,-1.7472,-1.8607,-1.9301,-1.9301,-1.9301,-1.9301,-1.9301,-1.9301,-1.9301,-1.9301,-1.9301,-1.9301,-1.9301,-1.899,-1.8595,-1.8164,-1.7789,-1.7367,-1.6972,-1.7072,-1.7279,-1.747,-1.7623,-1.7784,-1.7974,-1.8008,-1.8008,-1.8008,-1.8008,-1.8008,-1.8008,-1.8008,-1.8008,-1.8008,-1.8008,-1.8008,-1.8008,-1.8373,-1.8598,-1.8598,-1.9062,-1.9072,-1.8598,-1.8607,-1.8393,-1.8008,-1.8008,-1.8331,-1.4754,-1.471,-1.4557,-1.4523,-1.4116,-1.3317,-1.1927,-1.1084,-1.0144,-0.852,-0.8008,-0.7795,-0.7682,-0.7746,-0.7879,-0.8089,-0.8245,0.0,-0.8408,-0.8496,-0.8537,-0.8486,-0.8618,-0.8669,0.0,0.0,-0.8231,-0.7977,-0.7777,-0.7665,-0.7665,-0.7716,-0.7719,-0.7668,-0.8666,-0.9864,-1.1272,-1.2204,-1.3178,-1.4298,-1.4208,-1.3978,-1.364,-1.3725,-1.3719,-1.3628,-1.3447,0.0,0.0,-1.2916,-1.2783,-1.2723,-1.2916,-1.2874,-1.279,-1.3391,-1.3554,-1.3544,-1.4532,-1.4902,-1.5151,-1.6008,-1.6288,-1.637,-1.6944,-1.7715,-1.8527,-1.9134,-1.9301,-1.9301,-1.9301,-1.9301,-1.9301,-1.9301,-1.9091,-1.8898,-1.8898,-1.8366,-1.7844,-1.7715,-1.7367,-1.7081,-1.7091,-1.7166,-1.7304,-1.7579,-1.7681,-1.7784,-1.7974,-1.8008,-1.8008,-1.8008,-1.8008,-1.8008,-1.8008,-1.8008,-1.8008,-1.8008,-1.8008,-1.8008,-1.8008,-1.8135,-1.8178,-1.8178,-1.8623,-1.8598,-1.8178,-1.8461,-1.8383,-1.8008,-1.8008,-1.811,-1.5233,-1.5227,-1.5084,-1.5044,-1.4649,-1.3937,-1.2654,-1.2054,-1.1264,-0.9291,-0.887,-0.8664,-0.8069,-0.791,-0.796,-0.8153,-0.8235,-0.8282,-0.8309,-0.8367,-0.8421,-0.8476,-0.852,0.0,0.0,-0.8218,-0.7974,-0.7668,-0.7509,-0.7451,-0.7509,-0.7597,-0.7816,-0.8204,-0.925,-1.0366,-1.1607,-1.2479,-1.3244,-1.3851,-1.3791,-1.3622,-1.3369,-1.3471,-1.3459,-1.3357,0.0,0.0,0.0,-1.2892,-1.2862,-1.2886,-1.3163,-1.3103,-1.2904,-1.3508,-1.3611,-1.3544,-1.4433,-1.4803,-1.4992,-1.5553,-1.5925,-1.6214,-1.6214,-1.6821,-1.7674,-1.8567,-1.8567,-1.8452,-1.8961,-1.8632,-1.8281,-1.8734,-1.843,-1.8058,-1.8058,-1.7547,-1.709,-1.709,-1.6776,-1.6656,-1.7132,-1.7201,-1.7304,-1.7638,-1.7706,-1.7784,-1.7974,-1.8008,-1.8008,-1.8008,-1.8008,-1.8008,-1.8008,-1.8008,-1.8008,-1.8008,-1.8008,-1.8008,-1.8008,-1.8008,-1.8008,-1.8008,-1.8237,-1.8237,-1.8008,-1.8237,-1.8227,-1.8008,-1.8008,-1.8012,0.0,-1.5784,-1.5778,-1.5758,-1.5451,-1.5107,-1.4995,-1.4507,0.0,-1.1625,-1.1101,-1.0444,-0.8557,-0.8097,-0.8041,-0.8005,-0.8177,-0.8221,-0.8075,-0.8231,-0.8374,-0.8465,-0.8367,-0.833,-0.8255,-0.7994,-0.7706,-0.7456,-0.7255,-0.7234,-0.7426,-0.7488,-0.8107,-0.9279,-1.0357,-1.1306,-1.214,-1.3053,-1.3393,-1.3107,-1.3381,-1.335,-1.3103,-1.3369,-1.3357,0.0,0.0,0.0,0.0,-1.3043,-1.3139,-1.3151,-1.3417,-1.3344,-1.3097,-1.3385,-1.3479,-1.344,-1.3629,-1.3884,-1.4088,-1.4088,-1.4664,-1.5311,-1.5311,-1.5966,-1.6862,-1.7674,-1.7302,-1.6985,-1.8216,-1.741,-1.6566,-1.7676,-1.7373,-1.6858,-1.6858,-1.655,-1.6268,-1.6268,-1.5958,-1.6009,-1.6881,-1.7097,-1.726,-1.7569,-1.7672,-1.7784,-1.7974,-1.8008,-1.8008,-1.8008,-1.8008,-1.8008,-1.8008,-1.8008,-1.8008,-1.8008,-1.8008,-1.8008,-1.8008,-1.8008,-1.8008,-1.8008,-1.8008,-1.8008,-1.8008,-1.8008,-1.8008,-1.8008,-1.8008,-1.8008,-1.5764,0.0,-1.5724,-1.5558,-1.5398,-1.5009,0.0,-1.2934,-1.1978,-1.0702,-0.9789,-0.9059,-0.8456,-0.8312,-0.8275,-0.8248,-0.8248,-0.8361,-0.8523,-0.8602,-0.8577,-0.8518,-0.8452,-0.8343,-0.8116,-0.7978,-0.7865,-0.7567,-0.7512,-0.7509,-0.7543,-0.8443,-0.942,-1.0447,-1.1657,-1.23,-1.24,-1.3146,-1.3483,-1.3423,-1.3239,-1.3067,-1.2813,-1.3091,-1.3137,0.0,0.0,0.0,-1.3332,-1.3393,-1.3308,-1.3151,-1.3417,-1.3224,-1.2856,-1.3311,-1.3467,-1.343,-1.3683,-1.3919,-1.4088,-1.4088,-1.425,-1.4419,-1.4419,-1.5477,-1.6739,-1.6944,-1.6862,-1.6741,-1.6834,-1.6578,-1.6292,-1.6322,-1.5988,-1.5604,-1.5604,-1.5312,-1.5016,-1.5016,-1.4952,-1.5002,-1.5401,-1.6026,-1.6585,-1.6819,-1.7467,-1.794,-1.7974,-1.8008,-1.8008,-1.8008,-1.8008,-1.8008,-1.8008,-1.8008,-1.8008,-1.8008,-1.8008,-1.8008,-1.8008,-1.8008,-1.8008,-1.8008,-1.8008,-1.8008,-1.8008,-1.8008,-1.8008,-1.8008,-1.8008,-1.8008,-1.5784,-1.5784,-1.5792,-1.5631,-1.5591,-1.5358,-1.4591,-1.3619,-1.2623,-1.1552,-1.043,-0.9453,-0.8863,-0.868,-0.851,-0.8348,-0.8463,-0.8513,-0.8564,-0.8463,-0.8421,-0.857,-0.8426,-0.8265,0.0,-0.8023,-0.7841,-0.7617,-0.76,-0.786,-0.8397,-0.9049,-1.0136,-1.1662,-1.222,-1.2652,-1.298,-1.3312,-1.3387,-1.3139,-1.3,-1.285,-1.2711,-1.2862,-1.2928,0.0,0.0,0.0,-1.3151,-1.3284,-1.3254,-1.3151,-1.3417,-1.326,-1.2934,-1.3357,-1.3461,-1.3417,-1.3649,-1.391,-1.4088,-1.4088,-1.4088,-1.4088,-1.4088,-1.4643,-1.5401,-1.5962,-1.5688,-1.5379,-1.5882,-1.5358,-1.4803,-1.5148,-1.4809,-1.4427,-1.4427,-1.4237,-1.4106,-1.4106,-1.4106,-1.4286,-1.4939,-1.5471,-1.5991,-1.6645,-1.7182,-1.7613,-1.7974,-1.8008,-1.8008,-1.8008,-1.8008,-1.8008,-1.8008,-1.8008,-1.8008,-1.8008,-1.8008,-1.8008,-1.8008,-1.8008,-1.8008,-1.8008,-1.8008,-1.8008,-1.8008,-1.8008,-1.8008,-1.8008,-1.8008,-1.8008,-1.5784,-1.5865,-1.5838,-1.5791,-1.5784,-1.5784,-1.5784,-1.4914,-1.3806,-1.2877,-1.1609,-1.0346,-0.9381,-0.905,-0.8812,-0.8567,-0.8717,-0.8812,-0.8567,-0.8371,-0.837,-0.8707,-0.8402,0.0,-0.8432,-0.8115,-0.7845,-0.777,-0.7902,-0.8423,-0.9416,-0.9731,-1.0742,-1.2571,-1.2547,-1.2777,-1.3414,-1.3459,-1.3224,-1.2771,-1.2723,-1.2705,-1.2705,-1.2747,-1.2771,-1.2771,0.0,0.0,-1.285,-1.3085,-1.3157,-1.3101,-1.3369,-1.3296,-1.3061,-1.3305,-1.3379,-1.344,-1.3695,-1.3913,-1.4088,-1.4088,-1.4088,-1.4082,-1.4035,-1.3841,-1.3804,-1.4778,-1.433,-1.3783,-1.4948,-1.4043,-1.3044,-1.4038,-1.3781,-1.3317,-1.3317,-1.3317,-1.3317,-1.3317,-1.3426,-1.3825,-1.4804,-1.5232,-1.5754,-1.6724,-1.6966,-1.7295,-1.7906,-1.8008,-1.8008,-1.8008,-1.8008,-1.8008,-1.8008,-1.8008,-1.8008,-1.8008,-1.8008,-1.8008,-1.8008,-1.8008,-1.8008,-1.8008,-1.8008,-1.8008,-1.8008,-1.8008,-1.8008,-1.8008,-1.8008,-1.8008,-1.5784,-1.6012,-1.6146,-1.5892,-1.5784,-1.5784,-1.5784,-1.4328,-1.2877,-1.2727,-1.113,-0.9673,-0.9282,-0.9299,-0.9291,-0.9037,-0.924,-0.9291,0.0,0.0,-0.9201,-0.9075,0.0,-0.8884,-0.8741,-0.8456,-0.8386,-0.8607,-0.9237,-0.9734,-0.9906,-1.134,-1.2251,-1.2336,-1.2957,-1.3266,-1.3143,-1.3137,-1.3101,-1.3055,-1.2819,-1.2705,-1.2711,-1.2952,-1.3061,-1.3029,0.0,-1.3393,-1.3393,-1.3435,-1.3276,-1.3083,-1.3169,-1.3012,-1.2771,-1.2808,-1.3083,-1.3483,-1.387,-1.4088,-1.4088,-1.4088,-1.4088,-1.4041,-1.3746,-1.364,-1.3601,-1.3554,-1.3386,-1.3246,-1.324,-1.3008,-1.2786,-1.2661,-1.2556,-1.2482,-1.2482,-1.2482,-1.2482,-1.2482,-1.3135,-1.3709,-1.389,-1.5305,-1.6428,-1.6602,-1.732,-1.7872,-1.7974,-1.8008,-1.8008,-1.8008,-1.8008,-1.8008,-1.8008,-1.8008,-1.8008,-1.8008,-1.8008,-1.8008,-1.8008,-1.8008,-1.8008,-1.8008,-1.8008,-1.8008,-1.8008,-1.8008,-1.8008,-1.8008,-1.8008,-1.8008,-1.5784,-1.5925,-1.6039,-1.6059,-1.6072,-1.5881,-1.5143,-1.38,-1.2533,-1.1999,-1.0694,-0.9579,-0.943,-0.957,-0.9685,-0.9532,-0.938,-0.9248,-0.9164,-0.9145,-0.9141,0.0,0.0,-0.8961,-0.8989,-0.8779,-0.892,-0.9608,-0.9856,-1.0474,-1.1629,-1.2307,-1.2882,-1.3314,-1.3519,-1.3546,-1.3335,-1.3188,-1.3028,-1.2892,-1.2765,-1.2705,-1.2705,-1.2837,-1.2898,-1.2904,0.0,-1.3079,-1.3079,-1.3079,-1.3006,-1.2898,-1.2898,-1.2819,-1.2747,-1.296,-1.3222,-1.3483,-1.3955,-1.4088,-1.4062,-1.3901,-1.3848,-1.3753,-1.346,-1.3293,-1.3133,-1.3038,-1.2998,-1.2965,-1.2817,-1.2663,-1.2472,-1.2338,-1.2305,-1.2305,-1.2305,-1.2305,-1.2342,-1.2452,-1.2813,-1.328,-1.3934,-1.4788,-1.5666,-1.6611,-1.7148,-1.7545,-1.794,-1.8008,-1.8008,-1.8008,-1.8008,-1.8008,-1.8008,-1.8008,-1.8008,-1.8008,-1.8008,-1.8008,-1.8008,-1.8008,-1.8008,-1.8008,-1.8008,-1.8008,-1.8008,-1.8008,-1.8008,-1.8008,-1.8008,-1.8008,-1.5784,-1.5879,-1.5972,-1.6126,-1.6166,-1.5945,-1.508,-1.3742,-1.25,-1.1825,-1.0578,-0.9579,-0.9579,-0.9803,-0.9937,-0.9892,-0.9619,-0.9321,-0.9313,-0.913,-0.9076,-0.9282,-0.913,-0.9076,-0.9282,-0.9186,-0.9494,-1.0418,-1.0566,-1.1348,-1.3007,-1.3031,-1.3303,-1.4097,-1.3862,-1.3623,-1.3492,-1.3286,-1.3009,-1.2705,-1.2705,-1.2705,-1.2705,-1.2705,-1.2705,-1.2705,-1.2705,-1.2705,-1.2705,-1.2705,-1.2705,-1.2705,-1.2705,-1.2747,-1.2833,-1.3264,-1.344,-1.3525,-1.3955,-1.4041,-1.3948,-1.3673,-1.3553,-1.3447,-1.3193,-1.2971,-1.277,-1.2697,-1.2683,-1.2683,-1.2683,-1.2472,-1.2305,-1.2305,-1.2305,-1.2305,-1.2305,-1.2305,-1.2342,-1.2489,-1.2739,-1.3215,-1.4086,-1.4446,-1.5081,-1.6411,-1.662,-1.6837,-1.7407,-1.7442,-1.7442,-1.7442,-1.7613,-1.7794,-1.7974,-1.8008,-1.8008,-1.8008,-1.8008,-1.8008,-1.8008,-1.8008,-1.8008,-1.8008,-1.8008,-1.8008,-1.8008,-1.8008,-1.8008,-1.8008,-1.8008,-1.8008,-1.5784,-1.6032,-1.6179,-1.5925,-1.5865,-1.5951,-1.6421,-1.4532,-1.2791,-1.3012,-1.1217,-0.9579,-0.9579,-0.9908,-1.0139,-0.9912,-1.003,-0.9971,-0.9627,0.0,-0.9529,-0.9579,-0.9579,-0.9529,-0.9579,-0.9947,-1.0314,-1.0644,-1.1982,-1.282,-1.2979,-1.3679,-1.4018,-1.3837,-1.357,-1.3423,-1.3423,-1.3404,-1.3137,-1.2705,-1.2705,-1.2705,-1.2705,-1.2705,-1.2705,-1.2705,-1.2705,-1.2705,-1.2705,-1.2705,-1.2705,-1.2705,-1.2705,-1.2833,-1.3094,-1.3313,-1.3525,-1.3737,-1.3997,-1.3908,-1.3633,-1.3613,-1.342,-1.318,-1.2911,-1.2804,-1.2723,-1.2412,-1.2338,-1.2338,-1.2338,-1.2318,-1.2305,-1.2305,-1.2305,-1.2305,-1.2305,-1.2305,-1.2305,-1.2335,-1.3171,-1.3934,-1.4006,-1.4895,-1.564,-1.5781,-1.5781,-1.5816,-1.5851,-1.5886,-1.5886,-1.5886,-1.6515,-1.726,-1.794,-1.8008,-1.8008,-1.8008,-1.8008,-1.8008,-1.8008,-1.8008,-1.8008,-1.8008,-1.8008,-1.8008,-1.8008,-1.8008,-1.8008,-1.8008,-1.8008,-1.8008,-1.5784,-1.6046,-1.6246,-1.6132,-1.6106,-1.6014,-1.5536,-1.4129,-1.2775,-1.2451,-1.1015,-0.9786,-0.9786,-0.9896,-0.9965,-0.9896,-0.9945,-0.9904,-0.9661,-0.9579,-0.9871,-1.0498,-1.0592,-1.0791,-1.124,-1.1434,-1.1796,-1.2341,-1.2744,-1.328,-1.3882,-1.4056,-1.4078,-1.3985,-1.3881,-1.3743,-1.361,-1.361,-1.3434,-1.3137,-1.3009,-1.2875,-1.2705,-1.2705,-1.2705,-1.2705,-1.2705,-1.2705,-1.2705,-1.2705,-1.2705,-1.2705,-1.2705,-1.2875,-1.3118,-1.3159,-1.3262,-1.345,-1.3519,-1.3467,-1.33,-1.3146,-1.3013,-1.2904,-1.2565,-1.2509,-1.2445,-1.2338,-1.2305,-1.2305,-1.2305,-1.2305,-1.2305,-1.2305,-1.2305,-1.2305,-1.2305,-1.2305,-1.2342,-1.2452,-1.2929,-1.3506,-1.4086,-1.4645,-1.5171,-1.564,-1.571,-1.571,-1.571,-1.571,-1.571,-1.571,-1.6411,-1.6793,-1.6594,-1.7442,-1.7794,-1.7329,-1.7759,-1.8008,-1.8008,-1.8008,-1.8008,-1.8008,-1.8008,-1.8008,-1.8008,-1.8008,-1.8008,-1.8008,-1.8008,-1.8008,-1.5972,-1.6119,-1.6342,-1.6386,-1.6339,-1.6068,-1.5145,-1.3902,-1.2833,-1.2156,-1.0865,-0.9884,-0.9884,-0.9884,-0.9868,0.0,-0.9847,-0.9974,-1.0089,-1.0109,-1.0498,-1.156,-1.1599,-1.174,-1.2251,-1.2428,-1.2728,-1.3234,-1.3335,-1.3671,-1.4339,-1.4195,-1.3955,-1.3652,-1.3955,-1.387,-1.3392,-1.3695,-1.3695,-1.3483,-1.3313,-1.3052,-1.2833,-1.2747,-1.2705,-1.2705,-1.2705,-1.2705,-1.2705,-1.2705,-1.2705,-1.2705,-1.279,-1.2911,-1.3071,-1.3096,-1.3179,-1.3272,-1.32,-1.3146,-1.3026,-1.2851,-1.2723,-1.2603,-1.2365,-1.2305,-1.2305,-1.2305,-1.2305,-1.2305,-1.2305,-1.2305,-1.2305,-1.2305,-1.2305,-1.2305,-1.2305,-1.2305,-1.2378,-1.2562,-1.2753,-1.3119,-1.384,-1.4122,-1.4438,-1.4939,-1.501,-1.501,-1.501,-1.501,-1.5073,-1.5313,-1.5842,-1.6053,-1.5745,-1.6906,-1.7442,-1.6941,-1.7579,-1.8008,-1.8008,-1.8008,-1.8008,-1.8008,-1.8008,-1.8008,-1.8008,-1.8008,-1.8008,-1.8008,-1.8008,-1.8008,-1.6321,-1.6321,-1.6388,-1.6627,-1.6486,-1.6124,-1.5548,-1.4197,-1.288,-1.2293,-1.1014,-0.9939,-0.9931,-0.9931,-0.9827,-0.9657,-0.977,-1.0217,-1.1105,-1.1219,-1.1609,-1.2581,-1.2474,-1.2335,-1.233,-1.2717,-1.2997,-1.2997,-1.3679,-1.4088,-1.4088,-1.4088,-1.3652,-1.2747,-1.361,-1.3652,-1.2705,-1.3652,-1.3955,-1.3695,-1.3476,-1.3313,-1.3094,-1.2833,-1.2705,-1.2705,-1.2699,-1.2699,-1.2699,-1.2699,-1.2699,-1.2741,-1.3003,-1.3052,-1.3019,-1.3225,-1.3252,-1.3206,-1.32,-1.3038,-1.2784,-1.2784,-1.2583,-1.2305,-1.2305,-1.2305,-1.2305,-1.2305,-1.2305,-1.2305,-1.2305,-1.2305,-1.2305,-1.2305,-1.2305,-1.2305,-1.2305,-1.2305,-1.2378,-1.2562,-1.2783,-1.2973,-1.3156,-1.3382,-1.3492,-1.3492,-1.3492,-1.3492,-1.3492,-1.3492,-1.3775,-1.453,-1.4601,-1.4922,-1.564,-1.6446,-1.6906,-1.6897,-1.7579,-1.8008,-1.8008,-1.8008,-1.8008,-1.8008,-1.8008,-1.8008,-1.8008,-1.8008,-1.8008,-1.8008,-1.8008,-1.8008,-1.6594,-1.6553,-1.6599,-1.6687,-1.6641,-1.6373,-1.5591,-1.4891,-1.4088,-1.3004,-1.2562,-1.2273,-1.191,-1.1264,-1.1049,-1.1673,-1.1227,-1.1147,-1.2106,-1.2242,-1.2566,-1.3396,-1.3403,-1.35,-1.3823,-1.3951,-1.3989,-1.3795,-1.3959,-1.4088,-1.4088,-1.4088,-1.3962,-1.3701,-1.3955,-1.3962,-1.3701,-1.3955,-1.3737,-1.3003,-1.2619,-1.2662,-1.3094,-1.2833,-1.2705,-1.2693,-1.2506,-1.2433,-1.2415,-1.2234,-1.2155,-1.2155,-1.2359,-1.256,-1.2707,-1.2667,-1.2772,-1.2891,-1.2645,-1.2512,-1.2438,-1.2438,-1.2371,-1.2305,-1.2305,-1.2305,-1.2305,-1.2305,-1.2305,-1.2305,-1.2305,-1.2305,-1.2305,-1.2305,-1.2305,-1.2342,-1.2489,-1.2526,-1.2562,-1.2783,-1.2973,-1.3119,-1.3193,-1.3382,-1.3492,-1.3492,-1.3492,-1.3492,-1.3492,-1.3492,-1.3775,-1.453,-1.5065,-1.5463,-1.5675,-1.6906,-1.7432,-1.6941,-1.7579,-1.8008,-1.8008,-1.8008,-1.8008,-1.8008,-1.8008,-1.8008,-1.8008,-1.8008,-1.8008,-1.8008,-1.8008,-1.8008,-1.6939,-1.6881,-1.6909,-1.7025,-1.6992,-1.6775,-1.6208,-1.5369,-1.4401,-1.3586,-1.3424,-1.3306,-1.3016,-1.2317,0.0,-1.2587,-1.2193,-1.2145,-1.3173,-1.3222,-1.3483,-1.4319,-1.4199,-1.4167,-1.4462,-1.4416,-1.4275,-1.4102,-1.4088,-1.4088,-1.4088,-1.4088,-1.3913,-1.3568,-1.3913,-1.3913,-1.3568,-1.3452,-1.3136,-1.2578,-1.1763,-1.1545,-1.1927,-1.1947,-1.1983,-1.1915,-1.2058,-1.2155,-1.2149,-1.1986,-1.188,-1.192,-1.2246,-1.2382,-1.242,-1.2518,-1.2565,-1.2583,-1.2365,-1.2305,-1.2305,-1.2305,-1.2305,-1.2305,-1.2305,-1.2305,-1.2305,-1.2305,-1.2305,-1.2305,-1.2305,-1.2305,-1.2305,-1.2305,-1.2305,-1.2378,-1.2562,-1.2599,-1.2673,-1.2973,-1.3119,-1.3236,-1.3309,-1.3419,-1.3492,-1.3492,-1.3492,-1.3492,-1.3492,-1.3775,-1.4122,-1.4537,-1.5242,-1.571,-1.571,-1.6837,-1.7364,-1.6941,-1.7579,-1.8008,-1.8008,-1.8008,-1.8008,-1.8008,-1.8008,-1.8008,-1.8008,-1.8008,-1.8008,-1.8008,-1.8008,-1.8008,-1.7326,-1.7217,-1.7284,-1.7521,-1.7414,-1.7239,-1.7291,-1.5791,-1.4389,-1.4345,-1.4,-1.3693,-1.3671,-1.3237,-1.2877,-1.2969,-1.292,-1.3221,-1.4292,-1.4145,-1.4288,-1.5265,-1.4856,-1.4509,-1.4482,-1.4242,-1.4088,-1.4088,-1.4088,-1.4088,-1.4088,-1.4062,-1.3656,-1.2796,-1.3594,-1.3574,-1.2632,-1.2468,-1.2299,-1.2129,-1.0882,-1.0115,-0.9888,-1.0496,-1.0769,-1.0705,-1.1438,-1.1792,-1.1848,-1.1848,-1.1848,-1.1887,-1.233,-1.2336,-1.2107,-1.2591,-1.2569,-1.2305,-1.2305,-1.2305,-1.2305,-1.2305,-1.2305,-1.2305,-1.2305,-1.2305,-1.2305,-1.2305,-1.2305,-1.2305,-1.2305,-1.2305,-1.2305,-1.2305,-1.2305,-1.2378,-1.2562,-1.2636,-1.2746,-1.3163,-1.3236,-1.3309,-1.3455,-1.3492,-1.3492,-1.3492,-1.3492,-1.3492,-1.3492,-1.4086,-1.4537,-1.4601,-1.5207,-1.5675,-1.5816,-1.6481,-1.6941,-1.701,-1.7613,-1.8008,-1.8008,-1.8008,-1.8008,-1.8008,-1.8008,-1.8008,-1.8008,-1.8008,-1.8008,-1.8008,-1.8008,-1.8008,-1.7838,-1.7417,-1.7184,-1.7432,-1.7524,-1.7548,-1.7764,-1.7325,-1.6701,-1.626,-1.6074,-1.5927,-1.571,-1.4753,-1.419,-1.501,-1.4478,-1.4286,-1.535,-1.5244,-1.5074,-1.5084,-1.4743,-1.4429,-1.4202,-1.4122,-1.4088,-1.4088,-1.4088,-1.4088,-1.4088,-1.3868,-1.3611,-1.3398,-1.3392,-1.2985,-1.2158,-1.2097,-1.141,0.0,-0.9531,-0.8819,-0.8041,-0.9402,-1.0155,-1.0387,-1.0578,-1.0861,-1.1286,-1.1286,-1.1286,-1.1324,-1.174,-1.1853,-1.1839,-1.2249,-1.2358,-1.2305,-1.2305,-1.2305,-1.2305,-1.2305,-1.2305,-1.2305,-1.2305,-1.2305,-1.2305,-1.2305,-1.2305,-1.2305,-1.2305,-1.2305,-1.2305,-1.2305,-1.2305,-1.2415,-1.2753,-1.2826,-1.2936,-1.3346,-1.3455,-1.3455,-1.3492,-1.3492,-1.3492,-1.3492,-1.3492,-1.3492,-1.3492,-1.363,-1.3949,-1.453,-1.4744,-1.5313,-1.655,-1.6793,-1.7148,-1.7725,-1.7906,-1.8008,-1.8008,-1.8008,-1.8008,-1.8008,-1.8008,-1.8008,-1.8008,-1.8008,-1.8008,-1.8008,-1.8008,-1.8008,-1.8215,-1.7953,-1.7767,-1.8123,-1.8003,-1.7852,-1.7964,-1.7799,-1.7495,-1.7188,-1.6901,-1.666,-1.6506,-1.5683,-1.5207,-1.573,-1.535,-1.5162,-1.5544,-1.5371,-1.5084,-1.4783,-1.4496,-1.4255,-1.4102,-1.4088,-1.4088,-1.4088,-1.4088,-1.4088,-1.4088,-1.3766,-1.36,-1.36,-1.2986,-1.2433,-1.1982,-1.1095,-1.016,-0.9242,-0.8586,-0.794,-0.7352,-0.8378,-0.9115,-0.9555,-0.9946,-1.0258,-1.055,-1.0925,-1.1149,-1.126,-1.1595,-1.1744,-1.1892,-1.2194,-1.2305,-1.2305,-1.2305,-1.2305,-1.2305,-1.2305,-1.2305,-1.2305,-1.2305,-1.2305,-1.2305,-1.2305,-1.2305,-1.2305,-1.2305,-1.2305,-1.2305,-1.2305,-1.2305,-1.2415,-1.2826,-1.29,-1.301,-1.3419,-1.3492,-1.3492,-1.3492,-1.3492,-1.3492,-1.3492,-1.3492,-1.3492,-1.3492,-1.3804,-1.4186,-1.4565,-1.4922,-1.5455,-1.6271,-1.6341,-1.6655,-1.7432,-1.7476,-1.7613,-1.7974,-1.8008,-1.8008,-1.8008,-1.8008,-1.8008,-1.8008,-1.8008,-1.8008,-1.8008,-1.8008,-1.8008,-1.8386,-1.8422,-1.8555,-1.8819,-1.8501,-1.8131,-1.8135,-1.7957,-1.7726,-1.7627,-1.7132,-1.6707,-1.6707,-1.6226,-1.5784,-1.5784,-1.5784,-1.5698,-1.5504,-1.5223,-1.4914,-1.4629,-1.4295,-1.4088,-1.4088,-1.4088,-1.413,-1.4166,-1.413,-1.4104,-1.4092,-1.3728,-1.35,-1.3447,-1.2426,-1.1763,-1.1645,-0.9901,-0.8954,-0.8797,-0.7936,-0.7411,-0.7223,-0.7561,-0.8012,-0.8589,-0.9198,-0.9576,-0.9765,-1.055,-1.0999,-1.1223,-1.1558,-1.1818,-1.2003,-1.2224,-1.2305,-1.2305,-1.2305,-1.2305,-1.2305,-1.2305,-1.2305,-1.2305,-1.2305,-1.2305,-1.2305,-1.2305,-1.2305,-1.2305,-1.2305,-1.2305,-1.2305,-1.2305,-1.2305,-1.2415,-1.2826,-1.29,-1.301,-1.3419,-1.3492,-1.3492,-1.3492,-1.3492,-1.3492,-1.3492,-1.3492,-1.3492,-1.3492,-1.4013,-1.4394,-1.4394,-1.4966,-1.5357,-1.549,-1.5498,-1.5842,-1.6655,-1.6689,-1.6975,-1.7588,-1.7588,-1.7657,-1.7794,-1.794,-1.8008,-1.8008,-1.8008,-1.8008,-1.8008,-1.8008,-1.8008,-1.8396,0.0,-1.8826,0.0,-1.8826,-1.8765,0.0,0.0,-1.8144,0.0,-1.71,-1.6707,-1.6707,-1.6226,-1.5784,-1.5784,-1.5784,-1.5764,-1.5724,-1.5304,-1.4995,-1.4955,-1.4422,-1.4088,-1.4088,-1.4088,-1.4166,-1.4363,-1.4201,-1.4052,-1.4029,-1.3541,-1.3146,-1.2911,-1.1815,-1.0906,-1.0182,-0.9248,-0.8397,-0.7709,-0.7569,-0.7411,-0.7223,-0.7257,-0.7522,-0.7897,-0.7863,-0.8208,-0.8927,-0.9728,-1.018,-1.0443,-1.1335,-1.1818,-1.2003,-1.2224,-1.2305,-1.2305,-1.2305,-1.2305,-1.2305,-1.2305,-1.2305,-1.2305,-1.2305,-1.2305,-1.2305,-1.2305,-1.2305,-1.2305,-1.2305,-1.2305,-1.2305,-1.2305,-1.2305,-1.2415,-1.2826,-1.29,-1.301,-1.3419,-1.3492,-1.3492,-1.3492,-1.3492,-1.3492,-1.3492,-1.3492,-1.3492,-1.3492,-1.3601,-1.3637,-1.3637,-1.3739,-1.4057,-1.4673,-1.4744,-1.5065,-1.5807,-1.5851,-1.5886,-1.5991,-1.6026,-1.6341,-1.7044,-1.7691,-1.8008,-1.8008,-1.8008,-1.8008,-1.8008,-1.8008,-1.8008,-1.8767,-1.9011,-1.9261,0.0,-1.9409,-1.8918,-1.9067,-1.8773,-1.8335,-1.8099,-1.7588,-1.7002,-1.6543,-1.6119,-1.5784,-1.5784,-1.5784,-1.5718,-1.5391,-1.5169,-1.4888,-1.4553,-1.4363,-1.4201,-1.413,-1.4292,-1.4447,-1.4398,-1.4289,-1.4186,-1.4164,-1.347,-1.2841,-1.2241,-1.1049,-1.0051,-0.9221,-0.8432,-0.7863,-0.7484,-0.7484,-0.7446,-0.7373,-0.7257,-0.718,-0.7134,-0.7518,-0.7787,-0.8131,-0.9387,-1.0062,-1.0464,-1.1366,-1.1892,-1.2187,-1.2268,-1.2305,-1.2305,-1.2305,-1.2305,-1.2305,-1.2305,-1.2305,-1.2305,-1.2305,-1.2305,-1.2305,-1.2305,-1.2305,-1.2305,-1.2305,-1.2305,-1.2305,-1.2305,-1.2305,-1.2415,-1.2826,-1.29,-1.301,-1.3419,-1.3492,-1.3492,-1.3492,-1.3492,-1.3492,-1.3492,-1.3492,-1.3492,-1.3492,-1.3492,-1.3492,-1.3492,-1.3492,-1.3637,-1.3949,-1.3985,-1.4294,-1.5029,-1.5065,-1.5286,-1.5675,-1.571,-1.6097,-1.6862,-1.7226,-1.7579,-1.8008,-1.8008,-1.8008,-1.8008,-1.8008,-1.8008,-1.8708,-1.9023,-1.933,-2.0047,-1.966,-1.9153,0.0,0.0,-1.8731,0.0,-1.8034,-1.7365,-1.6619,-1.6176,-1.5879,-1.5879,-1.5832,-1.5678,-1.5342,-1.5147,-1.4936,-1.4527,-1.4501,-1.4398,-1.4292,-1.4531,-1.465,-1.4566,-1.4413,-1.4291,-1.4294,-1.3455,-1.2585,-1.1745,-1.0517,-0.9523,-0.8703,-0.7902,-0.7484,-0.7484,-0.7484,-0.7484,-0.7484,-0.7334,-0.7103,-0.6795,-0.7288,-0.7403,-0.7365,-0.8737,-0.9642,-1.0265,-1.1099,-1.1774,-1.2305,-1.2305,-1.2305,-1.2305,-1.2305,-1.2305,-1.2305,-1.2305,-1.2305,-1.2305,-1.2305,-1.2305,-1.2305,-1.2305,-1.2305,-1.2305,-1.2305,-1.2305,-1.2305,-1.2305,-1.2305,-1.2415,-1.2826,-1.2973,-1.3119,-1.3455,-1.3492,-1.3492,-1.3492,-1.3492,-1.3492,-1.3492,-1.3492,-1.3492,-1.3492,-1.3492,-1.3492,-1.3492,-1.3492,-1.3492,-1.3492,-1.3492,-1.3739,-1.4294,-1.4322,-1.4645,-1.5384,-1.5428,-1.5877,-1.6862,-1.6897,-1.726,-1.8008,-1.8008,-1.8008,-1.8008,-1.8008,-1.8008,-1.7874,-1.8343,-1.8825,-1.8877,-1.9316,-1.974,0.0,0.0,-1.9539,-1.9009,-1.8346,-1.7718,-1.7155,-1.6566,-1.6177,-1.6177,-1.5981,-1.5872,-1.6129,-1.5638,-1.5359,-1.5578,-1.5055,-1.4692,-1.465,-1.4699,-1.4783,-1.5041,-1.4584,-1.428,-1.4227,-1.3453,-1.2492,-1.144,-1.0426,-0.9523,-0.8703,-0.7902,-0.7484,-0.7484,-0.7484,-0.7484,-0.7484,-0.7484,-0.7369,-0.7146,-0.6795,-0.6641,-0.6718,-0.7369,-0.8318,-0.9448,-1.0265,-1.1279,-1.2305,-1.2305,-1.2305,-1.2305,-1.2305,-1.2305,-1.2305,-1.2305,-1.2305,-1.2305,-1.2305,-1.2305,-1.2305,-1.2305,-1.2305,-1.2305,-1.2305,-1.2305,-1.2305,-1.2305,-1.2305,-1.2415,-1.2826,-1.32,-1.3455,-1.3492,-1.3492,-1.3492,-1.3492,-1.3492,-1.3492,-1.3492,-1.3492,-1.3492,-1.3492,-1.3492,-1.3492,-1.3492,-1.3492,-1.3492,-1.3492,-1.3492,-1.3528,-1.3564,-1.3564,-1.3876,-1.4637,-1.4673,-1.5349,-1.6862,-1.6897,-1.726,-1.8008,-1.8008,-1.8008,-1.8008,-1.8008,-1.8008,-1.8072,-1.8299,0.0,-1.8994,-1.9118,-1.9191,-1.9456,-1.95,-1.936,-1.892,-1.8462,-1.8007,-1.7633,-1.6935,-1.6447,-1.6447,-1.64,-1.6284,-1.619,-1.5847,-1.5506,-1.5392,-1.5127,-1.4908,-1.4741,-1.495,-1.5045,-1.4796,0.0,-1.4337,-1.4096,-1.3461,-1.2405,-1.087,-1.034,-0.9405,-0.794,-0.7633,-0.7484,-0.7484,-0.7484,-0.7484,-0.7484,-0.7484,-0.7446,-0.7369,-0.7103,-0.6834,-0.6641,-0.7403,-0.8008,-0.8689,-1.0126,-1.1031,-1.1595,-1.2114,-1.2305,-1.2305,-1.2305,-1.2305,-1.2305,-1.2305,-1.2305,-1.2305,-1.2305,-1.2305,-1.2305,-1.2305,-1.2305,-1.2305,-1.2305,-1.2305,-1.2342,-1.2452,-1.2599,-1.2753,-1.3046,-1.3309,-1.3492,-1.3492,-1.3492,-1.3492,-1.3492,-1.3492,-1.3492,-1.3492,-1.3492,-1.3492,-1.3492,-1.3492,-1.3492,-1.3492,-1.3492,-1.3492,-1.3492,-1.3492,-1.3702,-1.4186,-1.4222,-1.4537,-1.5278,-1.5313,-1.5807,-1.6862,-1.6897,-1.726,-1.8008,-1.8008,-1.8008,-1.8008,-1.8008,-1.8008,-1.7786,-1.7816,-1.7947,0.0,-1.854,-1.8606,-1.9147,-1.9279,-1.9294,-1.914,-1.8686,-1.824,-1.8021,-1.734,-1.6817,-1.673,-1.6636,-1.6523,-1.6313,-1.5996,-1.5729,-1.5461,-1.5276,-1.5124,-1.495,-1.5215,-1.5209,-1.476,0.0,0.0,-1.4002,-1.3497,-1.2328,-1.0453,-0.9664,-0.8727,-0.7522,-0.7484,-0.7484,-0.7484,-0.7484,-0.7484,-0.748,-0.7423,-0.7399,-0.7395,-0.7167,-0.6931,-0.6753,-0.7284,-0.774,-0.8271,-0.9787,-1.0694,-1.1186,-1.2003,-1.2305,-1.2305,-1.2305,-1.2305,-1.2305,-1.2305,-1.2305,-1.2305,-1.2305,-1.2305,-1.2305,-1.2305,-1.2305,-1.2305,-1.2305,-1.2305,-1.2342,-1.2489,-1.2709,-1.2936,-1.3083,-1.3309,-1.3492,-1.3492,-1.3492,-1.3492,-1.3492,-1.3492,-1.3492,-1.3492,-1.3492,-1.3492,-1.3492,-1.3492,-1.3492,-1.3492,-1.3492,-1.3492,-1.3492,-1.3492,-1.3804,-1.4537,-1.4601,-1.5065,-1.6062,-1.6097,-1.6481,-1.726,-1.726,-1.751,-1.8008,-1.8008,-1.8008,-1.8008,-1.8008,-1.8008,0.0,0.0,0.0,0.0,0.0,0.0,-1.9001,0.0,-1.9323,-1.9705,-1.8964,-1.8299,-1.8299,-1.7786,-1.7268,-1.7048,-1.6791,-1.6577,-1.6511,-1.6235,-1.6008,-1.5922,-1.5593,-1.5389,-1.5389,-1.5389,-1.525,0.0,-1.4655,-1.4331,-1.4014,-1.3459,-1.2218,-1.0265,-0.8461,-0.7484,-0.7484,-0.7484,-0.7484,-0.7484,-0.7484,-0.7484,-0.7476,-0.7305,-0.7187,-0.7187,-0.6994,-0.6896,-0.6896,-0.6899,-0.7357,-0.8156,-0.9178,-1.0164,-1.1149,-1.1966,-1.2268,-1.2305,-1.2305,-1.2305,-1.2305,-1.2305,-1.2305,-1.2305,-1.2305,-1.2305,-1.2305,-1.2305,-1.2305,-1.2305,-1.2305,-1.2305,-1.2305,-1.2305,-1.2636,-1.29,-1.2936,-1.3229,-1.3492,-1.3492,-1.3492,-1.3492,-1.3492,-1.3492,-1.3492,-1.3492,-1.3492,-1.3492,-1.3492,-1.3492,-1.3492,-1.3492,-1.3492,-1.3492,-1.3492,-1.3492,-1.3804,-1.4537,-1.4601,-1.5313,-1.6828,-1.6932,-1.726,-1.7974,-1.8008,-1.8008,-1.8008,-1.8008,-1.8008,-1.8008,-1.8008,-1.8008,-1.6573,0.0,0.0,0.0,0.0,0.0,0.0,0.0,-1.8313,-1.8642,-1.8489,-1.8299,-1.8299,-1.8152,-1.7987,-1.7945,-1.7449,-1.7117,-1.7076,-1.6635,-1.6294,-1.625,-1.576,-1.5389,-1.5389,-1.5389,-1.525,0.0,-1.4652,-1.4362,-1.4002,-1.2234,-1.0975,-1.0415,-0.8537,-0.7484,-0.7484,-0.7484,-0.7484,-0.7484,-0.7484,-0.7484,-0.7476,-0.7305,-0.7187,-0.7187,-0.715,-0.7025,-0.6922,-0.7049,-0.7176,-0.7361,-0.8504,-0.9485,-1.0346,-1.1143,-1.1781,-1.2305,-1.2305,-1.2305,-1.2305,-1.2305,-1.2305,-1.2305,-1.2305,-1.2305,-1.2305,-1.2305,-1.2305,-1.2305,-1.2305,-1.2305,-1.2378,-1.2673,-1.2826,-1.2973,-1.3273,-1.3419,-1.3492,-1.3492,-1.3492,-1.3492,-1.3492,-1.3492,-1.3492,-1.3492,-1.3492,-1.3492,-1.3492,-1.3492,-1.3492,-1.3492,-1.3492,-1.3492,-1.3492,-1.3492,-1.3804,-1.4537,-1.51,-1.5842,-1.6862,-1.7398,-1.7794,-1.8008,-1.8008,-1.8008,-1.8008,-1.8008,-1.8008,-1.8008,-1.8008,-1.8008,-1.6213,-1.6177,-1.6177,-1.6177,0.0,0.0,-1.7194,-1.7425,-1.7743,0.0,-1.8196,-1.8101,-1.8101,-1.7991,-1.7896,-1.7896,-1.7527,-1.7279,-1.7279,-1.6769,-1.6367,-1.6199,-1.5738,-1.5389,-1.5389,-1.5389,-1.5228,-1.4768,-1.4594,-1.4308,-1.3814,-1.169,-1.0513,-1.049,-0.8537,-0.7484,-0.7484,-0.7411,-0.7411,-0.748,-0.7371,-0.7339,-0.7366,-0.7119,-0.7045,-0.711,-0.711,-0.7041,-0.6923,-0.7108,-0.7114,-0.7134,-0.8241,-0.9188,-1.0008,-1.0807,-1.1595,-1.2305,-1.2305,-1.2305,-1.2305,-1.2305,-1.2305,-1.2305,-1.2305,-1.2305,-1.2305,-1.2305,-1.2305,-1.2305,-1.2305,-1.2305,-1.2378,-1.2709,-1.2826,-1.2973,-1.3309,-1.3455,-1.3492,-1.3492,-1.3492,-1.3492,-1.3492,-1.3492,-1.3492,-1.3492,-1.3492,-1.3492,-1.3492,-1.3492,-1.3492,-1.3492,-1.3492,-1.3492,-1.3492,-1.3492,-1.3804,-1.4537,-1.4994,-1.5596,-1.6376,-1.7113,-1.7545,-1.7545,-1.7828,-1.8008,-1.8008,-1.8008,-1.8008,-1.8008,-1.8008,-1.8008,-1.5935,-1.5819,-1.5819,-1.5819,-1.5819,0.0,-1.6928,-1.7125,-1.7308,0.0,-1.7911,-1.7721,-1.7757,-1.7523,-1.7279,-1.7279,-1.7279,-1.7279,-1.7279,-1.6806,-1.6323,-1.6052,-1.5738,-1.5518,-1.5447,-1.544,-1.5216,-1.4659,-1.4558,-1.4207,-1.3536,-1.1558,-1.0458,-1.0482,-0.8519,-0.7461,-0.7461,-0.7273,-0.7273,-0.7457,-0.7139,-0.7073,-0.7183,-0.6846,-0.6812,-0.6959,-0.6959,-0.6937,-0.6898,-0.711,-0.7201,-0.7296,-0.83,-0.9163,-1.0008,-1.0807,-1.1595,-1.2305,-1.2305,-1.2305,-1.2305,-1.2305,-1.2305,-1.2305,-1.2305,-1.2305,-1.2305,-1.2305,-1.2305,-1.2305,-1.2305,-1.2305,-1.2378,-1.2562,-1.2783,-1.2973,-1.3193,-1.3382,-1.3492,-1.3492,-1.3492,-1.3492,-1.3492,-1.3492,-1.3492,-1.3492,-1.3492,-1.3492,-1.3492,-1.3492,-1.3492,-1.3492,-1.3492,-1.3492,-1.3492,-1.3492,-1.3775,-1.443,-1.4565,-1.4887,-1.5569,-1.6446,-1.6897,-1.6897,-1.7613,-1.8008,-1.8008,-1.8008,-1.8008,-1.8008,-1.8008,-1.8008,-1.554,-1.5484,-1.5484,-1.5484,-1.5484,0.0,-1.6089,-1.6191,-1.6367,0.0,-1.713,-1.7121,-1.7377,-1.7323,-1.7279,-1.7279,-1.7279,-1.7279,-1.7279,-1.6996,-1.6785,-1.6727,-1.6426,-1.6089,-1.584,-1.5783,-1.563,-1.5238,-1.4776,-1.4223,-1.3536,-1.1441,-1.026,-1.0248,-0.8201,-0.7094,-0.7094,-0.7057,-0.7057,-0.709,-0.7024,-0.7008,-0.7037,-0.679,-0.6717,-0.6745,-0.6771,-0.6749,-0.6759,-0.6944,-0.7085,-0.728,-0.8137,-0.906,-1.0008,-1.0807,-1.1595,-1.2305,-1.2305,-1.2305,-1.2305,-1.2305,-1.2305,-1.2305,-1.2305,-1.2305,-1.2305,-1.2305,-1.2305,-1.2305,-1.2305,-1.2305,-1.2378,-1.2753,-1.2863,-1.301,-1.3346,-1.3455,-1.3492,-1.3492,-1.3492,-1.3492,-1.3492,-1.3492,-1.3492,-1.3492,-1.3492,-1.3492,-1.3492,-1.3492,-1.3492,-1.3492,-1.3492,-1.3492,-1.3492,-1.3492,-1.3564,-1.3702,-1.4258,-1.4673,-1.4816,-1.6158,-1.6897,-1.6897,-1.7613,-1.8008,-1.8008,-1.8008,-1.8008,-1.8008,-1.8008,-1.8008,-1.5389,-1.5389,-1.5389,-1.5389,-1.5389,0.0,0.0,-1.5913,-1.6045,-1.6565,-1.6653,-1.6705,-1.6821,-1.685,-1.685,-1.685,-1.6989,-1.7091,-1.7091,-1.6998,-1.6903,-1.6903,-1.6609,0.0,-1.6155,-1.6009,-1.5689,-1.5173,-1.4594,-1.4077,-1.3609,-1.1524,-1.029,-1.0186,-0.8286,-0.7212,-0.709,-0.7037,-0.6988,-0.6988,-0.6804,-0.6767,-0.6853,-0.6639,-0.6607,-0.6696,-0.6688,-0.6771,-0.6857,-0.6951,-0.7078,-0.7233,-0.7657,-0.8659,-0.9933,-1.0351,-1.1254,-1.2305,-1.2305,-1.2305,-1.2305,-1.2305,-1.2305,-1.2305,-1.2305,-1.2305,-1.2305,-1.2305,-1.2305,-1.2305,-1.2305,-1.2305,-1.2415,-1.2783,-1.29,-1.301,-1.3419,-1.3492,-1.3492,-1.3492,-1.3492,-1.3492,-1.3492,-1.3492,-1.3492,-1.3492,-1.3492,-1.3492,-1.3492,-1.3492,-1.3492,-1.3492,-1.3492,-1.3492,-1.3492,-1.3492,-1.3492,-1.3492,-1.384,-1.4049,-1.4049,-1.5136,-1.6123,-1.6862,-1.7251,-1.7613,-1.8008,-1.8008,-1.8008,-1.8008,-1.8008,-1.8008,-1.5389,-1.5345,-1.5309,-1.5374,-1.5338,-1.5382,0.0,0.0,0.0,-1.6133,-1.6191,0.0,0.0,0.0,0.0,0.0,0.0,0.0,0.0,-1.7124,0.0,-1.6976,-1.6763,0.0,-1.6514,-1.6184,-1.5697,-1.5026,-1.4551,-1.4117,-1.3784,-1.1733,-1.0453,-1.0233,-0.8387,-0.7297,-0.709,-0.7045,-0.6971,-0.6935,-0.6643,-0.6583,-0.6692,-0.6542,-0.6534,-0.6643,-0.6643,-0.6721,-0.6886,-0.6922,-0.7041,-0.7175,-0.7356,-0.844,-0.9933,-1.0083,-1.1062,-1.2305,-1.2305,-1.2305,-1.2305,-1.2305,-1.2305,-1.2305,-1.2305,-1.2305,-1.2305,-1.2305,-1.2305,-1.2305,-1.2305,-1.2342,-1.2452,-1.2826,-1.2936,-1.3046,-1.3419,-1.3492,-1.3492,-1.3492,-1.3492,-1.3492,-1.3492,-1.3492,-1.3492,-1.3492,-1.3492,-1.3492,-1.3492,-1.3492,-1.3492,-1.3492,-1.3492,-1.3492,-1.3492,-1.3492,-1.3492,-1.3492,-1.3492,-1.3492,-1.3492,-1.4222,-1.5242,-1.6655,-1.6655,-1.6975,-1.7545,-1.7725,-1.7862,-1.8008,-1.8008,-1.8008,-1.5389,-1.5177,-1.5024,-1.5316,-1.517,-1.5046,-1.5367,0.0,-1.5455,-1.5526,0.0,0.0,0.0,0.0,0.0,0.0,0.0,0.0,-1.8112,-1.7914,-1.7517,-1.7294,-1.7238,0.0,0.0,-1.6551,-1.6067,-1.5384,-1.5294,-1.4899,-1.4102,-1.1923,-1.0596,-1.0395,-0.823,-0.6967,-0.6757,-0.6922,-0.691,-0.6725,-0.6873,-0.6857,-0.6696,-0.6676,-0.6587,-0.6448,-0.6448,-0.6461,-0.6489,-0.6678,-0.6853,-0.7104,-0.7952,-0.8951,-0.997,-1.0694,-1.1521,-1.2305,-1.2305,-1.2305,-1.2305,-1.2305,-1.2305,-1.2305,-1.2305,-1.2305,-1.2305,-1.2305,-1.2305,-1.2305,-1.2305,-1.2415,-1.2636,-1.2863,-1.3046,-1.3236,-1.3455,-1.3492,-1.3492,-1.3492,-1.3492,-1.3492,-1.3492,-1.3492,-1.3492,-1.3492,-1.3492,-1.3492,-1.3492,-1.3492,-1.3492,-1.3492,-1.3492,-1.3492,-1.3492,-1.3492,-1.3492,-1.3492,-1.3492,-1.3492,-1.3492,-1.4222,-1.4994,-1.5816,-1.5851,-1.5886,-1.5956,-1.6689,-1.7364,-1.8008,-1.8008,-1.8008,-1.5389,0.0,0.0,0.0,0.0,0.0,-1.5316,0.0,-1.5389,0.0,0.0,0.0,0.0,0.0,0.0,0.0,-1.7084,0.0,0.0,0.0,-1.8425,0.0,0.0,0.0,0.0,0.0,0.0,0.0,-1.5395,-1.5051,-1.4267,-1.2525,-1.117,-1.0368,-0.8815,-0.7653,-0.7005,-0.7078,-0.7021,-0.6878,-0.6853,-0.6765,-0.6692,-0.6587,-0.6493,-0.6387,-0.6387,-0.6387,-0.644,-0.6755,-0.6918,-0.7088,-0.8143,-0.9103,-0.9933,-1.0276,-1.1211,-1.2305,-1.2305,-1.2305,-1.2305,-1.2305,-1.2305,-1.2305,-1.2305,-1.2305,-1.2305,-1.2305,-1.2305,-1.2305,-1.2305,-1.2452,-1.2636,-1.2863,-1.3046,-1.3273,-1.3455,-1.3492,-1.3492,-1.3492,-1.3492,-1.3492,-1.3492,-1.3492,-1.3492,-1.3492,-1.3492,-1.3492,-1.3492,-1.3492,-1.3492,-1.3492,-1.3492,-1.3492,-1.3492,-1.3492,-1.3492,-1.3492,-1.3492,-1.3492,-1.3492,-1.3811,-1.4294,-1.5029,-1.5065,-1.5278,-1.571,-1.6026,-1.6585,-1.7364,-1.7794,-1.7759,-1.5228,0.0,0.0,0.0,0.0,0.0,0.0,0.0,0.0,0.0,0.0,0.0,0.0,0.0,0.0,0.0,0.0,-1.8532,0.0,-1.9064,0.0,0.0,0.0,0.0,0.0,0.0,0.0,0.0,0.0,-1.521,-1.4455,-1.3081,-1.1756,-1.0499,-0.9294,-0.8227,-0.7228,-0.7273,-0.7179,-0.6988,-0.6875,-0.679,-0.6692,-0.6554,-0.6465,-0.6387,-0.6387,-0.6415,-0.6518,-0.6861,-0.7016,-0.7166,-0.8262,-0.9188,-0.9933,-1.0158,-1.1099,-1.2305,-1.2305,-1.2305,-1.2305,-1.2305,-1.2305,-1.2305,-1.2305,-1.2305,-1.2305,-1.2305,-1.2305,-1.2305,-1.2305,-1.2489,-1.2709,-1.2863,-1.3083,-1.3309,-1.3455,-1.3492,-1.3492,-1.3492,-1.3492,-1.3492,-1.3492,-1.3492,-1.3492,-1.3492,-1.3492,-1.3492,-1.3492,-1.3492,-1.3492,-1.3492,-1.3492,-1.3492,-1.3492,-1.3492,-1.3492,-1.3492,-1.3492,-1.3492,-1.3492,-1.3492,-1.3739,-1.4294,-1.4294,-1.4573,-1.5108,-1.5286,-1.5702,-1.6298,-1.726,-1.751,0.0,0.0,0.0,-1.527,0.0,0.0,0.0,0.0,-1.5009,0.0,0.0,0.0,0.0,0.0,0.0,-1.8935,0.0,0.0,0.0,0.0,0.0,0.0,0.0,0.0,0.0,0.0,-1.7189,0.0,-1.5866,0.0,-1.4748,-1.3393,-1.2105,-1.0825,-0.9412,-0.8227,-0.7228,-0.7391,-0.7335,-0.6992,-0.7127,-0.7029,-0.6696,-0.671,-0.6578,-0.6387,-0.6387,-0.6522,-0.67,-0.6914,-0.7094,-0.7306,-0.8316,-0.9188,-1.0008,-1.0769,-1.1595,-1.2305,-1.2305,-1.2305,-1.2305,-1.2305,-1.2305,-1.2305,-1.2305,-1.2305,-1.2305,-1.2305,-1.2305,-1.2305,-1.2305,-1.2599,-1.29,-1.29,-1.32,-1.3492,-1.3492,-1.3492,-1.3492,-1.3492,-1.3492,-1.3492,-1.3492,-1.3492,-1.3492,-1.3492,-1.3492,-1.3492,-1.3492,-1.3492,-1.3492,-1.3492,-1.3492,-1.3492,-1.3492,-1.3492,-1.3492,-1.3492,-1.3492,-1.3492,-1.3492,-1.3492,-1.3492,-1.3528,-1.3528,-1.3564,-1.3564,-1.4294,-1.4637,-1.4708,-1.6228,-1.7295,0.0,0.0,-1.4291,-1.4684,0.0,0.0,0.0,0.0,0.0,0.0,0.0,0.0,0.0,0.0,0.0,0.0,0.0,0.0,0.0,0.0,0.0,0.0,0.0,0.0,0.0,0.0,0.0,0.0,-1.5648,0.0,0.0,-1.3776,-1.2487,-1.0836,-0.9949,-0.8812,-0.7395,-0.7452,-0.7366,-0.7135,-0.7074,-0.6955,-0.671,-0.6558,-0.6473,-0.6391,-0.655,-0.6631,-0.6704,-0.7009,-0.7167,-0.7352,-0.8877,-0.9669,-1.0008,-1.0807,-1.1595,-1.2305,-1.2305,-1.2305,-1.2305,-1.2305,-1.2305,-1.2305,-1.2305,-1.2305,-1.2305,-1.2305,-1.2305,-1.2342,-1.2452,-1.2709,-1.2936,-1.3083,-1.3309,-1.3492,-1.3492,-1.3492,-1.3492,-1.3492,-1.3492,-1.3492,-1.3492,-1.3492,-1.3492,-1.3492,-1.3492,-1.3492,-1.3492,-1.3492,-1.3492,-1.3492,-1.3492,-1.3492,-1.3492,-1.3492,-1.3492,-1.3492,-1.3492,-1.3492,-1.3492,-1.3492,-1.3492,-1.3492,-1.3985,-1.4222,-1.4222,-1.4966,-1.5596,-1.6123,-1.6655,-1.7044,-1.4092,-1.3887,0.0,-1.404,-1.4121,0.0,-1.467,0.0,-1.4867,0.0,0.0,0.0,0.0,0.0,0.0,0.0,0.0,0.0,0.0,-2.0605,0.0,0.0,0.0,0.0,0.0,0.0,-1.7157,-1.5543,-1.541,0.0,0.0,0.0,-1.2795,-1.0842,-1.0301,-0.9219,-0.7522,-0.7484,-0.7362,-0.7127,-0.7045,-0.6857,-0.6583,-0.6469,-0.6387,-0.6395,-0.6615,-0.6725,-0.6833,-0.7102,-0.741,-0.7884,-0.9348,-1.0083,-1.0426,-1.1217,-1.1855,-1.2305,-1.2305,-1.2305,-1.2305,-1.2305,-1.2305,-1.2305,-1.2305,-1.2305,-1.2305,-1.2305,-1.2342,-1.2452,-1.2562,-1.2783,-1.3046,-1.3156,-1.3346,-1.3492,-1.3492,-1.3492,-1.3492,-1.3492,-1.3492,-1.3492,-1.3492,-1.3492,-1.3492,-1.3492,-1.3492,-1.3492,-1.3492,-1.3492,-1.3492,-1.3492,-1.3492,-1.3492,-1.3492,-1.3492,-1.3492,-1.3492,-1.3492,-1.3492,-1.3492,-1.3739,-1.3876,-1.3876,-1.4609,-1.4994,-1.4994,-1.5463,-1.6123,-1.6897,-1.6897,-1.7044]}]]